[[{"header":{"parameterUnit":"m.s-1","parameterCategory":1,"la1":30.6,"la2":28.766,"lo1":-90.7593,"lo2":-88.6598,"dy":0.0162,"dx":0.0183,"nx":116,"ny":114,"refTime":"2024-03-01T18:00:00:Z","depth":0,"parameterNumber":2,"parameterNumberName":"U-component_of_WINDS"},"data":[0.0,0.0,0.0,0.0,0.0,0.0,0.0,0.0,0.0,0.0,0.0,0.0,0.0,0.0,0.0,0.0,0.0,0.0,0.0,0.0,0.0,0.0,0.0,0.0,0.0,0.0,0.0,0.0,0.0,0.0,0.0,0.0,0.0,0.0,0.0,0.0,0.0,0.0,0.0,0.0,0.0,0.0,0.0,0.0,0.0,0.0,0.0,0.0,0.0,0.0,0.0,0.0,0.0,0.0,0.0,0.0,0.0,0.0,0.0,0.0,0.0,0.0,0.0,0.0,0.0,0.0,0.0,0.0,0.0,0.0,0.0,0.0,0.0,0.0,0.0,0.0,0.0,0.0,0.0,0.0,0.0,0.0,0.0,0.0,0.0,0.0,0.0,0.0,0.0,0.0,0.0,0.0,0.0,0.0,0.0,0.0,0.0,0.0,0.0,0.0,0.0,0.0,0.0,0.0,0.0,0.0,0.0,0.0,0.0,0.0,0.0,0.0,0.0,0.0,0.0,0.0,0.0,0.0,0.0,0.0,0.0,0.0,0.0,0.0,0.0,0.0,0.0,0.0,0.0,0.0,0.0,0.0,0.0,0.0,0.0,0.0,0.0,0.0,0.0,0.0,0.0,0.0,0.0,0.0,0.0,0.0,0.0,0.0,0.0,0.0,0.0,0.0,0.0,0.0,0.0,0.0,0.0,0.0,0.0,0.0,0.0,0.0,0.0,0.0,0.0,0.0,0.0,0.0,0.0,0.0,0.0,0.0,0.0,0.0,0.0,0.0,0.0,0.0,0.0,0.0,0.0,0.0,0.0,0.0,0.0,0.0,0.0,0.0,0.0,0.0,0.0,0.0,0.0,0.0,0.0,0.0,0.0,0.0,0.0,0.0,0.0,0.0,0.0,0.0,0.0,0.0,0.0,0.0,0.0,0.0,0.0,0.0,0.0,0.0,0.0,0.0,0.0,0.0,0.0,0.0,0.0,0.0,0.0,0.0,0.0,0.0,0.0,0.0,0.0,0.0,0.0,0.0,0.0,0.0,0.0,0.0,0.0,0.0,0.0,0.0,0.0,0.0,0.0,0.0,0.0,0.0,0.0,0.0,0.0,0.0,0.0,0.0,0.0,0.0,0.0,0.0,0.0,0.0,0.0,0.0,0.0,0.0,0.0,0.0,0.0,0.0,0.0,0.0,0.0,0.0,0.0,0.0,0.0,0.0,0.0,0.0,0.0,0.0,0.0,0.0,0.0,0.0,0.0,0.0,0.0,0.0,0.0,0.0,0.0,0.0,0.0,0.0,0.0,0.0,0.0,0.0,0.0,0.0,0.0,0.0,0.0,0.0,0.0,0.0,0.0,0.0,0.0,0.0,0.0,0.0,0.0,0.0,0.0,0.0,0.0,0.0,0.0,0.0,0.0,0.0,0.0,0.0,0.0,0.0,0.0,0.0,0.0,0.0,0.0,0.0,0.0,0.0,0.0,0.0,0.0,0.0,0.0,0.0,0.0,0.0,0.0,0.0,0.0,0.0,0.0,0.0,0.0,0.0,0.0,0.0,0.0,0.0,0.0,0.0,0.0,0.0,0.0,0.0,0.0,0.0,0.0,0.0,0.0,0.0,0.0,0.0,0.0,0.0,0.0,0.0,0.0,0.0,0.0,0.0,0.0,0.0,0.0,0.0,0.0,0.0,0.0,0.0,0.0,0.0,0.0,0.0,0.0,0.0,0.0,0.0,0.0,0.0,0.0,0.0,0.0,0.0,0.0,0.0,0.0,0.0,0.0,0.0,0.0,0.0,0.0,0.0,0.0,0.0,0.0,0.0,0.0,0.0,0.0,0.0,0.0,0.0,0.0,0.0,0.0,0.0,0.0,0.0,0.0,0.0,0.0,0.0,0.0,0.0,0.0,0.0,0.0,0.0,0.0,0.0,0.0,0.0,0.0,0.0,0.0,0.0,0.0,0.0,0.0,0.0,0.0,0.0,0.0,0.0,0.0,0.0,0.0,0.0,0.0,0.0,0.0,0.0,0.0,0.0,0.0,0.0,0.0,0.0,0.0,0.0,0.0,0.0,0.0,0.0,0.0,0.0,0.0,0.0,0.0,0.0,0.0,0.0,0.0,0.0,0.0,0.0,0.0,0.0,0.0,0.0,0.0,0.0,0.0,0.0,0.0,0.0,0.0,0.0,0.0,0.0,0.0,0.0,0.0,0.0,0.0,0.0,0.0,0.0,0.0,0.0,0.0,0.0,0.0,0.0,0.0,0.0,0.0,0.0,0.0,0.0,0.0,0.0,0.0,0.0,0.0,0.0,0.0,0.0,0.0,0.0,0.0,0.0,0.0,0.0,0.0,0.0,0.0,0.0,0.0,0.0,0.0,0.0,0.0,0.0,0.0,0.0,0.0,0.0,0.0,0.0,0.0,0.0,0.0,0.0,0.0,0.0,0.0,0.0,0.0,0.0,0.0,0.0,0.0,0.0,0.0,0.0,0.0,0.0,0.0,0.0,0.0,0.0,0.0,0.0,0.0,0.0,0.0,0.0,0.0,0.0,0.0,0.0,0.0,0.0,0.0,0.0,0.0,0.0,0.0,0.0,0.0,0.0,0.0,0.0,0.0,0.0,0.0,0.0,0.0,0.0,0.0,0.0,0.0,0.0,0.0,0.0,0.0,0.0,0.0,0.0,0.0,0.0,0.0,0.0,0.0,0.0,0.0,0.0,0.0,0.0,0.0,0.0,0.0,0.0,0.0,0.0,0.0,0.0,0.0,0.0,0.0,0.0,0.0,0.0,0.0,0.0,0.0,0.0,0.0,0.0,0.0,0.0,0.0,0.0,0.0,0.0,0.0,0.0,0.0,0.0,0.0,0.0,0.0,0.0,0.0,0.0,0.0,0.0,0.0,0.0,0.0,0.0,0.0,0.0,0.0,0.0,0.0,0.0,0.0,0.0,0.0,0.0,0.0,0.0,0.0,0.0,0.0,0.0,0.0,0.0,0.0,0.0,0.0,0.0,0.0,0.0,0.0,0.0,0.0,0.0,0.0,0.0,0.0,0.0,0.0,0.0,0.0,0.0,0.0,0.0,0.0,0.0,0.0,0.0,0.0,0.0,0.0,0.0,0.0,0.0,0.0,0.0,0.0,0.0,0.0,0.0,0.0,0.0,0.0,0.0,0.0,0.0,0.0,0.0,0.0,0.0,0.0,0.0,0.0,0.0,0.0,0.0,0.0,0.0,0.0,0.0,0.0,0.0,0.0,0.0,0.0,0.0,0.0,0.0,0.0,0.0,0.0,0.0,0.0,0.0,0.0,0.0,0.0,0.0,0.0,0.0,0.0,0.0,0.0,0.0,0.0,0.0,0.0,0.0,0.0,0.0,0.0,0.0,0.0,0.0,0.0,0.0,0.0,0.0,0.0,0.0,0.0,0.0,0.0,0.0,0.0,0.0,0.0,0.0,0.0,0.0,0.0,0.0,0.0,0.0,0.0,0.0,0.0,0.0,0.0,0.0,0.0,0.0,0.0,0.0,0.0,0.0,0.0,0.0,0.0,0.0,0.0,0.0,0.0,0.0,0.0,0.0,0.0,0.0,0.0,0.0,0.0,0.0,0.0,0.0,0.0,0.0,0.0,0.0,0.0,0.0,0.0,0.0,0.0,0.0,0.0,0.0,0.0,0.0,0.0,0.0,0.0,0.0,0.0,0.0,0.0,0.0,0.0,0.0,0.0,0.0,0.0,0.0,0.0,0.0,0.0,0.0,0.0,0.0,0.0,0.0,0.0,0.0,0.0,0.0,0.0,0.0,0.0,0.0,0.0,0.0,0.0,0.0,0.0,0.0,0.0,0.0,0.0,0.0,0.0,0.0,0.0,0.0,0.0,0.0,0.0,0.0,0.0,0.0,0.0,0.0,0.0,0.0,0.0,0.0,0.0,0.0,0.0,0.0,0.0,0.0,0.0,0.0,0.0,0.0,0.0,0.0,0.0,0.0,0.0,0.0,0.0,0.0,0.0,0.0,0.0,0.0,0.0,0.0,0.0,0.0,0.0,0.0,0.0,0.0,0.0,0.0,0.0,0.0,0.0,0.0,0.0,0.0,0.0,0.0,0.0,0.0,0.0,0.0,0.0,0.0,0.0,0.0,0.0,0.0,0.0,0.0,0.0,0.0,0.0,0.0,0.0,0.0,0.0,0.0,0.0,0.0,0.0,0.0,0.0,0.0,0.0,0.0,0.0,0.0,0.0,0.0,0.0,0.0,0.0,0.0,0.0,0.0,0.0,0.0,0.0,0.0,0.0,0.0,0.0,0.0,0.0,0.0,0.0,0.0,0.0,0.0,0.0,0.0,0.0,0.0,0.0,0.0,0.0,0.0,0.0,0.0,0.0,0.0,0.0,0.0,0.0,0.0,0.0,0.0,0.0,0.0,0.0,0.0,0.0,0.0,0.0,0.0,0.0,0.0,0.0,0.0,0.0,0.0,0.0,0.0,0.0,0.0,0.0,0.0,0.0,0.0,0.0,0.0,0.0,0.0,0.0,0.0,0.0,0.0,0.0,0.0,0.0,0.0,0.0,0.0,0.0,0.0,0.0,0.0,0.0,0.0,0.0,0.0,0.0,0.0,0.0,0.0,0.0,0.0,0.0,0.0,0.0,0.0,0.0,0.0,0.0,0.0,0.0,0.0,0.0,0.0,0.0,0.0,0.0,0.0,0.0,0.0,0.0,0.0,0.0,0.0,0.0,0.0,0.0,0.0,0.0,0.0,0.0,0.0,0.0,0.0,0.0,0.0,0.0,0.0,0.0,0.0,0.0,0.0,0.0,0.0,0.0,0.0,0.0,0.0,0.0,0.0,0.0,0.0,0.0,0.0,0.0,0.0,0.0,0.0,0.0,0.0,0.0,0.0,0.0,0.0,0.0,0.0,0.0,0.0,0.0,0.0,0.0,0.0,0.0,0.0,0.0,0.0,0.0,0.0,0.0,0.0,0.0,0.0,0.0,0.0,0.0,0.0,0.0,0.0,0.0,0.0,0.0,0.0,0.0,0.0,0.0,0.0,0.0,0.0,0.0,0.0,0.0,0.0,0.0,0.0,0.0,0.0,0.0,0.0,0.0,0.0,0.0,0.0,0.0,0.0,0.0,0.0,0.0,0.0,0.0,0.0,0.0,0.0,0.0,0.0,0.0,0.0,0.0,0.0,0.0,0.0,0.0,0.0,0.0,0.0,0.0,0.0,0.0,0.0,0.0,0.0,0.0,0.0,0.0,0.0,0.0,0.0,0.0,0.0,0.0,0.0,0.0,0.0,0.0,0.0,0.0,0.0,0.0,0.0,0.0,0.0,0.0,0.0,0.0,0.0,0.0,0.0,0.0,0.0,0.0,0.0,0.0,0.0,0.0,0.0,0.0,0.0,0.0,0.0,0.0,0.0,0.0,0.0,0.0,0.0,0.0,0.0,0.0,0.0,0.0,0.0,0.0,0.0,0.0,0.0,0.0,0.0,0.0,0.0,0.0,0.0,0.0,0.0,0.0,0.0,0.0,0.0,0.0,0.0,0.0,0.0,0.0,0.0,0.0,0.0,0.0,0.0,0.0,0.0,0.0,0.0,0.0,0.0,0.0,0.0,0.0,0.0,0.0,0.0,0.0,0.0,0.0,0.0,0.0,0.0,0.0,0.0,0.0,0.0,0.0,0.0,0.0,0.0,0.0,0.0,0.0,0.0,0.0,0.0,0.0,0.0,0.0,0.0,0.0,0.0,0.0,0.0,0.0,0.0,0.0,0.0,0.0,0.0,0.0,0.0,0.0,0.0,0.0,0.0,0.0,0.0,0.0,0.0,0.0,0.0,0.0,0.0,0.0,0.0,0.0,0.0,0.0,0.0,0.0,0.0,0.0,0.0,0.0,0.0,0.0,0.0,0.0,0.0,0.0,0.0,0.0,0.0,0.0,0.0,0.0,0.0,0.0,0.0,0.0,0.0,0.0,0.0,0.0,0.0,0.0,0.0,0.0,0.0,0.0,0.0,0.0,0.0,0.0,0.0,0.0,0.0,0.0,0.0,0.0,0.0,0.0,0.0,0.0,0.0,0.0,0.0,0.0,0.0,0.0,0.0,0.0,0.0,0.0,0.0,-3.3181,-3.319,0.0,0.0,0.0,0.0,0.0,0.0,0.0,0.0,0.0,0.0,0.0,0.0,0.0,0.0,0.0,0.0,0.0,0.0,0.0,0.0,0.0,0.0,0.0,0.0,0.0,0.0,0.0,0.0,0.0,0.0,0.0,0.0,0.0,0.0,-2.6768,-2.6839,-2.7005,-2.7311,-2.7382,-2.7535,-2.7745,-2.8127,-2.8358,-2.8403,0.0,0.0,0.0,0.0,0.0,0.0,0.0,0.0,0.0,0.0,0.0,0.0,0.0,0.0,0.0,0.0,0.0,0.0,0.0,0.0,0.0,0.0,0.0,0.0,0.0,0.0,0.0,0.0,0.0,0.0,0.0,0.0,0.0,0.0,0.0,0.0,0.0,0.0,0.0,0.0,0.0,0.0,0.0,0.0,0.0,0.0,0.0,0.0,0.0,0.0,0.0,0.0,0.0,0.0,0.0,0.0,0.0,0.0,0.0,0.0,0.0,0.0,0.0,0.0,0.0,0.0,0.0,0.0,0.0,0.0,-3.2487,-3.2634,0.0,0.0,0.0,0.0,0.0,0.0,0.0,0.0,0.0,0.0,0.0,0.0,0.0,0.0,0.0,0.0,0.0,0.0,0.0,0.0,0.0,0.0,0.0,-2.4642,-2.5004,-2.5099,-2.5171,-2.523,0.0,0.0,0.0,0.0,0.0,-2.6598,-2.6598,-2.6749,-2.6937,-2.7149,-2.7385,-2.7594,-2.7803,-2.7803,-2.782,-2.7898,-2.794,0.0,0.0,0.0,0.0,0.0,0.0,0.0,0.0,0.0,0.0,0.0,0.0,0.0,0.0,0.0,0.0,0.0,0.0,0.0,0.0,0.0,0.0,0.0,0.0,0.0,0.0,0.0,0.0,0.0,0.0,0.0,0.0,0.0,0.0,0.0,0.0,0.0,0.0,0.0,0.0,0.0,0.0,0.0,0.0,0.0,0.0,0.0,0.0,0.0,0.0,0.0,0.0,0.0,0.0,0.0,0.0,0.0,0.0,0.0,0.0,0.0,0.0,0.0,-3.2064,-3.2016,-3.2005,-3.1553,-3.1217,-3.103,-3.162,-3.1781,-3.1681,-3.1625,0.0,0.0,0.0,0.0,0.0,0.0,0.0,0.0,0.0,0.0,0.0,0.0,0.0,0.0,0.0,0.0,0.0,0.0,0.0,0.0,0.0,-2.4425,-2.4613,-2.437,-2.4715,-2.4957,-2.4957,0.0,-2.5666,-2.5666,-2.5724,-2.5758,-2.5758,-2.5785,-2.5912,-2.6103,-2.6472,-2.6774,-2.6974,-2.6974,-2.7138,-2.7494,-2.7723,-2.7768,-2.7656,0.0,0.0,0.0,0.0,0.0,0.0,0.0,0.0,0.0,0.0,0.0,0.0,0.0,0.0,0.0,0.0,0.0,0.0,0.0,0.0,0.0,0.0,0.0,0.0,0.0,0.0,0.0,0.0,0.0,0.0,0.0,0.0,0.0,0.0,0.0,0.0,0.0,0.0,0.0,0.0,0.0,-2.9776,-2.9791,0.0,0.0,0.0,0.0,0.0,0.0,0.0,0.0,0.0,0.0,0.0,0.0,0.0,-3.0934,-3.099,-3.099,-3.0893,-3.0749,-3.0749,-3.0614,-3.042,-3.0354,-3.0187,-2.9894,-3.0013,0.0,-3.0431,-3.0181,0.0,0.0,0.0,0.0,0.0,0.0,0.0,0.0,0.0,0.0,0.0,0.0,0.0,0.0,0.0,0.0,0.0,0.0,0.0,0.0,0.0,-2.376,-2.4025,-2.3921,-2.4096,-2.433,-2.4609,-2.5077,-2.5305,-2.5305,-2.5623,-2.5779,-2.5779,-2.5779,-2.586,-2.6079,-2.6491,-2.6781,-2.686,-2.6955,-2.7038,-2.7014,-2.7255,-2.7507,-2.7755,-2.7471,0.0,0.0,0.0,0.0,0.0,0.0,0.0,0.0,0.0,0.0,0.0,0.0,0.0,0.0,0.0,0.0,0.0,0.0,0.0,0.0,0.0,0.0,0.0,0.0,0.0,0.0,0.0,0.0,0.0,0.0,0.0,0.0,0.0,0.0,0.0,0.0,0.0,0.0,0.0,-2.8532,-2.8644,-2.8934,-2.887,-2.8869,0.0,0.0,0.0,0.0,0.0,0.0,0.0,0.0,0.0,-2.9653,-2.9513,-2.9589,-2.9832,-2.9832,-2.9781,-2.973,-2.973,-2.9638,-2.9536,-2.9286,-2.9081,-2.897,-2.8711,-2.8655,-2.8818,-2.9026,-2.9117,-2.9085,0.0,0.0,0.0,0.0,-2.7911,-2.7693,0.0,0.0,0.0,0.0,0.0,0.0,0.0,0.0,0.0,0.0,0.0,0.0,-2.2761,-2.3088,-2.3348,-2.3448,-2.3533,-2.3763,-2.4207,-2.4699,-2.4958,-2.4958,-2.5344,-2.5549,-2.5549,-2.5678,-2.5871,-2.617,-2.6572,-2.678,-2.6752,-2.6937,-2.6871,-2.6582,-2.6794,-2.7165,-2.7594,-2.7271,-2.7098,-2.7097,0.0,0.0,0.0,0.0,0.0,0.0,0.0,0.0,0.0,0.0,0.0,0.0,0.0,0.0,0.0,0.0,0.0,0.0,0.0,0.0,0.0,0.0,0.0,0.0,0.0,0.0,0.0,0.0,0.0,0.0,0.0,0.0,0.0,0.0,0.0,0.0,0.0,-2.7583,-2.7497,-2.7994,-2.7846,-2.7823,0.0,0.0,0.0,0.0,0.0,0.0,-2.8523,-2.8126,-2.8071,-2.8433,-2.8244,-2.8298,-2.8658,-2.8668,-2.8668,-2.8668,-2.8668,-2.8668,-2.8648,-2.8288,-2.8097,-2.8035,-2.7658,-2.7459,-2.7462,-2.801,-2.8275,-2.8223,-2.7727,-2.7455,-2.7232,-2.7156,-2.6982,-2.6802,0.0,0.0,0.0,0.0,0.0,0.0,0.0,0.0,0.0,0.0,0.0,-2.1906,-2.2637,-2.258,-2.2545,-2.273,-2.3043,-2.338,-2.3784,-2.4261,-2.4542,-2.4542,-2.4573,-2.4584,-2.4584,-2.4997,-2.5521,-2.6086,-2.6375,-2.6428,-2.6217,-2.6497,-2.6491,-2.6235,-2.6442,-2.6548,-2.6574,-2.675,-2.6813,-2.6851,-2.7088,0.0,0.0,0.0,0.0,0.0,0.0,0.0,0.0,0.0,0.0,0.0,0.0,0.0,0.0,0.0,0.0,0.0,0.0,0.0,0.0,0.0,0.0,0.0,0.0,0.0,0.0,0.0,0.0,0.0,0.0,0.0,0.0,0.0,0.0,0.0,0.0,0.0,0.0,-2.7109,-2.6952,0.0,0.0,0.0,0.0,-2.7246,-2.7003,-2.7007,-2.746,-2.7425,-2.7444,-2.7463,-2.7463,-2.7473,-2.7492,-2.7492,-2.7492,-2.7492,-2.7492,-2.7492,-2.7492,-2.7473,-2.7311,-2.706,-2.7041,-2.687,-2.6697,-2.715,-2.7379,-2.7279,-2.6644,-2.6378,-2.6329,-2.5947,-2.579,-2.579,0.0,0.0,0.0,0.0,0.0,0.0,0.0,0.0,-2.0146,-2.0916,-2.0892,-2.1108,-2.1855,-2.1989,-2.2104,-2.2362,-2.2611,-2.2926,-2.3312,-2.3524,-2.3723,-2.3958,-2.3978,-2.4098,-2.4376,-2.4555,-2.475,-2.4935,-2.5366,-2.5567,-2.5502,-2.5915,-2.6053,-2.5973,-2.6345,-2.6497,-2.6486,-2.6525,-2.6632,-2.6725,-2.6602,-2.6699,0.0,0.0,0.0,0.0,0.0,0.0,0.0,0.0,0.0,0.0,0.0,0.0,0.0,0.0,0.0,0.0,0.0,0.0,0.0,0.0,0.0,0.0,0.0,0.0,0.0,0.0,0.0,0.0,0.0,0.0,0.0,0.0,0.0,0.0,0.0,0.0,0.0,-2.6092,-2.5773,0.0,-2.6104,-2.5754,-2.5716,-2.619,-2.6109,-2.6118,-2.6318,-2.61,-2.5981,-2.5981,-2.5817,-2.5707,-2.5707,-2.5707,-2.5707,-2.5707,-2.5707,-2.5707,-2.5707,-2.5707,-2.5652,-2.5551,-2.5551,-2.5551,-2.5478,-2.5631,-2.5949,-2.6366,-2.5858,-2.5647,-2.5601,-2.5179,-2.508,-2.5042,0.0,0.0,0.0,0.0,0.0,0.0,0.0,0.0,-1.9742,-2.0246,-2.035,-2.0545,-2.1153,-2.1391,-2.1588,-2.1816,-2.2003,-2.2256,-2.2633,-2.2742,-2.2942,-2.3219,-2.3372,-2.3639,-2.4002,-2.4012,-2.4126,-2.4363,-2.4797,-2.5019,-2.4917,-2.5334,-2.5483,-2.5432,-2.583,-2.61,-2.6172,-2.6193,-2.6438,-2.6736,-2.6409,-2.6461,-2.6695,0.0,0.0,0.0,0.0,0.0,0.0,0.0,0.0,0.0,0.0,0.0,0.0,0.0,0.0,0.0,0.0,0.0,0.0,0.0,0.0,0.0,0.0,0.0,0.0,0.0,0.0,0.0,0.0,0.0,0.0,0.0,0.0,0.0,0.0,-2.488,-2.4666,-2.4957,-2.4633,-2.457,-2.4902,-2.4657,-2.4657,-2.5052,-2.4984,-2.4979,-2.5099,-2.493,-2.4817,-2.4817,-2.4599,-2.4551,-2.4551,-2.4551,-2.4551,-2.4551,-2.4543,-2.4543,-2.4543,-2.4417,-2.4359,-2.4351,-2.4225,-2.4175,-2.4175,-2.4175,-2.4467,-2.4911,-2.4907,-2.4915,-2.487,-2.4485,-2.4342,-2.4289,0.0,0.0,0.0,0.0,0.0,0.0,0.0,-1.9298,-1.9505,-1.9581,-1.9927,-2.0259,-2.0556,-2.0759,-2.0941,-2.1042,-2.1282,-2.1503,-2.1687,-2.2071,-2.2291,-2.2272,-2.2674,-2.3076,-2.345,-2.3468,-2.3797,-2.443,-2.4735,-2.4772,-2.4565,-2.4841,-2.4891,-2.472,-2.496,-2.5244,-2.5493,-2.569,-2.6182,-2.6841,-2.6607,-2.6667,-2.688,0.0,0.0,0.0,0.0,0.0,0.0,0.0,0.0,0.0,0.0,0.0,0.0,0.0,0.0,0.0,0.0,0.0,0.0,0.0,0.0,0.0,0.0,0.0,0.0,0.0,0.0,0.0,0.0,0.0,0.0,0.0,0.0,0.0,-2.3824,-2.3735,-2.3561,-2.3645,-2.3649,-2.3736,-2.3807,-2.356,-2.3489,-2.3835,-2.3596,-2.3581,-2.3897,-2.3921,-2.3921,-2.3921,-2.3945,-2.3952,-2.3952,-2.3952,-2.3952,-2.3952,-2.3929,-2.3929,-2.3945,-2.3597,-2.3447,-2.3423,-2.3124,-2.2973,-2.2973,-2.2965,-2.2958,-2.303,-2.3846,-2.4139,-2.4096,-2.373,-2.3585,-2.3525,0.0,0.0,0.0,0.0,0.0,0.0,-1.8573,-1.8705,-1.8941,-1.9129,-1.9248,-1.9478,-1.9825,-2.0188,-2.0402,-2.0428,-2.0849,-2.1284,-2.1597,-2.1538,-2.1661,-2.1974,-2.2414,-2.2667,-2.2772,-2.2971,-2.3173,-2.3329,-2.3777,-2.402,-2.396,-2.4205,-2.4442,-2.4572,-2.4823,-2.5121,-2.5342,-2.5444,-2.5746,-2.6144,-2.6392,-2.677,-2.7095,0.0,0.0,0.0,0.0,0.0,0.0,0.0,0.0,0.0,0.0,0.0,0.0,0.0,0.0,0.0,0.0,0.0,0.0,0.0,0.0,0.0,0.0,0.0,0.0,0.0,0.0,0.0,0.0,0.0,0.0,0.0,-2.183,-2.2104,-2.3023,-2.2923,-2.2733,-2.2847,-2.2843,-2.2754,-2.2602,-2.2498,-2.2518,-2.2608,-2.2505,-2.255,-2.2632,-2.2632,-2.2632,-2.2632,-2.264,-2.2647,-2.2647,-2.2647,-2.2647,-2.2647,-2.264,-2.264,-2.264,-2.255,-2.2505,-2.249,-2.2139,-2.1982,-2.1967,-2.1792,-2.1695,-2.1801,-2.2895,-2.331,-2.327,-2.2905,-2.256,-2.2333,0.0,0.0,0.0,0.0,0.0,0.0,-1.8212,-1.8375,-1.8535,-1.8609,-1.8833,-1.9118,-1.9401,-1.9731,-1.9915,-2.0006,-2.0341,-2.0666,-2.0962,-2.1109,-2.136,-2.1786,-2.2064,-2.2173,-2.2173,-2.2486,-2.2724,-2.2826,-2.3287,-2.357,-2.3672,-2.3936,-2.4182,-2.4477,-2.4564,-2.484,-2.5208,-2.5073,-2.5236,-2.5609,-2.5906,-2.6252,-2.6628,-2.6761,-2.6723,-2.6617,-2.6715,-2.6758,-2.6699,-2.6624,0.0,0.0,0.0,0.0,0.0,0.0,0.0,0.0,0.0,0.0,0.0,0.0,0.0,0.0,0.0,0.0,0.0,0.0,0.0,0.0,0.0,0.0,0.0,0.0,-2.0982,-2.1272,-2.1484,-2.1824,-2.2013,-2.1745,-2.1832,-2.1744,-2.1322,-2.1262,-2.131,-2.1444,-2.1451,-2.1507,-2.164,-2.1709,-2.1709,-2.1709,-2.1709,-2.1709,-2.1709,-2.1709,-2.1709,-2.1709,-2.1709,-2.1709,-2.1709,-2.1514,-2.1451,-2.1437,-2.1107,-2.0896,-2.0763,-2.0646,-2.0491,-2.0537,0.0,0.0,0.0,0.0,-2.1708,-2.1377,0.0,0.0,0.0,0.0,0.0,0.0,-1.7906,-1.8161,-1.8295,-1.8053,-1.8515,-1.8945,-1.9124,-1.9268,-1.9445,-1.9621,-1.9763,-1.992,-2.0046,-2.0761,-2.1253,-2.1505,-2.1563,-2.1579,-2.1579,-2.1999,-2.2344,-2.2605,-2.2939,-2.3258,-2.3523,-2.3735,-2.3982,-2.4263,-2.4248,-2.4506,-2.4979,-2.4677,-2.4827,-2.5271,-2.5272,-2.5494,-2.5869,-2.6076,-2.618,-2.6219,-2.6465,-2.6657,-2.6749,-2.657,0.0,0.0,0.0,0.0,0.0,0.0,0.0,0.0,0.0,0.0,0.0,0.0,0.0,0.0,0.0,0.0,0.0,0.0,0.0,0.0,0.0,0.0,0.0,0.0,-2.0072,-2.0267,-1.9595,-2.0499,-2.1097,-2.0663,-2.0808,-2.0685,-2.0024,-1.9996,-2.0128,-2.0384,-2.0404,-2.0579,-2.0843,-2.0856,0.0,0.0,0.0,-2.0856,-2.0856,-2.0856,-2.0856,-2.0856,-2.0919,-2.0919,-2.0906,-2.0648,-2.0529,-2.0515,-2.0217,-1.9946,-1.9708,-1.9635,-1.943,-1.9325,-2.0537,-2.1002,-2.1002,-2.1002,-2.0771,-2.0547,0.0,0.0,0.0,0.0,0.0,0.0,-1.7176,-1.7704,-1.8044,-1.7671,-1.7961,-1.8348,-1.8695,-1.8684,-1.8796,-1.9126,-1.9455,-1.972,-1.9838,-2.054,-2.0794,-2.0439,-2.0659,-2.0806,-2.0806,-2.1352,-2.1808,-2.2031,-2.2317,-2.2617,-2.2946,-2.3,-2.316,-2.3462,-2.3658,-2.3887,-2.4245,-2.4625,-2.4908,-2.4975,-2.5103,-2.5516,-2.6034,-2.6082,-2.6145,-2.611,-2.6203,-2.6104,-2.6031,-2.5986,-2.585,-2.5715,-2.5432,-2.5148,0.0,0.0,0.0,0.0,0.0,0.0,0.0,0.0,0.0,0.0,0.0,0.0,0.0,0.0,0.0,0.0,0.0,0.0,0.0,-1.9037,-1.9055,-1.9031,-1.8538,-1.8871,-1.9358,-1.9811,-1.9904,-1.9703,-1.9337,-1.9292,-1.932,-1.9376,-1.9376,-1.94,-1.9456,-1.952,-1.952,-1.952,-1.952,-1.952,-1.952,-1.952,-1.952,-1.952,-1.9769,0.0,-1.9896,-2.0106,-2.0214,-2.0201,-1.9919,-1.9765,-1.9675,-1.9146,-1.8847,-1.8648,-1.9383,-1.9673,-1.9673,-1.9673,-1.9639,-1.9591,0.0,0.0,0.0,0.0,0.0,0.0,-1.6968,-1.7415,-1.7671,-1.7258,-1.7569,-1.8041,-1.849,-1.8409,-1.8521,-1.906,-1.9384,-1.9582,-1.967,-2.0226,-2.0395,-2.0138,-2.0406,-2.059,-2.059,-2.1194,-2.1627,-2.1744,-2.2025,-2.2277,-2.2442,-2.2773,-2.2993,-2.3086,-2.334,-2.358,-2.3886,-2.4122,-2.4307,-2.4447,-2.4711,-2.5066,-2.55,-2.5634,-2.5682,-2.5726,-2.5859,-2.5862,-2.5765,-2.5765,-2.5681,-2.554,-2.5258,-2.5021,-2.4726,0.0,0.0,0.0,0.0,0.0,0.0,0.0,0.0,0.0,0.0,0.0,0.0,0.0,0.0,-1.9098,-1.9221,0.0,-1.8707,-1.8324,-1.8362,-1.825,-1.7706,-1.7886,-1.8265,-1.8809,-1.9018,-1.893,-1.8607,-1.8541,-1.8553,-1.8553,-1.8553,-1.8553,-1.8553,-1.8553,-1.8553,-1.8553,-1.8553,-1.8553,-1.8553,-1.8553,-1.8553,-1.8553,-1.874,-1.8804,-1.8804,-1.8938,-1.9072,-1.9066,-1.8933,-1.8801,-1.8638,-1.8094,-1.7793,-1.766,-1.7809,-1.8286,-1.8874,-1.8874,-1.8874,-1.8874,0.0,0.0,0.0,0.0,0.0,0.0,0.0,-1.7242,-1.736,-1.7021,-1.7375,-1.7821,-1.8356,-1.817,-1.8354,-1.9082,-1.9311,-1.9436,-1.9532,-1.9852,-2.0013,-2.0022,-2.0348,-2.056,-2.0628,-2.1226,-2.1536,-2.1592,-2.1866,-2.2059,-2.2116,-2.2619,-2.2845,-2.2837,-2.3101,-2.3349,-2.3543,-2.3648,-2.3789,-2.3995,-2.4227,-2.4509,-2.4754,-2.4959,-2.5081,-2.5203,-2.5342,-2.5401,-2.5401,-2.5401,-2.5401,-2.5353,-2.5079,-2.4784,-2.4529,-2.4282,-2.3678,0.0,0.0,0.0,0.0,0.0,0.0,0.0,0.0,-1.9919,-1.9181,-1.9427,-1.8854,-1.8346,-1.8508,-1.822,-1.7858,-1.7561,-1.7588,-1.7542,-1.6959,-1.7075,-1.7323,-1.7621,-1.7989,-1.805,-1.7717,-1.7647,-1.7582,-1.7582,-1.7582,-1.7582,-1.7582,-1.7582,-1.7582,-1.7582,-1.7582,-1.7582,-1.7582,-1.7582,-1.7582,-1.7582,-1.7647,-1.7717,-1.7717,-1.7776,-1.7776,-1.7776,-1.784,-1.7769,-1.7565,-1.7171,-1.6954,-1.688,-1.6575,-1.7126,-1.8006,-1.8006,-1.8006,-1.8006,0.0,0.0,0.0,0.0,0.0,0.0,0.0,0.0,-1.7418,-1.7186,-1.7304,-1.7631,-1.8097,-1.7945,-1.8131,-1.8855,-1.9066,-1.9189,-1.9265,-1.9544,-1.9762,-1.9848,-2.0119,-2.0373,-2.0659,-2.1026,-2.138,-2.1665,-2.1702,-2.1896,-2.2116,-2.2173,-2.223,-2.2222,-2.2805,-2.3063,-2.3119,-2.3646,-2.3908,-2.3875,-2.3808,-2.3999,-2.4289,-2.4184,-2.4378,-2.4739,-2.4411,-2.4282,-2.4282,-2.4282,-2.4282,-2.4223,-2.3985,-2.3678,-2.3429,-2.3179,-2.2677,-2.2173,-2.1928,-2.1278,-2.0679,-2.0672,-2.0045,-1.9532,0.0,-1.9127,-1.8534,-1.8545,-1.8208,-1.7799,-1.7571,-1.7219,-1.683,-1.6765,-1.6503,-1.6275,-1.6162,-1.6148,-1.6159,-1.6258,-1.6543,-1.6693,-1.6693,-1.6429,-1.6229,-1.6229,-1.6229,-1.6229,-1.6229,-1.6229,-1.6229,-1.6229,-1.6229,-1.6229,-1.6229,-1.6229,-1.6229,-1.6229,-1.6558,-1.6693,-1.6693,-1.7007,-1.7136,-1.713,-1.74,-1.7582,-1.7582,-1.7371,-1.712,-1.688,-1.6575,-1.6596,-1.6714,-1.6714,-1.6714,-1.6714,0.0,0.0,0.0,0.0,0.0,0.0,0.0,0.0,0.0,-1.7245,-1.7338,-1.759,-1.8054,-1.8277,-1.854,-1.8997,-1.9066,-1.9124,-1.9236,-1.9406,-1.9487,-1.9522,-1.9967,-2.0249,-2.0435,-2.0947,-2.1268,-2.1382,-2.1382,-2.1497,-2.1603,-2.1774,-2.1896,-2.1896,-2.2286,-2.2562,-2.2788,-2.3183,-2.3472,-2.3689,-2.3795,-2.3903,-2.3971,-2.3712,-2.3736,-2.3885,-2.3957,-2.3987,0.0,-2.3509,-2.3379,-2.3329,-2.3079,-2.2828,-2.2526,-2.2274,-2.1827,-2.1315,-2.0896,-2.0294,-1.9838,-2.0019,-1.9396,-1.8791,-1.8913,-1.8404,-1.7855,-1.7838,-1.738,-1.6939,-1.6926,-1.6623,-1.6324,-1.6247,-1.5956,-1.5664,-1.5373,-1.5298,-1.5177,-1.4978,-1.5157,-1.5448,-1.5983,-1.5818,-1.5696,-1.5696,-1.5575,-1.5502,-1.5502,-1.5386,-1.5388,-1.5388,-1.5388,-1.5453,-1.5709,-1.5709,-1.5839,-1.5974,-1.6169,-1.6234,-1.6234,-1.6359,-1.6423,-1.6423,-1.6553,-1.663,-1.6647,-1.6419,-1.6179,-1.594,-1.5705,-1.5535,-1.5477,-1.6242,-1.6478,-1.6478,0.0,0.0,0.0,0.0,0.0,0.0,0.0,0.0,0.0,0.0,-1.7468,-1.7623,-1.8054,-1.8459,-1.8793,-1.9049,-1.8992,-1.9047,-1.9258,-1.928,-1.9316,-1.9403,-1.9938,-2.0219,-2.0314,-2.0918,-2.1211,-2.1211,-2.1211,-2.1211,-2.1211,-2.1439,-2.1554,-2.1554,-2.1888,-2.2116,-2.2408,-2.274,-2.3022,-2.3304,-2.352,-2.3697,-2.3776,-2.345,-2.3398,-2.3472,-2.3589,-2.3514,-2.3384,-2.2885,-2.2612,-2.2426,-2.2224,-2.192,-2.1623,-2.1318,-2.0877,-2.0359,-1.9997,-1.9562,-1.9188,-1.9176,-1.8667,-1.8103,-1.8015,-1.7537,-1.7085,-1.6983,-1.6608,-1.6234,-1.6329,-1.6005,-1.5777,-1.5684,-1.5313,-1.5011,-1.4749,-1.4622,-1.4468,-1.4253,-1.4224,-1.4417,-1.5085,-1.5159,-1.5214,-1.5214,-1.5076,-1.4965,-1.4905,-1.4766,-1.4664,-1.4604,-1.4604,-1.473,-1.5052,-1.5052,-1.5183,-1.5448,-1.5448,-1.5448,-1.5448,-1.5448,-1.5513,-1.5714,-1.5714,-1.5844,-1.5954,-1.5736,-1.5509,-1.5276,-1.5064,-1.4847,-1.4709,-1.5655,-1.6011,-1.6011,0.0,0.0,0.0,0.0,0.0,0.0,0.0,0.0,0.0,0.0,0.0,0.0,0.0,-1.8332,-1.8613,-1.8893,-1.8806,-1.8858,-1.9171,-1.9251,-1.947,-1.9786,-2.0062,-2.0329,-2.0706,-2.1035,-2.1211,-2.1211,-2.1211,-2.1211,-2.1211,-2.1211,-2.1211,-2.1211,-2.1554,-2.1725,-2.1782,-2.2351,-2.2626,-2.2626,-2.2901,-2.3247,-2.3528,-2.352,-2.368,-2.3805,-2.3087,-2.2592,-2.2339,-2.233,-2.1876,-2.1377,-2.1326,-2.0968,-2.0514,-2.0241,-1.9747,-1.9331,-1.9358,-1.9118,-1.8735,-1.8109,-1.7743,-1.7467,-1.7114,-1.6585,-1.6126,-1.5947,-1.5883,-1.581,-1.5663,-1.5237,-1.4926,-1.4931,-1.4403,-1.4011,-1.421,-1.4241,-1.4248,-1.4373,-1.393,-1.3612,-1.3677,-1.4156,-1.4404,-1.4404,-1.44,-1.438,-1.4254,-1.4236,-1.4143,-1.3949,-1.394,-1.394,-1.394,-1.394,-1.394,-1.394,-1.394,-1.394,-1.394,-1.394,-1.4338,-1.4931,-1.4931,-1.5323,-1.5954,-1.5736,-1.5509,-1.5276,-1.5064,-1.4847,-1.4595,-1.4655,-1.465,-1.465,0.0,0.0,0.0,0.0,0.0,0.0,0.0,0.0,0.0,0.0,0.0,0.0,0.0,0.0,0.0,0.0,-1.9186,-1.9288,-1.9482,-1.9706,-1.9784,-1.974,-2.0206,-2.0446,-2.0343,-2.0933,-2.1211,-2.1211,-2.1211,-2.1211,-2.1211,-2.1211,-2.1211,-2.1211,-2.1325,-2.1497,-2.1725,-2.1896,-2.2116,-2.2286,-2.2626,-2.2683,-2.2626,-2.2796,-2.2796,-2.2644,0.0,-2.2346,-2.2282,-2.1844,-2.1271,-2.0719,-2.0351,-2.0246,-2.0152,-1.9721,-1.9317,-1.8923,-1.8506,-1.8173,-1.7869,-1.7392,-1.6938,-1.6473,-1.6124,-1.5834,-1.5595,-1.5515,-1.5242,-1.5018,-1.5113,-1.4619,-1.4272,-1.4272,-1.3884,-1.3558,-1.3474,-1.3337,-1.3207,-1.3179,-1.3068,-1.3097,-1.3097,-1.3259,-1.3365,-1.3365,-1.3192,-1.3055,-1.2942,-1.2827,-1.2685,-1.2507,-1.27,-1.2964,-1.3161,-1.3428,-1.3687,-1.3875,-1.3875,-1.3875,-1.3875,-1.3875,-1.401,-1.4272,-1.4272,-1.4399,-1.459,-1.4526,-1.4295,-1.398,-1.3911,-1.368,-1.3324,-1.3324,-1.3324,-1.3444,0.0,0.0,0.0,0.0,0.0,0.0,0.0,0.0,0.0,0.0,0.0,0.0,0.0,0.0,0.0,0.0,0.0,-1.9636,-1.9664,-1.9936,-2.0034,-1.9828,-2.0355,-2.0593,-2.0503,-2.1037,-2.1371,-2.1489,-2.1489,-2.1489,-2.1489,-2.1439,-2.1382,-2.1382,-2.1268,-2.1325,-2.1554,-2.1668,-2.1782,-2.2002,-2.2286,-2.2286,-2.2116,-2.2343,-2.2286,0.0,-2.2116,-2.1896,-2.1603,-2.1384,-2.0823,-2.0172,-1.9807,-1.9599,-1.9434,-1.9085,-1.8701,-1.8306,-1.7893,-1.7468,-1.7067,-1.6591,-1.6118,-1.5645,-1.5304,-1.5057,-1.4916,-1.4945,-1.4595,-1.4295,-1.4502,-1.408,-1.3687,-1.3551,-1.3231,-1.2988,-1.2819,-1.2676,-1.2627,-1.2574,-1.2622,-1.2617,-1.2617,-1.247,-1.247,-1.2753,-1.266,-1.2503,-1.228,-1.2171,-1.2011,-1.1788,-1.1978,-1.2243,-1.2441,-1.2708,-1.2968,-1.3157,-1.3288,-1.3354,-1.3354,-1.342,-1.3617,-1.3752,-1.3752,-1.3814,-1.3875,-1.3875,-1.3646,-1.3299,-1.3299,-1.3062,-1.2719,-1.2719,-1.2719,-1.284,0.0,0.0,0.0,0.0,0.0,0.0,0.0,0.0,0.0,0.0,0.0,0.0,0.0,0.0,0.0,0.0,0.0,0.0,-1.9835,-2.0066,-2.0189,-2.0181,-2.0459,-2.0796,-2.1063,-2.1421,-2.1765,-2.2085,-2.2101,-2.2116,-2.2108,-2.1839,-2.1725,-2.1725,-2.1382,-2.1268,-2.1268,-2.1611,-2.1725,-2.1725,-2.2002,-2.2059,-2.2059,-2.2051,-2.2051,-2.2059,-2.2036,-2.129,-2.0376,-2.0891,-2.0388,-1.9648,-1.9609,-1.902,-1.8328,-1.8329,-1.7951,-1.7434,-1.7412,-1.695,-1.6301,-1.5715,-1.5299,-1.4937,-1.465,-1.4278,-1.4,-1.4207,-1.3916,-1.3668,-1.3779,-1.356,-1.3235,-1.2836,-1.2507,-1.2292,-1.2289,-1.2268,-1.2388,-1.2644,-1.2402,-1.2122,-1.2122,-1.1763,-1.1832,-1.261,-1.2674,-1.2604,-1.2283,-1.2257,-1.2108,-1.1725,-1.178,-1.178,-1.178,-1.178,-1.178,-1.178,-1.2111,-1.2243,-1.2309,-1.2572,-1.2972,-1.3305,-1.3305,-1.3494,-1.3814,-1.3809,-1.3582,-1.3236,-1.3236,-1.3,-1.2664,-1.2664,-1.2664,-1.2664,0.0,0.0,0.0,0.0,0.0,0.0,0.0,0.0,0.0,0.0,0.0,0.0,0.0,0.0,0.0,0.0,0.0,0.0,-2.0467,-2.0979,-2.1208,-2.1011,-2.1094,-2.112,-2.1054,-2.1416,-2.165,-2.1734,-2.1994,-2.2116,-2.2116,-2.2059,-2.2002,-2.2002,-2.1888,-2.1888,-2.1888,-2.1945,-2.1888,-2.1725,-2.2002,-2.1831,-2.1439,-2.1725,-2.1668,-2.1345,-2.0918,-2.056,-2.033,-2.0482,-1.9592,-1.8462,-1.868,-1.8279,-1.7711,-1.7704,-1.7428,-1.6973,-1.6284,-1.5952,-1.5655,-1.5007,-1.4466,-1.4047,-1.3928,-1.3723,-1.3488,-1.3542,-1.3512,-1.3373,-1.3157,-1.2836,-1.2441,-1.2111,-1.1978,-1.1892,-1.1877,-1.1851,-1.1761,-1.1507,-1.14,-1.1185,-1.0962,-1.0815,-1.0887,-1.11,-1.1504,-1.1713,-1.1517,-1.1333,-1.1184,-1.0989,-1.1247,-1.138,-1.138,-1.1648,-1.178,-1.178,-1.1912,-1.1912,-1.1912,-1.2045,-1.2111,-1.2243,-1.2243,-1.2243,-1.2371,-1.2568,-1.2491,-1.2237,-1.2489,-1.2333,-1.2014,-1.2014,-1.2014,-1.2014,0.0,0.0,0.0,0.0,0.0,0.0,0.0,0.0,0.0,0.0,0.0,0.0,0.0,0.0,0.0,0.0,0.0,0.0,0.0,-2.1428,-2.1611,-2.1666,-2.1572,-2.1551,-2.1554,-2.1777,-2.2,-2.2158,-2.2442,-2.2552,-2.2448,-2.2492,-2.2456,-2.2286,-2.2173,-2.2116,-2.2116,-2.2116,-2.2002,0.0,0.0,-2.1725,-2.1439,-2.1439,-2.1294,-2.0913,-2.0435,-1.9849,-1.9298,-1.9005,-1.8591,-1.8099,-1.7704,-1.7572,-1.7396,-1.702,-1.6649,-1.6236,-1.5531,-1.518,-1.4888,-1.4351,-1.3868,-1.3444,-1.3264,-1.3079,-1.2949,-1.2846,-1.284,-1.2677,-1.2425,-1.2243,-1.1978,-1.1582,-1.1512,-1.1466,-1.1166,-1.119,-1.1111,-1.0708,-1.0715,-1.0675,-1.0527,-1.0527,-1.0503,-1.0447,-1.0731,-1.0834,-1.0688,-1.0545,-1.0405,-1.0263,-1.0455,-1.0588,-1.0787,-1.0986,-1.1185,-1.1317,-1.1449,-1.1512,-1.1512,-1.1714,-1.178,-1.178,-1.178,-1.178,-1.178,-1.1978,-1.185,-1.1609,-1.1799,-1.165,-1.1345,-1.1345,-1.1345,-1.1345,0.0,0.0,0.0,0.0,0.0,0.0,0.0,0.0,0.0,0.0,0.0,0.0,0.0,0.0,0.0,0.0,0.0,0.0,0.0,0.0,-2.1893,-2.2266,-2.203,-2.2027,-2.2368,-2.2418,-2.2548,-2.2765,-2.3112,-2.3176,-2.2911,-2.2958,-2.2847,-2.2669,-2.2322,-2.224,-2.2279,-2.223,-2.223,-2.2116,-2.1831,-2.1702,-2.1608,0.0,-2.0883,-2.0536,-2.0206,-1.9146,-1.7876,-1.7311,-1.7585,-1.7926,-1.69,-1.6855,-1.702,-1.6284,-1.5769,-1.5364,-1.4997,-1.4525,-1.4052,-1.3688,-1.3324,-1.296,-1.2719,-1.2508,-1.2329,-1.2268,-1.2059,-1.1904,-1.1747,-1.1714,-1.1582,-1.1115,-1.1052,-1.0901,-1.0373,-1.0431,-1.0433,-1.0245,-1.0289,-1.0365,-1.0308,-1.0296,-1.0242,-1.0131,-1.0088,-1.0086,-1.0037,-0.9971,-0.9844,-0.9731,-0.9728,-0.9861,-1.0123,-1.0123,-1.0256,-1.0588,-1.0853,-1.1052,-1.1049,-1.1449,-1.1582,-1.1648,-1.1648,-1.1648,-1.1648,-1.1688,-1.1503,-1.1229,-1.127,-1.1068,-1.0789,-1.0789,-1.0789,-1.0789,0.0,0.0,0.0,0.0,0.0,0.0,0.0,0.0,0.0,0.0,-2.189,-2.1824,0.0,0.0,0.0,0.0,0.0,0.0,0.0,0.0,0.0,-2.3179,-2.2878,-2.2712,-2.2781,-2.2895,-2.2892,-2.2699,-2.3068,-2.3083,-2.2823,-2.2835,-2.2961,-2.3176,-2.29,-2.2958,-2.3247,-2.2958,-2.2732,-2.2513,-2.2173,-2.1722,-2.1257,-2.092,0.0,0.0,-1.9089,-1.8178,-1.7291,-1.6914,-1.6737,-1.6667,-1.6622,-1.6154,-1.5618,-1.5655,-1.5245,-1.465,-1.4107,-1.3868,-1.3629,-1.302,-1.2599,-1.2359,-1.2298,-1.1955,-1.1709,-1.189,-1.1739,-1.1579,-1.1351,-1.1314,-1.1115,-1.0455,-1.0389,-1.0305,-1.0038,-1.0008,-0.9982,-0.9812,-0.9859,-0.9769,-0.951,-0.9432,-0.9297,-0.9278,-0.9154,-0.93,-0.989,-0.9832,-0.9752,-0.9728,-0.9728,-0.9728,-0.9794,-0.9794,-0.9794,-0.9861,-0.9927,-1.0127,-1.0389,-1.0455,-1.0654,-1.092,-1.092,-1.092,-1.0909,-1.104,-1.1009,-1.0901,-1.108,-1.1026,-1.0789,-1.0789,-1.0789,-1.0789,0.0,0.0,0.0,0.0,0.0,0.0,0.0,-2.2852,-2.2703,-2.259,-2.2919,-2.293,-2.2236,-2.2765,-2.3057,0.0,0.0,0.0,0.0,0.0,0.0,0.0,0.0,0.0,-2.3529,-2.3474,-2.3368,-2.3216,0.0,-2.3443,-2.3182,-2.3218,-2.3243,-2.3249,-2.2979,-2.2977,-2.3141,-2.2812,-2.2592,-2.2427,-2.1969,-2.1538,-2.1126,0.0,0.0,0.0,0.0,-1.755,-1.6849,-1.6418,-1.597,-1.5662,-1.6004,-1.567,-1.5157,-1.5112,-1.465,-1.4052,-1.3569,-1.3324,-1.3084,-1.2539,-1.2298,-1.2118,-1.1816,-1.1582,-1.1325,-1.1187,-1.1165,-1.1134,-1.0902,-1.0732,-1.0588,-1.0256,-1.006,-0.9816,-0.9536,-0.9537,-0.9493,-0.9276,-0.9279,-0.92,-0.8829,-0.8784,-0.8658,-0.839,-0.8283,-0.8562,-0.9313,-0.9192,-0.9125,-0.9125,-0.9125,-0.9192,-0.9389,-0.9389,-0.9525,-0.9728,-0.9728,-0.9794,-0.9927,-0.9927,-1.006,-1.019,-1.019,-1.0256,-1.0445,-1.0489,-1.0473,-1.0517,-1.0548,-1.0446,-1.0304,-1.0304,-1.0304,-1.0304,0.0,0.0,0.0,0.0,0.0,0.0,0.0,-2.3519,-2.3453,-2.3356,-2.3908,-2.4049,-2.346,-2.3612,-2.3797,0.0,0.0,0.0,0.0,0.0,0.0,0.0,0.0,0.0,0.0,0.0,0.0,-2.3877,-2.3951,0.0,0.0,0.0,0.0,0.0,-2.3034,-2.2925,-2.2946,-2.258,-2.2419,0.0,0.0,-2.1318,0.0,0.0,0.0,0.0,0.0,-1.716,-1.6624,-1.6099,-1.5517,-1.5061,-1.535,-1.5199,-1.4856,-1.4567,-1.4013,-1.3509,-1.3204,-1.284,-1.2539,-1.2178,-1.2057,-1.1872,-1.1394,-1.1212,-1.0959,-1.0572,-1.0611,-1.0643,-1.0402,-1.029,-1.0123,-0.999,-0.9724,-0.9458,-0.905,-0.9072,-0.901,-0.8698,-0.8718,-0.8644,-0.8315,-0.8295,-0.8107,-0.7749,-0.7655,-0.7915,-0.8462,-0.844,-0.839,-0.839,-0.8456,-0.8587,-0.8851,-0.8984,-0.912,-0.9461,-0.9461,-0.9525,-0.9591,-0.9591,-0.9594,-0.9728,-0.9728,-0.9842,-1.0069,-0.9922,-0.9912,-1.0029,-0.9814,-0.9743,-0.97,-0.97,-0.9761,-0.9822,0.0,0.0,0.0,0.0,0.0,0.0,0.0,-2.4236,-2.4203,-2.4412,-2.4713,-2.4992,-2.5216,-2.4975,-2.468,0.0,0.0,0.0,0.0,0.0,0.0,0.0,0.0,0.0,0.0,0.0,0.0,-2.443,-2.4418,0.0,0.0,0.0,0.0,0.0,0.0,-2.3252,-2.347,-2.2733,0.0,0.0,0.0,0.0,0.0,0.0,0.0,0.0,0.0,-1.7008,-1.6624,-1.6099,-1.5517,-1.4925,-1.4707,-1.4337,-1.3996,-1.3985,-1.3596,-1.3144,-1.284,-1.2479,-1.2178,-1.1893,-1.1583,-1.1394,-1.1333,-1.0849,-1.0411,-1.0511,-1.0423,-1.026,-1.0078,-1.0159,-0.999,-0.9316,-0.9183,-0.905,-0.872,-0.8664,-0.858,-0.8282,-0.8237,-0.8214,-0.7963,-0.7814,-0.7754,-0.7676,-0.7591,-0.7541,-0.7608,-0.7598,-0.7593,-0.7593,-0.7925,-0.8192,-0.8189,-0.852,-0.8653,-0.872,-0.872,-0.8853,-0.9183,-0.9183,-0.9322,-0.9728,-0.9728,-0.9657,-0.9531,-0.9389,-0.932,-0.919,-0.9051,-0.9169,-0.9335,-0.9335,-0.9518,-0.9822,0.0,0.0,0.0,0.0,0.0,0.0,-2.4826,-2.4743,-2.4822,-2.5175,-2.5447,-2.5799,-2.6246,-2.6177,-2.5832,-2.5147,0.0,0.0,0.0,0.0,0.0,0.0,0.0,0.0,0.0,0.0,-2.5616,-2.5206,-2.5079,0.0,0.0,0.0,0.0,0.0,0.0,-2.3268,-2.3203,-2.268,0.0,0.0,0.0,0.0,0.0,0.0,0.0,0.0,0.0,0.0,-1.6571,-1.5672,-1.5196,-1.4843,-1.4021,-1.3764,-1.3728,-1.3852,-1.3316,-1.2698,-1.2689,-1.2363,-1.1889,-1.1583,-1.1398,-1.1212,-1.0789,-1.0486,-1.0261,-1.0084,-0.9974,-0.9873,-0.9816,-0.9574,-0.9366,-0.9105,-0.8917,-0.8653,-0.8323,-0.8323,-0.8141,-0.7853,-0.779,-0.767,-0.7369,-0.7335,-0.7177,-0.6977,-0.6944,-0.6922,-0.6922,-0.7259,-0.7526,-0.7526,-0.7658,-0.7724,-0.7724,-0.7858,-0.7925,-0.7925,-0.8189,-0.839,-0.852,-0.872,-0.8853,-0.9056,-0.9056,-0.9053,-0.9122,-0.8989,-0.8983,-0.91,-0.8968,-0.8976,-0.9034,-0.9034,-0.9156,-0.9278,0.0,0.0,0.0,0.0,0.0,-2.5676,-2.5406,-2.53,-2.5457,-2.5979,-2.6221,-2.6553,-2.7128,-2.7244,-2.6962,-2.6155,-2.5863,0.0,0.0,0.0,0.0,0.0,0.0,0.0,0.0,0.0,-2.6332,-2.6032,-2.581,-2.547,0.0,0.0,-2.443,-2.4183,0.0,0.0,0.0,0.0,0.0,0.0,0.0,0.0,0.0,0.0,0.0,0.0,0.0,0.0,0.0,0.0,0.0,-1.4821,-1.364,-1.3421,-1.3507,-1.3432,-1.2887,-1.2336,-1.2469,-1.2106,-1.1643,-1.1386,-1.1212,-1.097,-1.0425,-1.0243,-1.0061,-0.97,-0.9636,-0.9534,-0.9415,-0.9104,-0.891,-0.8967,-0.8653,-0.839,-0.8123,-0.7992,-0.7791,-0.739,-0.7323,-0.719,-0.6853,-0.6853,-0.6786,-0.652,-0.652,-0.652,-0.652,-0.6924,-0.7192,-0.7192,-0.7323,-0.7323,-0.7323,-0.7459,-0.7526,-0.7526,-0.7791,-0.7925,-0.7925,-0.8189,-0.8304,-0.8403,-0.8403,-0.8514,-0.8688,-0.8533,-0.8609,-0.8729,-0.8643,-0.8671,-0.8732,-0.8732,-0.8793,-0.8915,0.0,0.0,0.0,0.0,0.0,0.0,-2.6198,-2.6037,-2.622,-2.7053,-2.7198,-2.746,-2.8088,-2.8167,-2.8018,-2.7522,-2.6693,0.0,0.0,0.0,0.0,0.0,0.0,0.0,0.0,0.0,-2.7156,-2.6907,-2.663,-2.6197,-2.5693,-2.5693,-2.5255,-2.448,0.0,0.0,0.0,0.0,0.0,0.0,0.0,0.0,0.0,0.0,0.0,0.0,0.0,0.0,0.0,0.0,0.0,0.0,0.0,-1.332,-1.3143,-1.2483,-1.223,-1.2073,-1.2038,-1.174,-1.1486,-1.135,-1.1031,-1.0728,-1.0365,-1.0061,-0.97,-0.9396,-0.9455,-0.9412,-0.8846,-0.8784,-0.8847,-0.8634,-0.8323,-0.8125,-0.8125,-0.7727,-0.739,-0.7051,-0.6985,-0.6853,-0.652,-0.652,-0.652,-0.652,-0.652,-0.652,-0.652,-0.652,-0.652,-0.652,-0.6853,-0.6985,-0.6985,-0.7323,-0.7526,-0.7526,-0.7526,-0.7526,-0.7526,-0.7526,-0.7666,-0.7888,-0.7888,-0.7956,-0.8122,-0.8119,-0.8045,-0.7933,-0.7933,-0.8119,-0.843,-0.843,-0.8613,-0.8915,0.0,0.0,0.0,0.0,0.0,0.0,0.0,-2.6836,-2.7197,-2.7545,-2.7928,-2.8319,-2.877,-2.8685,-2.8566,-2.8395,-2.7947,0.0,0.0,0.0,0.0,0.0,0.0,0.0,0.0,0.0,-2.782,-2.7394,-2.7156,-2.687,-2.6514,-2.5936,-2.5548,-2.5304,-2.4677,-2.4233,0.0,0.0,0.0,0.0,0.0,0.0,-2.0027,0.0,0.0,0.0,0.0,0.0,0.0,0.0,0.0,0.0,0.0,0.0,0.0,-1.2302,-1.202,-1.1933,-1.2011,-1.1812,-1.1394,-1.0852,-1.0771,-1.0668,-1.0061,-0.9879,-0.97,-0.9396,-0.9194,-0.902,-0.8648,-0.8461,-0.8331,-0.8183,-0.814,-0.7925,-0.7386,-0.7254,-0.7054,-0.6719,-0.6382,-0.6182,-0.6115,-0.5915,-0.5716,-0.5716,-0.5716,-0.5716,-0.5716,-0.5716,-0.5984,-0.6453,-0.6587,-0.6654,-0.6654,-0.6788,-0.6788,-0.6788,-0.7054,-0.7153,-0.7092,-0.7353,-0.7425,-0.7515,-0.7515,-0.7564,-0.7744,-0.7744,-0.7797,-0.7872,-0.7872,-0.7994,-0.8058,-0.8058,-0.8119,-0.8238,0.0,0.0,0.0,0.0,0.0,0.0,0.0,-2.746,-2.7882,-2.8131,-2.8611,-2.9088,-2.9433,-2.9287,-2.9131,-2.904,-2.9148,0.0,0.0,0.0,0.0,0.0,0.0,0.0,-2.9082,-2.871,-2.8384,-2.8055,-2.7726,-2.7394,-2.7051,-2.6524,-2.6081,-2.5693,-2.5167,-2.4677,0.0,0.0,0.0,0.0,0.0,0.0,-2.0027,0.0,0.0,0.0,0.0,0.0,0.0,0.0,0.0,0.0,0.0,0.0,0.0,0.0,-1.2041,-1.1737,-1.1816,-1.1557,-1.1155,-1.0639,-1.0569,-1.0534,-0.993,-0.9822,-0.97,-0.9217,-0.9037,-0.8772,-0.8403,-0.8117,-0.7965,-0.7927,-0.7751,-0.7479,-0.7047,-0.6918,-0.6652,-0.6317,-0.5914,-0.5713,-0.5713,-0.5513,-0.5381,-0.5381,-0.5381,-0.5381,-0.5381,-0.5381,-0.5568,-0.6004,-0.6166,-0.6301,-0.6402,-0.6402,-0.6384,-0.6417,-0.6613,-0.6649,-0.666,-0.6853,-0.699,-0.7023,-0.7023,-0.7154,0.0,-0.7309,-0.7513,-0.7689,-0.7689,-0.7811,-0.7872,-0.7872,-0.7872,-0.7872,0.0,0.0,0.0,0.0,0.0,0.0,0.0,-2.7923,-2.8333,-2.872,-2.9252,-2.9754,-3.0101,-2.9972,-2.9753,-2.952,0.0,0.0,0.0,0.0,0.0,0.0,0.0,0.0,-2.9577,-2.9117,-2.885,-2.8803,-2.8326,-2.7809,-2.7347,-2.7309,-2.6774,-2.5742,-2.5742,-2.5255,-2.443,-2.3696,-2.2896,-2.2072,-2.1827,-2.1062,0.0,0.0,0.0,0.0,0.0,0.0,0.0,0.0,0.0,0.0,0.0,0.0,0.0,0.0,0.0,0.0,0.0,-1.1185,-1.0936,-1.0575,-1.0484,-1.0357,-0.9909,-0.9758,0.0,-0.9037,-0.8854,-0.8707,-0.8208,-0.7799,-0.7628,-0.7839,-0.7299,-0.6946,-0.6971,-0.6652,-0.6317,-0.5914,-0.558,-0.5381,-0.5381,-0.5314,-0.5314,-0.5314,-0.5314,-0.5312,-0.5305,-0.5305,-0.5272,-0.5262,-0.559,-0.5926,-0.6241,-0.6241,-0.6201,-0.6182,-0.618,-0.6178,-0.6172,-0.6172,-0.6313,-0.6478,-0.6478,-0.6614,-0.6839,-0.6839,-0.7082,-0.7385,-0.7385,-0.7566,-0.7872,-0.7872,-0.7872,-0.7872,0.0,0.0,0.0,0.0,0.0,0.0,0.0,0.0,0.0,0.0,-3.01,-3.0605,-3.0571,-3.0381,-3.0356,0.0,0.0,0.0,0.0,0.0,0.0,0.0,0.0,0.0,-3.0034,-2.9783,-2.9462,-2.9035,-2.8757,-2.8326,-2.7809,-2.7489,-2.6976,-2.6294,-2.5897,-2.5157,-2.4183,-2.3646,-2.3038,-2.2375,-2.1869,-2.1165,0.0,0.0,0.0,0.0,-1.801,-1.7378,0.0,0.0,0.0,0.0,0.0,0.0,0.0,0.0,-1.2441,-1.185,-1.1625,0.0,-1.0908,-1.0485,-1.0399,-1.0357,0.0,-0.9579,-0.9339,0.0,0.0,0.0,-0.8033,-0.7746,-0.7539,-0.7417,-0.7122,-0.6815,-0.6642,-0.6317,-0.5914,-0.558,-0.5176,-0.4908,-0.4908,-0.471,-0.4577,-0.4577,-0.4577,-0.4555,-0.4504,-0.4502,-0.4604,-0.4863,-0.4941,-0.5136,-0.5438,-0.5698,-0.582,-0.5799,-0.6054,-0.6147,-0.6021,-0.6021,-0.6035,-0.6071,-0.6071,-0.6243,-0.6528,-0.6528,-0.6712,-0.7021,-0.7327,-0.7447,-0.7569,-0.7811,-0.7872,-0.7872,0.0,0.0,0.0,0.0,0.0,0.0,0.0,0.0,0.0,0.0,0.0,0.0,0.0,0.0,0.0,0.0,0.0,0.0,0.0,0.0,0.0,0.0,0.0,-3.0758,-3.0397,-3.0136,-2.9772,-2.9255,-2.9035,-2.8664,-2.8196,-2.782,-2.7347,-2.6832,-2.5907,-2.5118,-2.443,-2.3696,-2.3138,-2.2627,-2.1979,0.0,0.0,0.0,0.0,0.0,-1.8272,-1.7529,0.0,-1.6365,-1.5672,-1.4928,0.0,0.0,0.0,0.0,-1.2659,-1.2114,-1.1732,-1.1317,-1.0883,-1.0322,-1.0316,-1.0307,-0.981,0.0,0.0,0.0,0.0,0.0,-0.7752,-0.7436,-0.7204,-0.693,-0.6713,-0.6499,-0.6233,-0.578,-0.531,-0.5178,-0.4775,-0.4574,-0.4574,-0.4374,-0.4308,-0.4308,-0.4282,-0.4252,-0.4218,-0.4189,-0.4212,-0.4342,-0.4403,-0.4658,-0.5165,-0.5356,-0.5467,-0.5556,-0.5743,-0.5845,-0.5928,-0.5928,-0.5963,-0.5916,-0.5916,-0.5978,-0.616,-0.616,-0.6344,-0.6714,-0.6896,-0.7141,-0.7447,-0.763,-0.775,-0.7872,0.0,0.0,0.0,0.0,0.0,0.0,0.0,0.0,0.0,0.0,0.0,0.0,0.0,0.0,0.0,0.0,0.0,0.0,0.0,0.0,0.0,0.0,-3.1528,-3.1128,-3.0668,-3.0397,-3.0034,-2.9542,-2.9312,-2.8896,-2.8441,-2.8139,-2.7715,-2.7119,-2.5907,-2.5186,-2.4833,-2.3845,-2.3238,-2.2878,-2.2021,0.0,0.0,0.0,0.0,0.0,0.0,0.0,0.0,-1.673,-1.5992,-1.5143,-1.5035,0.0,0.0,0.0,0.0,0.0,-1.1787,-1.1404,-1.1008,-1.0194,-1.0128,-1.0171,-0.9693,0.0,0.0,0.0,0.0,0.0,-0.7508,-0.7143,-0.681,-0.6536,-0.6326,-0.6065,-0.5758,-0.5175,-0.4772,-0.4707,-0.4441,-0.4308,-0.4308,-0.4308,-0.4304,-0.4294,-0.4245,-0.4209,-0.4189,-0.4139,-0.4085,-0.396,-0.3959,-0.4273,-0.4898,-0.4961,-0.5055,-0.5237,-0.536,-0.5546,-0.5855,-0.5855,-0.5916,-0.5916,-0.5916,-0.5916,-0.5916,-0.5916,-0.6039,-0.6342,-0.6403,-0.6773,-0.7324,-0.7385,-0.763,-0.7872,0.0,0.0,0.0,0.0,0.0,0.0,0.0,0.0,0.0,0.0,0.0,0.0,0.0,0.0,0.0,0.0,0.0,0.0,0.0,0.0,0.0,-3.23,-3.1893,-3.1407,-3.0927,-3.0679,-3.0318,-2.984,-2.9588,-2.922,-2.871,-2.8233,-2.7526,-2.6592,-2.5945,-2.5362,-2.4833,-2.4035,-2.3538,-2.3247,-2.2131,0.0,0.0,0.0,0.0,0.0,0.0,0.0,0.0,-1.6889,-1.6258,-1.5678,-1.5143,0.0,0.0,0.0,0.0,0.0,-1.1841,-1.1568,-1.1287,-1.025,-1.0128,-1.0171,-0.9693,0.0,0.0,0.0,0.0,-0.7872,-0.7447,-0.7143,-0.681,-0.6536,-0.6126,-0.5677,-0.5029,-0.4839,-0.4707,-0.4441,-0.4307,-0.4308,-0.4308,-0.4308,-0.4286,-0.4234,-0.4222,-0.4172,-0.4068,-0.399,-0.396,-0.3903,-0.3901,-0.3963,-0.4087,-0.4393,-0.451,-0.4561,-0.5114,-0.5421,-0.5483,-0.5794,-0.5916,-0.5916,-0.5916,-0.5916,-0.5916,-0.5916,-0.5916,-0.5978,-0.628,-0.665,-0.7023,-0.7327,-0.763,-0.7872,0.0,0.0,0.0,0.0,0.0,0.0,0.0,0.0,0.0,0.0,0.0,0.0,0.0,0.0,0.0,0.0,0.0,0.0,0.0,0.0,-3.2982,-3.2444,-3.2213,-3.1805,-3.1184,-3.0916,-3.0556,-3.0057,-2.9669,-2.9301,-2.8943,-2.8279,-2.7478,-2.6496,-2.6091,-2.5557,-2.4883,-2.4183,-2.3737,-2.3297,0.0,0.0,0.0,0.0,0.0,0.0,0.0,0.0,0.0,0.0,-1.6365,-1.5785,-1.5196,0.0,0.0,0.0,0.0,0.0,-1.1896,-1.1623,-1.1371,-1.0409,-1.0232,-1.0207,-0.9817,0.0,0.0,0.0,-0.836,-0.775,-0.7204,-0.7023,-0.6687,-0.6098,-0.5712,-0.5298,-0.4846,-0.462,-0.4441,-0.4308,-0.4308,-0.4294,-0.4262,-0.4259,-0.4233,-0.4172,-0.4136,-0.4094,-0.3974,-0.3943,-0.3915,-0.3889,-0.3889,-0.3889,-0.3889,-0.4073,-0.4195,-0.4376,-0.487,-0.5239,-0.5421,-0.5732,-0.5916,-0.5916,-0.5916,-0.5916,-0.5916,-0.5916,-0.5916,-0.5916,-0.6101,-0.6469,-0.6962,-0.7508,-0.775,-0.7872,0.0,0.0,0.0,0.0,0.0,0.0,0.0,0.0,0.0,0.0,0.0,0.0,0.0,0.0,0.0,0.0,0.0,0.0,0.0,0.0,-3.3016,-3.2431,-3.24,-3.2025,-3.1306,-3.1107,-3.0781,-3.0306,-2.976,-2.9255,-2.8839,-2.8279,-2.7478,-2.6496,-2.6304,-2.5713,-2.4883,-2.4381,-2.3895,-2.3297,0.0,0.0,0.0,0.0,0.0,0.0,0.0,0.0,0.0,0.0,0.0,0.0,0.0,0.0,0.0,-1.3586,-1.3315,-1.3044,-1.2005,-1.1623,-1.1404,-1.0692,-1.037,-1.0141,-0.9889,-0.9285,-0.8815,-0.8909,-0.8302,-0.763,-0.7023,-0.6714,-0.6315,-0.5594,-0.5153,-0.4897,-0.4647,-0.4434,-0.4198,-0.4131,-0.4131,-0.4114,-0.3938,-0.3934,-0.3975,-0.3981,-0.3935,-0.3903,-0.3952,-0.3912,-0.3889,-0.3889,-0.3889,-0.3889,-0.3889,-0.3889,-0.4011,-0.4316,-0.4687,-0.5056,-0.5298,-0.5732,-0.5916,-0.5916,-0.5916,-0.5916,-0.5916,-0.5916,-0.5916,-0.5916,-0.5916,-0.6287,-0.6962,-0.7627,-0.7872,-0.7872,0.0,0.0,0.0,0.0,0.0,0.0,0.0,0.0,0.0,0.0,0.0,0.0,0.0,0.0,0.0,0.0,0.0,0.0,0.0,0.0,-3.2794,-3.2419,-3.24,-3.2025,-3.1306,-3.1107,-3.0871,-3.0578,-2.9852,-2.9024,-2.8092,-2.8034,-2.7478,-2.6496,-2.6496,-2.5907,-2.4883,-2.4578,-2.4044,-2.3297,-2.2434,0.0,0.0,0.0,0.0,0.0,0.0,0.0,0.0,0.0,0.0,0.0,0.0,0.0,-1.4767,-1.364,-1.3315,-1.3098,-1.2223,-1.1787,-1.1514,-1.1131,-1.0504,-1.0008,-0.9806,-0.9206,-0.8699,-0.8888,-0.8119,-0.7324,-0.6962,-0.616,-0.5386,-0.5089,-0.4731,-0.4444,-0.4188,-0.4136,-0.4009,-0.3685,-0.362,-0.3555,-0.3231,-0.3167,-0.3275,-0.3545,-0.3537,-0.3639,-0.3897,-0.3891,-0.3889,-0.3889,-0.3889,-0.3889,-0.3889,-0.3889,-0.3889,-0.395,-0.4566,-0.4935,-0.4933,-0.5609,-0.5916,-0.5916,-0.5916,-0.5916,-0.5916,-0.5916,-0.5916,-0.5916,-0.5916,-0.6287,-0.6962,-0.7627,-0.7872,-0.7872,0.0,0.0,0.0,0.0,0.0,0.0,0.0,0.0,0.0,0.0,0.0,0.0,0.0,0.0,0.0,0.0,0.0,0.0,0.0,-3.2365,-3.2592,-3.1859,-3.2203,-3.2113,-3.1572,-3.1196,-3.0927,-3.0826,-2.9954,-2.8967,-2.7998,-2.7998,-2.7478,-2.6496,-2.6496,-2.5917,-2.4883,-2.4784,-2.4242,-2.3347,-2.2837,-2.2224,0.0,0.0,0.0,0.0,0.0,0.0,0.0,0.0,-1.6677,-1.6518,-1.5357,-1.4987,-1.4773,-1.364,-1.3315,-1.3098,-1.2223,-1.1787,-1.1514,-1.1181,-1.0469,-0.9924,-1.0072,-0.9313,-0.8686,-0.8888,-0.8122,-0.7263,-0.6712,-0.5912,-0.5308,-0.4969,-0.4701,-0.4424,-0.4067,-0.3909,-0.3738,-0.3608,-0.3417,-0.3213,-0.3121,-0.3119,-0.3099,-0.3178,-0.3361,-0.3539,-0.3643,-0.3826,-0.3889,-0.3889,-0.3889,-0.3889,-0.3889,-0.3889,-0.4011,-0.4195,-0.4687,-0.4873,-0.4935,-0.5609,-0.5916,-0.5916,-0.5916,-0.5916,-0.5916,-0.5916,-0.5916,-0.5919,-0.6346,-0.6775,-0.7266,-0.775,-0.7872,-0.7872,0.0,0.0,0.0,0.0,0.0,0.0,0.0,0.0,0.0,0.0,0.0,0.0,0.0,0.0,0.0,0.0,0.0,0.0,-3.1435,-3.1984,-3.2089,-3.1504,-3.1718,-3.1785,-3.1552,-3.1036,-3.0819,-3.0984,-3.0,-2.8967,-2.7998,-2.7998,-2.7478,-2.6496,-2.6496,-2.5917,-2.4883,-2.4883,-2.4341,-2.3347,-2.3038,-2.2426,0.0,0.0,0.0,0.0,0.0,0.0,0.0,0.0,-1.6677,-1.6518,-1.5357,-1.4987,-1.4773,-1.364,-1.3315,-1.3098,-1.2223,-1.1787,-1.1514,-1.1076,-1.0363,-0.9832,-0.9935,-0.9247,-0.8578,-0.8878,-0.7997,-0.7018,-0.6219,-0.5605,-0.5116,-0.481,-0.4479,-0.4197,-0.3883,-0.3664,-0.3497,-0.3305,-0.3052,-0.2852,-0.2761,-0.2758,-0.2809,-0.284,-0.3146,-0.3394,-0.3517,-0.3765,-0.3889,-0.3889,-0.3889,-0.3889,-0.3889,-0.3889,-0.4073,-0.4376,-0.4749,-0.4933,-0.5056,-0.5671,-0.5916,-0.5916,-0.5916,-0.5916,-0.5916,-0.5916,-0.5978,-0.6101,-0.6775,-0.7204,-0.7447,-0.775,-0.7872,-0.7872,0.0,0.0,0.0,0.0,0.0,0.0,0.0,0.0,0.0,0.0,0.0,0.0,0.0,0.0,0.0,0.0,0.0,0.0,-3.1797,-3.1396,-3.1272,-3.1411,-3.1026,-3.0898,-3.118,-3.0545,-3.0455,-3.0984,-3.0,-2.8967,-2.7998,-2.7998,-2.7478,-2.6496,-2.6496,-2.5917,-2.4883,-2.4883,-2.4341,-2.3347,-2.3029,-2.2426,-2.1623,0.0,0.0,0.0,0.0,0.0,0.0,0.0,-1.6677,-1.6518,-1.5357,-1.4987,-1.4773,-1.364,-1.3315,-1.3098,-1.2223,-1.1787,-1.1459,-1.0857,-1.0253,-0.9691,-0.9289,-0.8756,-0.8475,-0.8799,-0.7816,-0.6591,-0.5605,-0.5116,-0.481,-0.4439,-0.4133,-0.3826,-0.3517,-0.3517,-0.3271,-0.259,-0.2467,-0.2345,-0.2038,-0.1977,-0.216,-0.2467,-0.2837,-0.3146,-0.3455,-0.3765,-0.3889,-0.3889,-0.3889,-0.3889,-0.3889,-0.3889,-0.4073,-0.4438,-0.4749,-0.5054,-0.5421,-0.5732,-0.5916,-0.5916,-0.5916,-0.5916,-0.5916,-0.5916,-0.6099,-0.6464,-0.7141,-0.7385,-0.7447,-0.775,-0.7872,-0.7872,0.0,0.0,0.0,0.0,0.0,0.0,0.0,0.0,0.0,0.0,0.0,0.0,0.0,0.0,0.0,0.0,0.0,0.0,-3.1259,-3.1216,-3.1081,-3.0781,-3.0774,-3.0727,-3.0634,-2.9986,-2.9762,-2.9954,-2.9669,-2.8967,-2.7998,-2.7998,-2.7478,-2.6496,-2.6496,-2.5917,-2.4883,-2.4883,-2.4341,-2.3397,-2.3297,-2.2636,-2.1623,0.0,0.0,0.0,0.0,0.0,0.0,0.0,0.0,0.0,-1.5357,-1.4987,-1.4773,-1.364,-1.3315,-1.3098,-1.2223,-1.1787,-1.1459,-1.0857,-1.0253,-0.9691,-0.9289,-0.8756,-0.824,-0.7646,-0.7021,-0.6344,-0.5544,-0.5116,-0.481,-0.4439,-0.3948,-0.358,-0.3517,-0.3085,-0.2714,-0.2529,-0.2283,-0.2099,-0.2038,-0.1977,-0.2038,-0.216,-0.2654,-0.3023,-0.3146,-0.3642,-0.3889,-0.3889,-0.3889,-0.3889,-0.3889,-0.4133,-0.4441,-0.4749,-0.5116,-0.5298,-0.5421,-0.5732,-0.5916,-0.5916,-0.5916,-0.5916,-0.5916,-0.616,-0.6589,-0.7141,-0.7324,-0.7569,-0.775,-0.7872,-0.7872,-0.7872,0.0,0.0,0.0,0.0,0.0,0.0,0.0,0.0,0.0,0.0,-3.4157,-3.3827,0.0,0.0,0.0,0.0,0.0,0.0,0.0,-3.0996,-3.0752,-3.0479,-3.0223,-2.998,-2.969,-2.9503,-2.9259,-2.8903,-2.8903,-2.8394,-2.7445,-2.7445,-2.6936,-2.6114,-2.602,-2.5443,-2.4526,-2.4478,-2.3851,-2.2935,-2.2935,-2.2287,-2.1254,0.0,0.0,0.0,0.0,0.0,0.0,0.0,0.0,0.0,-1.5176,-1.484,-1.4644,-1.3614,-1.3315,-1.3098,-1.2114,-1.1732,-1.1404,-1.0527,-1.0088,-0.9636,-0.8951,-0.8451,-0.7881,-0.7048,-0.653,-0.5976,-0.53,-0.4931,-0.4564,-0.4256,-0.3825,-0.3455,-0.3332,-0.2837,-0.2467,-0.2345,-0.2099,-0.1977,-0.1977,-0.1977,-0.2038,-0.216,-0.2715,-0.3085,-0.3208,-0.3642,-0.3889,-0.3889,-0.3889,-0.395,-0.4071,-0.4316,-0.4624,-0.5116,-0.5298,-0.5483,-0.5607,-0.5794,-0.5916,-0.5916,-0.5916,-0.5978,-0.6101,-0.6467,-0.6896,-0.7385,-0.7569,-0.775,-0.7872,-0.7872,-0.7872,-0.7872,0.0,0.0,-3.4974,-3.5521,0.0,0.0,0.0,0.0,0.0,0.0,-3.4259,-3.3931,0.0,0.0,0.0,0.0,0.0,-3.1609,-3.1609,-3.0836,-3.0406,-3.0406,-2.956,-2.8915,-2.8539,-2.9021,-2.8819,-2.7872,-2.7962,-2.7536,-2.6626,-2.6615,-2.6211,-2.5543,-2.5315,-2.4746,-2.3988,-2.3812,-2.3111,-2.2215,-2.2215,-2.1605,-2.066,-2.0111,0.0,0.0,0.0,0.0,0.0,0.0,0.0,0.0,-1.4873,-1.4578,-1.4419,-1.3542,-1.3285,-1.3019,-1.1891,-1.1623,-1.1295,-1.0088,-0.9706,-0.9359,-0.8445,-0.7854,-0.7456,-0.6982,-0.6342,-0.5671,-0.4996,-0.4624,-0.4255,-0.395,-0.3642,-0.3332,-0.3023,-0.2653,-0.2345,-0.2038,-0.1977,-0.1977,-0.1977,-0.1977,-0.216,-0.2467,-0.2837,-0.3146,-0.3455,-0.3765,-0.3889,-0.3889,-0.3889,-0.4073,-0.4376,-0.4439,-0.4745,-0.5421,-0.5421,-0.5607,-0.5916,-0.5916,-0.5916,-0.5916,-0.5916,-0.6162,-0.6464,-0.6837,-0.7143,-0.7447,-0.7811,-0.7872,-0.7872,-0.7872,-0.7872,-0.7933,0.0,0.0,-3.5804,-3.6352,0.0,0.0,0.0,0.0,0.0,0.0,0.0,0.0,0.0,0.0,0.0,0.0,-3.2023,-3.1609,-3.1609,-3.0836,-3.0406,-3.0406,-2.956,-2.8757,-2.8086,-2.8151,-2.7788,-2.6906,-2.7637,-2.7624,-2.6915,-2.6715,-2.6312,-2.578,-2.5361,-2.4746,-2.3988,-2.3812,-2.3111,-2.2215,-2.2215,-2.1605,-2.066,-2.0111,-1.9583,0.0,0.0,0.0,0.0,0.0,0.0,0.0,-1.4702,-1.4362,-1.4202,-1.3298,-1.3047,-1.2869,-1.1851,-1.1623,-1.1295,-1.0088,-0.9096,-0.836,-0.8219,-0.7432,-0.6718,-0.6734,-0.6109,-0.5362,-0.4995,-0.4624,-0.4193,-0.3702,-0.3332,-0.2961,-0.2652,-0.2346,-0.2099,-0.2038,-0.1977,-0.1977,-0.1977,-0.1977,-0.216,-0.2467,-0.2837,-0.3146,-0.3455,-0.3765,-0.3889,-0.3889,-0.3889,-0.4073,-0.4376,-0.4687,-0.4993,-0.5421,-0.5669,-0.5855,-0.5916,-0.5916,-0.5916,-0.5916,-0.616,-0.6467,-0.6839,-0.7143,-0.7508,-0.7811,-0.7872,-0.7872,-0.7872,-0.7872,-0.7872,-0.7933,0.0,0.0,0.0,0.0,0.0,0.0,0.0,0.0,0.0,0.0,0.0,0.0,0.0,0.0,0.0,0.0,-3.2119,-3.172,-3.1609,-3.0836,-3.0216,-2.9793,-2.9353,-2.8697,-2.7933,-2.7893,-2.7476,-2.6603,-2.7108,-2.6982,-2.6314,-2.6075,-2.577,-2.5386,-2.4801,-2.4167,-2.3574,-2.3212,-2.2529,-2.1609,-2.1609,-2.106,-2.0101,-1.9565,-1.9043,-1.847,-1.7452,0.0,0.0,0.0,0.0,0.0,0.0,0.0,-1.3948,-1.306,-1.289,-1.2785,-1.1729,-1.1557,-1.1295,-0.9926,-0.8819,-0.7952,-0.7741,-0.701,-0.6396,-0.6392,-0.5697,-0.5072,-0.4928,-0.4502,-0.401,-0.3579,-0.3208,-0.29,-0.2529,-0.2222,-0.1977,-0.1977,-0.1977,-0.1977,-0.1977,-0.216,-0.2406,-0.2714,-0.3023,-0.3394,-0.3703,-0.3826,-0.3889,-0.3889,-0.4073,-0.4318,-0.4624,-0.4993,-0.53,-0.5669,-0.5794,-0.5916,-0.5916,-0.5916,-0.5978,-0.616,-0.6344,-0.6712,-0.7143,-0.7324,-0.7569,-0.7872,-0.7872,-0.7872,-0.7872,-0.7872,-0.7994,-0.8183,0.0,0.0,0.0,0.0,0.0,0.0,0.0,0.0,0.0,0.0,0.0,0.0,0.0,0.0,-3.3171,0.0,0.0,0.0,-3.1609,-3.0836,-3.0011,-2.9131,-2.9091,-2.8697,-2.7933,-2.7893,-2.7476,-2.6603,-2.6603,-2.6271,-2.5601,-2.5338,-2.5115,-2.4903,-2.4133,-2.3537,-2.3057,-2.2618,-2.1856,-2.0997,-2.0997,-2.0419,-1.9541,-1.9066,-1.855,-1.7994,-1.7012,-1.6636,-1.6447,-1.5458,0.0,0.0,0.0,0.0,-1.3645,-1.2776,-1.2667,-1.2608,-1.1544,-1.1214,-1.0925,-0.9644,-0.8654,-0.7878,-0.7321,-0.6784,-0.6287,-0.5965,-0.5291,-0.4824,-0.4901,-0.4364,-0.3815,-0.3454,-0.3208,-0.2838,-0.2468,-0.2161,-0.1977,-0.1977,-0.1977,-0.1977,-0.1977,-0.2283,-0.2652,-0.2961,-0.3332,-0.3642,-0.3889,-0.3889,-0.395,-0.4011,-0.4255,-0.4562,-0.4995,-0.5239,-0.5546,-0.5916,-0.5916,-0.5916,-0.5978,-0.5978,-0.616,-0.6403,-0.6526,-0.6893,-0.7385,-0.7447,-0.7627,-0.7872,-0.7872,-0.7872,-0.7933,-0.7994,-0.818,-0.843,0.0,0.0,0.0,0.0,0.0,0.0,0.0,0.0,0.0,0.0,-3.4868,-3.4601,0.0,-3.3709,-3.3347,-3.2739,-3.2372,-3.2,-3.1609,0.0,0.0,-2.9131,-2.9091,-2.8697,-2.7933,-2.7893,-2.7476,-2.6603,-2.6603,-2.6271,-2.5601,-2.5338,-2.52,-2.5115,-2.4219,-2.3537,-2.3057,-2.2618,-2.1856,-2.0997,-2.0997,-2.0419,-1.9587,-1.9242,-1.8727,-1.7994,-1.7207,-1.6784,-1.6447,-1.5458,-1.5083,0.0,0.0,0.0,-1.3393,-1.2599,-1.2183,-1.1892,-1.1243,-1.0424,-0.963,-0.9113,-0.8484,-0.7878,-0.7321,-0.6725,-0.6151,-0.5663,-0.5125,-0.4746,-0.4821,-0.4293,-0.3706,-0.314,-0.3023,-0.2776,-0.2161,-0.2038,-0.1977,-0.1977,-0.1977,-0.1977,-0.1977,-0.2283,-0.2652,-0.2961,-0.3332,-0.3642,-0.3889,-0.3889,-0.4011,-0.4316,-0.4376,-0.4684,-0.5298,-0.536,-0.5546,-0.5916,-0.5916,-0.6039,-0.6342,-0.6342,-0.6342,-0.6403,-0.7018,-0.7324,-0.7447,-0.7689,-0.7872,-0.7872,-0.7872,-0.7872,-0.7933,-0.8244,-0.8369,-0.8491,0.0,0.0,0.0,0.0,0.0,0.0,0.0,0.0,0.0,0.0,0.0,-3.4635,0.0,-3.3827,-3.3486,-3.2775,-3.2467,-3.2009,-3.1323,-3.071,-3.005,-2.9314,-2.917,-2.8697,-2.7933,-2.7893,-2.7476,-2.6603,-2.6603,-2.6271,-2.5601,-2.5338,-2.5158,-2.4988,-2.4176,-2.3537,-2.3057,-2.2618,-2.1856,-2.0997,-2.0997,-2.0419,-1.9587,-1.9288,-1.8727,-1.7994,-1.7254,-1.6831,-1.6447,-1.5458,-1.5083,-1.4892,-1.3829,0.0,0.0,0.0,-1.1924,-1.1512,-1.0785,-1.0022,-0.9366,-0.8733,-0.8265,-0.7768,-0.6882,-0.6495,-0.6063,-0.5314,-0.4841,-0.4557,-0.4557,-0.4164,-0.3649,-0.3038,-0.2922,-0.275,-0.2097,-0.1977,-0.1977,-0.1977,-0.1977,-0.2099,-0.2284,-0.2591,-0.29,-0.3271,-0.358,-0.3765,-0.3889,-0.4071,-0.4255,-0.4376,-0.4745,-0.5114,-0.5421,-0.5607,-0.5853,-0.616,-0.616,-0.6344,-0.6714,-0.6896,-0.6954,-0.6954,-0.7263,-0.7508,-0.7689,-0.7811,-0.7872,-0.7872,-0.7872,-0.7994,-0.8183,-0.8369,-0.861,-0.8912,0.0,0.0,0.0,0.0,0.0,0.0,0.0,0.0,0.0,0.0,0.0,0.0,0.0,0.0,0.0,0.0,-3.2561,-3.2092,-3.1123,-3.0634,-3.0088,-2.9419,-2.9197,-2.8697,-2.7933,-2.7893,-2.7476,-2.6603,-2.6603,-2.6229,-2.5464,-2.5285,-2.5031,-2.47,-2.41,-2.3493,-2.3013,-2.2574,-2.1856,-2.0997,-2.0997,-2.0419,-1.9587,-1.9387,-1.8781,-1.7994,-1.7301,-1.6871,-1.6447,-1.5458,-1.5083,-1.4892,-1.3829,-1.3298,0.0,0.0,0.0,-1.1025,-1.0145,-0.9661,-0.9186,-0.8324,-0.8061,-0.7662,-0.6508,-0.6255,-0.5993,-0.4985,-0.4648,-0.4402,-0.4165,-0.3909,-0.3588,-0.2988,-0.2875,-0.2652,-0.2083,-0.1965,-0.1968,-0.1975,-0.1977,-0.216,-0.2467,-0.2775,-0.3146,-0.3455,-0.3765,-0.395,-0.4011,-0.4255,-0.4499,-0.4622,-0.5114,-0.5421,-0.5544,-0.5853,-0.616,-0.6403,-0.6467,-0.6712,-0.7021,-0.7263,-0.7447,-0.7508,-0.7508,-0.7689,-0.7872,-0.7872,-0.7872,-0.7872,-0.7872,-0.8119,-0.843,-0.8491,-0.8854,-0.9335,0.0,0.0,0.0,0.0,0.0,0.0,0.0,0.0,0.0,0.0,0.0,0.0,-3.3951,-3.3896,-3.3591,-3.2775,-3.2704,-3.2309,-3.1347,-3.0748,-3.0088,-2.9419,-2.9197,0.0,-2.7933,-2.7893,-2.7476,-2.6603,-2.6603,-2.6135,-2.52,-2.52,-2.4871,-2.4196,-2.3927,-2.345,-2.2803,-2.253,-2.1856,-2.0997,-2.0997,-2.0419,-1.9587,-1.9587,-1.8974,-1.804,-1.7473,-1.7005,-1.6447,-1.5458,-1.5083,-1.4892,-1.3829,-1.3298,-1.2953,0.0,0.0,0.0,-0.94,-0.9148,-0.8885,-0.7889,-0.7701,-0.7525,-0.6394,-0.6203,-0.5938,-0.476,-0.4536,-0.4314,-0.3764,-0.3701,-0.3528,-0.288,-0.2828,-0.2608,-0.1989,-0.1934,-0.1944,-0.1973,-0.1977,-0.216,-0.2467,-0.2775,-0.3146,-0.3455,-0.3765,-0.4011,-0.4378,-0.4376,-0.4684,-0.5298,-0.536,-0.5546,-0.5855,-0.6221,-0.6403,-0.6403,-0.6714,-0.7021,-0.7388,-0.7385,-0.7569,-0.7872,-0.7872,-0.7869,-0.7872,-0.7872,-0.7872,-0.7872,-0.7872,-0.8119,-0.843,-0.8735,-0.9034,-0.9335,0.0,0.0,0.0,0.0,0.0,0.0,0.0,0.0,0.0,0.0,0.0,0.0,0.0,-3.3896,-3.3591,-3.2775,-3.225,-3.184,-3.1522,-3.0823,-3.0165,-2.9639,-2.9275,-2.8697,-2.7933,-2.7893,-2.7476,-2.6603,-2.6603,-2.6135,-2.52,-2.52,-2.4733,-2.3937,-2.3841,-2.345,-2.2803,-2.253,-2.1856,-2.0997,-2.0997,-2.0419,-1.9587,-1.9587,-1.8974,-1.804,-1.7667,-1.7153,-1.6494,-1.5588,-1.522,-1.4892,-1.3829,-1.3298,-1.2856,-1.1585,-1.085,-1.0179,-0.9199,-0.8993,-0.8838,-0.7762,-0.7565,-0.7396,-0.628,-0.6096,-0.5895,-0.4903,-0.4613,-0.4369,-0.3924,-0.3719,-0.3413,-0.2834,-0.2726,-0.2567,-0.1957,-0.1919,-0.1935,-0.1946,-0.2148,-0.2468,-0.2775,-0.3146,-0.3455,-0.3765,-0.4071,-0.4255,-0.4376,-0.4807,-0.5176,-0.5421,-0.5607,-0.5853,-0.6221,-0.6528,-0.6837,-0.7018,-0.7143,-0.7385,-0.775,-0.775,-0.7811,-0.7872,-0.7872,-0.7872,-0.7872,-0.7872,-0.7872,-0.7933,-0.8119,-0.8427,-0.8732,-0.9034,-0.9335,-0.964,0.0,0.0,0.0,0.0,0.0,-3.5943,-3.572,0.0,0.0,0.0,0.0,0.0,0.0,0.0,-3.3486,-3.2775,-3.2023,-3.1609,-3.1609,-3.0836,-3.019,-2.9704,-2.9314,-2.8697,-2.7933,-2.7893,-2.7476,-2.6603,-2.6603,-2.6135,-2.52,-2.52,-2.469,-2.3797,-2.3797,-2.3363,-2.2662,-2.2485,-2.1856,-2.0997,-2.0997,-2.0419,-1.9587,-1.9587,-1.8974,-1.804,-1.7815,-1.7246,-1.6487,-1.5676,-1.5261,-1.4892,-1.3829,-1.3147,-1.2467,-1.1194,-1.0609,-1.0162,-0.9072,-0.8907,-0.874,-0.7626,-0.7425,-0.7264,-0.6163,-0.5984,-0.5845,-0.4924,-0.4609,-0.4334,-0.4003,-0.3741,-0.3432,-0.2903,-0.2851,-0.2696,-0.2217,-0.2183,-0.2202,-0.2213,-0.2486,-0.2754,-0.3122,-0.3383,-0.364,-0.4011,-0.4255,-0.4499,-0.4745,-0.5176,-0.5483,-0.5728,-0.5976,-0.6223,-0.6589,-0.6898,-0.7204,-0.7385,-0.7508,-0.7689,-0.7872,-0.7872,-0.7872,-0.7872,-0.7872,-0.7872,-0.7872,-0.7872,-0.7872,-0.7933,-0.8244,-0.8613,-0.8915,-0.9217,-0.9518,-0.9822,0.0,-3.6569,-3.6414,-3.6211,-3.5911,-3.5688,-3.5688,-3.5394,-3.5115,-3.4935,0.0,0.0,0.0,0.0,0.0,-3.2739,-3.2009,-3.1609,-3.1609,-3.0836,-3.019,-2.9704,-2.9314,-2.8697,-2.7933,-2.7893,-2.7476,-2.6603,-2.6592,-2.6124,-2.52,-2.52,-2.469,-2.3797,-2.3797,-2.3266,-2.2397,-2.2397,-2.1856,-2.0997,-2.0997,-2.0419,-1.9587,-1.9587,-1.8974,-1.8087,-1.7815,-1.7246,-1.6487,-1.5676,-1.5255,-1.4892,-1.3829,-1.2807,-1.1834,-1.1051,-1.0605,0.0,0.0,0.0,0.0,-0.7484,-0.7285,-0.7129,-0.6048,-0.5927,-0.5739,-0.4888,-0.4477,-0.4206,-0.3987,-0.3765,-0.3473,-0.3192,-0.308,-0.2987,-0.2753,-0.2703,-0.2719,-0.2818,-0.2863,-0.3012,-0.3376,-0.3484,-0.3761,-0.4376,-0.4438,-0.4684,-0.536,-0.5421,-0.5728,-0.6403,-0.6403,-0.6589,-0.69,-0.7266,-0.7385,-0.7447,-0.775,-0.7872,-0.7872,-0.7872,-0.7872,-0.7872,-0.7872,-0.7872,-0.7872,-0.7872,-0.7872,-0.7933,-0.8305,-0.8613,-0.8915,-0.9217,-0.9518,-0.9822,-3.6226,-3.6163,-3.6068,-3.5879,-3.5686,-3.5522,-3.5362,-3.5049,-3.4831,0.0,0.0,0.0,-3.3931,-3.3333,-3.281,-3.2525,-3.195,-3.1609,-3.1609,-3.0836,-3.019,-2.9704,-2.9314,-2.8697,-2.7933,-2.7893,-2.7476,-2.6603,-2.6415,-2.5946,-2.52,-2.4871,-2.4358,-2.3797,-2.3667,-2.3144,-2.2397,-2.2397,-2.1856,-2.0997,-2.0997,-2.0419,-1.9587,-1.9587,-1.8974,-1.8087,-1.804,-1.7387,-1.6534,-1.6103,-1.5588,-1.4892,-1.3829,-1.2807,0.0,-1.1487,-1.09,0.0,-0.9575,0.0,0.0,0.0,0.0,0.0,-0.6138,-0.5919,-0.5737,-0.5272,-0.487,-0.4502,-0.4238,-0.3971,-0.3742,-0.3411,-0.3224,-0.3032,-0.2711,-0.2683,-0.2708,-0.272,-0.2994,-0.3274,-0.3372,-0.3633,-0.3963,-0.4373,-0.4624,-0.4931,-0.536,-0.5851,-0.6219,-0.6403,-0.6893,-0.7141,-0.7266,-0.7566,-0.775,-0.775,-0.7872,-0.7872,-0.7872,-0.7872,-0.7872,-0.7872,-0.7872,-0.7872,-0.7872,-0.7872,-0.7872,-0.7933,-0.8549,-0.8793,-0.8976,-0.9457,-0.97,-0.9822,-3.5894,-3.5814,-3.5733,-3.5524,-3.5377,-3.5213,-3.5082,0.0,0.0,0.0,0.0,0.0,-3.3556,-3.3037,-3.2596,-3.2322,-3.1877,-3.1535,-3.1373,-3.0748,-3.0165,-2.96,-2.9275,-2.8697,-2.7933,-2.7893,-2.7476,-2.6603,-2.6321,-2.5863,-2.52,-2.47,-2.4229,-2.3797,-2.345,-2.2969,-2.2378,-2.212,-2.1655,-2.0997,-2.0997,-2.0419,-1.9587,-1.9587,-1.8974,-1.8087,-1.8087,-1.7426,-1.6581,-1.6292,-1.5581,-1.4646,-1.3781,-1.2958,-1.2224,-1.1731,-1.1096,0.0,0.0,0.0,0.0,-0.7932,0.0,0.0,-0.6339,-0.5936,-0.5627,-0.5377,-0.4938,-0.4579,-0.4425,-0.4114,-0.3793,-0.3711,-0.3416,-0.3224,-0.3081,-0.3055,-0.3073,-0.3073,-0.329,-0.351,-0.3544,-0.3805,-0.4193,-0.4473,-0.4867,-0.5264,-0.5788,-0.6158,-0.6526,-0.6832,-0.7202,-0.7447,-0.763,-0.7811,-0.7872,-0.7872,-0.7872,-0.7872,-0.7872,-0.7872,-0.7872,-0.7872,-0.7872,-0.7872,-0.7872,-0.7872,-0.7872,-0.7994,-0.861,-0.8915,-0.8976,-0.9579,-0.9822,-0.9822,0.0,-3.5539,-3.5359,-3.5195,-3.4968,-3.4835,0.0,0.0,0.0,0.0,-3.3868,-3.3417,-3.3023,-3.281,0.0,0.0,-3.1817,-3.141,-3.1024,-3.0634,-3.0088,-2.9419,-2.9197,-2.8697,-2.7933,-2.7881,-2.7423,-2.6603,-2.6279,-2.5821,-2.52,-2.4658,-2.4186,-2.3797,-2.3226,-2.2761,-2.2293,-2.1661,-2.1211,-2.0873,-2.0873,-2.0298,-1.9464,-1.9464,-1.8862,-1.8018,-1.8018,-1.737,-1.6523,-1.6188,-1.5246,-1.416,-1.3646,-1.3117,-1.2587,-1.1808,-1.1239,0.0,0.0,0.0,0.0,-0.8187,-0.7686,0.0,-0.6587,-0.6037,-0.5636,-0.534,-0.4904,-0.4549,-0.4549,-0.4196,-0.3895,-0.3903,-0.3754,-0.3564,-0.3578,-0.3587,-0.3587,-0.3587,-0.3692,-0.3728,-0.3735,-0.4073,-0.4404,-0.4707,-0.5125,-0.5678,-0.6305,-0.6433,-0.6738,-0.735,-0.7411,-0.753,-0.7831,-0.7831,-0.7831,-0.7831,-0.7831,-0.7831,-0.7834,-0.7845,-0.7853,-0.7853,-0.7853,-0.7853,-0.785,-0.7837,-0.7847,-0.7994,-0.8607,-0.8854,-0.8976,-0.9518,-0.9761,-0.9822,-3.5052,-3.5034,-3.4983,-3.4831,-3.4616,-3.4433,0.0,0.0,0.0,0.0,0.0,0.0,0.0,0.0,0.0,0.0,-3.1743,-3.141,-3.1024,-3.0634,-3.0088,-2.9419,-2.9197,-2.8697,-2.7933,-2.7708,-2.7249,-2.6603,-2.5957,-2.5485,-2.52,-2.4348,-2.3884,-2.3777,-2.2793,-2.2208,-2.1877,-2.1122,-2.0483,-2.0032,-2.0032,-1.9514,-1.8688,-1.8688,-1.8205,-1.7544,-1.7359,-1.6907,-1.6237,-1.5434,-1.4572,-1.3848,-1.3579,-1.2876,-1.209,-1.1765,-1.1241,-1.0665,-1.0136,-0.9714,-0.9278,-0.8531,-0.8088,0.0,-0.6892,-0.6489,-0.6187,-0.5892,-0.5406,-0.5017,-0.4762,-0.4528,-0.428,-0.4083,-0.4083,-0.3949,-0.3628,-0.3587,-0.3587,-0.3587,-0.3823,-0.3965,-0.4018,-0.4321,-0.4698,-0.5057,-0.5607,-0.6035,-0.6173,-0.6648,-0.6943,-0.7061,-0.7354,-0.7528,-0.7587,-0.7587,-0.7587,-0.7587,-0.7587,-0.7587,-0.7589,-0.769,-0.7733,-0.7733,-0.7733,-0.7733,-0.7728,-0.7627,-0.7698,-0.7933,-0.8366,-0.8674,-0.8915,-0.9278,-0.9579,-0.9822,-3.4534,-3.4501,-3.4467,-3.4327,0.0,0.0,0.0,0.0,0.0,0.0,0.0,0.0,0.0,0.0,0.0,0.0,0.0,0.0,0.0,-3.052,-3.005,-2.9275,-2.917,-2.8697,-2.7933,-2.7655,-2.7196,-2.6603,-2.5874,-2.5411,-2.52,-2.4219,-2.3754,-2.3614,-2.249,-2.1869,-2.1564,-2.0526,-1.9895,-1.9578,-1.9637,-1.9204,-1.8516,-1.8516,-1.804,-1.7386,-1.7159,-1.6676,-1.6013,-1.5174,-1.4636,-1.4237,-1.3695,-1.3144,-1.2637,-1.2043,-1.1482,-1.0918,-1.0453,-0.9815,-0.9216,-0.8779,-0.8201,0.0,0.0,-0.6796,-0.627,-0.6226,-0.5789,-0.5338,-0.5236,-0.4873,-0.4614,-0.4501,-0.4281,-0.4085,-0.3921,-0.3909,-0.3998,-0.403,-0.4147,-0.4273,-0.4309,-0.4595,-0.4969,-0.5576,-0.5985,-0.6355,-0.6525,-0.6823,-0.7054,-0.7229,-0.7402,-0.7577,-0.7749,-0.7749,-0.7749,-0.7749,-0.7749,-0.7635,-0.7521,-0.7581,-0.7611,-0.7611,-0.7611,-0.7611,-0.7606,-0.7543,-0.7589,-0.7755,-0.8056,-0.8411,-0.8709,-0.901,-0.9304,-0.9602,-3.4025,-3.3957,-3.3888,-3.373,0.0,0.0,0.0,0.0,0.0,0.0,0.0,0.0,0.0,0.0,0.0,0.0,0.0,0.0,-3.0444,-3.0406,-3.0011,-2.9131,-2.9052,-2.8657,-2.7933,-2.7574,-2.7115,-2.6603,-2.5832,-2.5327,-2.5115,-2.4219,-2.3617,-2.3258,-2.2193,-2.1527,-2.1131,-1.9934,-1.9317,-1.9138,-1.9197,-1.8854,-1.8309,-1.8309,-1.7881,-1.7235,-1.7011,-1.6446,-1.5797,-1.5137,-1.4827,-1.4612,-1.3855,-1.3497,-1.3177,-1.231,-1.1754,-1.1242,-1.0692,-0.9895,-0.9232,-0.9045,-0.8391,-0.7816,0.0,0.0,0.0,-0.6578,-0.6103,-0.5712,-0.5732,-0.5336,-0.496,-0.5035,-0.4688,-0.4409,-0.449,-0.4559,-0.4579,-0.445,-0.4528,-0.459,-0.4646,-0.4985,-0.5408,-0.5993,-0.628,-0.6603,-0.6927,-0.7048,-0.7222,-0.7508,-0.7566,-0.7737,-0.8023,-0.8023,-0.8023,-0.8023,-0.8023,-0.7852,-0.7624,-0.7588,-0.7541,-0.7541,-0.7483,-0.7483,-0.7483,-0.7459,-0.7448,-0.7453,-0.7788,-0.8096,-0.8442,-0.8681,-0.9033,-0.9381,-3.3556,-3.3507,-3.3339,-3.3129,0.0,0.0,0.0,0.0,0.0,0.0,0.0,0.0,-3.2241,-3.2036,-3.1767,-3.1347,-3.131,-3.1048,-3.0444,-3.0406,0.0,-2.9131,-2.8922,-2.8538,-2.7933,-2.7301,-2.685,-2.6603,-2.5664,-2.5115,-2.4903,-2.4176,-2.3361,-2.2572,-2.169,-2.0842,-2.0099,-1.9183,-1.8682,-1.8463,-1.8264,-1.7924,-1.7516,-1.7516,-1.7228,-1.6733,-1.636,-1.5895,-1.5427,-1.519,-1.4691,-1.4188,-1.4061,-1.345,-1.2709,-1.2451,-1.2003,-1.1513,-1.0796,-1.0478,-1.0107,-0.9232,-0.8905,-0.8676,-0.8038,0.0,-0.7333,-0.7279,0.0,-0.617,-0.6268,0.0,0.0,-0.55,-0.5452,-0.5489,-0.5592,-0.5617,-0.5328,-0.4422,-0.4609,-0.4985,-0.526,-0.5824,-0.6168,-0.6235,-0.6512,-0.6682,-0.6753,-0.7259,-0.7539,-0.7594,-0.7815,-0.7979,-0.7979,-0.7979,-0.7979,-0.7979,-0.7979,-0.7979,-0.7926,-0.7817,-0.7752,-0.7752,-0.747,-0.7298,-0.729,-0.7239,-0.7251,-0.7273,-0.7492,-0.7921,-0.8384,-0.8442,-0.8852,-0.9381,-3.298,-3.3002,-3.2917,-3.2846,0.0,0.0,0.0,0.0,0.0,0.0,0.0,-3.1913,-3.1853,-3.1656,-3.1471,-3.131,-3.1099,-3.0798,-3.0406,-3.019,0.0,-2.9131,-2.8816,-2.8391,-2.7933,-2.7219,-2.6715,-2.6373,-2.5569,-2.5031,-2.4658,-2.4057,-2.3246,-2.2281,-2.153,-2.0665,-1.9716,-1.9012,-1.8571,-1.8402,-1.8121,-1.7757,-1.7392,-1.7392,-1.7025,-1.6484,-1.6319,-1.5989,-1.5526,-1.5318,-1.4999,-1.4587,-1.4215,-1.3828,-1.3392,-1.2747,-1.2353,-1.1968,-1.1221,-1.0804,-1.0385,-0.9763,-0.9364,-0.9034,-0.8543,-0.8103,-0.778,-0.7702,0.0,0.0,0.0,0.0,0.0,0.0,-0.6187,-0.6102,-0.6151,-0.6215,-0.6007,-0.5309,-0.5462,-0.5707,-0.5873,-0.627,-0.6606,-0.6826,-0.7049,-0.7271,-0.7435,-0.7715,-0.7826,-0.7826,-0.7934,-0.81,-0.8263,-0.8263,-0.8263,-0.8263,-0.8263,-0.8211,-0.7992,-0.7935,-0.7903,-0.7903,-0.7626,-0.746,-0.7455,-0.7287,-0.721,-0.7221,-0.7269,-0.759,-0.793,-0.81,-0.8495,-0.8891,-3.1947,0.0,-3.2395,-3.2395,0.0,0.0,0.0,0.0,-3.1562,-3.1562,-3.1576,-3.1559,-3.1522,-3.1323,-3.1198,-3.1123,-3.0798,-3.0533,-3.033,-2.9972,-2.9585,-2.9131,-2.8657,-2.8271,-2.7933,-2.719,-2.6633,-2.6185,-2.5527,-2.4946,-2.4411,-2.3937,-2.3126,-2.2045,-2.1413,-2.0532,-1.9479,-1.8941,-1.8531,-1.8273,-1.808,-1.7757,-1.74,-1.727,-1.6894,-1.6476,-1.6435,-1.6188,-1.5858,-1.556,-1.536,-1.5082,-1.4545,-1.4257,-1.3962,-1.3264,-1.279,-1.2363,-1.1757,-1.1241,-1.0766,-1.0294,-0.9907,-0.9551,-0.9116,-0.8698,-0.834,-0.8236,-0.7759,0.0,0.0,0.0,-0.6885,-0.7066,0.0,-0.6796,-0.683,-0.6867,-0.6665,-0.616,-0.6272,-0.6438,-0.6606,-0.6835,-0.7122,-0.7374,-0.7601,-0.7771,-0.7989,-0.81,-0.8156,-0.8156,-0.8211,-0.8377,-0.8598,-0.8598,-0.8598,-0.8598,-0.8598,-0.8488,-0.8266,-0.8156,-0.8156,-0.81,-0.7826,-0.766,-0.7607,-0.7379,-0.7265,-0.721,-0.721,-0.7324,-0.7549,-0.7878,-0.8211,-0.854,-3.0302,-3.0963,0.0,0.0,-3.1139,-3.0601,-3.0062,-3.0428,-3.0752,-3.0752,-3.1236,-3.1522,-3.131,-3.1123,-3.0911,-3.0736,-3.0533,-3.033,-3.0113,-2.9934,-2.9585,-2.9131,-2.8538,-2.8111,-2.7893,-2.7056,-2.6467,-2.6185,-2.5527,-2.4871,-2.4206,-2.3721,0.0,0.0,-2.117,-2.0301,-1.9283,-1.886,-1.8451,-1.7991,-1.8,-1.7757,-1.7351,-1.6902,-1.6697,-1.6648,-1.6476,-1.6394,-1.6312,-1.5858,-1.5567,-1.536,-1.5124,-1.4629,-1.4088,-1.4046,-1.3398,-1.2619,-1.2406,-1.202,-1.1499,-1.0766,-1.0549,-1.0381,-0.9742,-0.9397,-0.9235,-0.9103,-0.8503,-0.8006,-0.8171,-0.7785,-0.7557,0.0,-0.7769,0.0,0.0,-0.7739,-0.734,-0.6662,-0.6939,-0.7222,-0.7351,-0.7633,-0.7847,-0.798,-0.7989,-0.7989,-0.7989,-0.8318,-0.8484,-0.8484,-0.8712,-0.8881,-0.8881,-0.8881,-0.8881,-0.8881,-0.8881,-0.8881,-0.8881,-0.8598,-0.8484,-0.8484,-0.8156,-0.7826,-0.7607,-0.7607,-0.7438,-0.721,-0.721,-0.721,-0.7265,-0.782,-0.8211,-0.854,-2.9437,-2.9369,0.0,-3.0003,-2.9917,-2.9684,-2.9345,-2.9347,-2.9369,-2.9369,-2.9876,-3.019,-3.0115,-3.0401,-3.0558,-3.0495,-3.0305,-3.0113,-2.9895,-2.9546,-2.9143,-2.8709,-2.8231,-2.7829,-2.7452,-2.688,-2.6343,-2.5737,-2.5242,-2.4647,0.0,0.0,0.0,0.0,-2.101,-2.0185,-1.9241,-1.873,-1.8322,-1.8,-1.7716,-1.7432,-1.718,-1.6812,-1.6689,-1.6689,-1.6607,-1.6517,-1.6394,-1.6229,-1.6031,-1.579,-1.5409,-1.5151,-1.4859,-1.4447,-1.3984,-1.3525,-1.3179,-1.2705,-1.2229,-1.1671,-1.1413,-1.1154,-1.0419,-1.0207,-1.0052,-0.9777,-0.9257,-0.8917,-0.9051,-0.8677,-0.8417,0.0,0.0,-0.8794,0.0,-0.8762,-0.8553,-0.8356,-0.7884,-0.7663,-0.7806,-0.8027,-0.8351,-0.8716,-0.8726,-0.8879,-0.9199,-0.9316,-0.9372,-0.9372,-0.943,-0.9485,-0.9485,-0.9323,-0.9213,-0.9213,-0.8992,-0.8885,-0.8885,-0.8826,-0.8768,-0.8768,-0.8432,-0.8266,-0.8156,-0.7937,-0.7823,-0.7709,-0.7709,-0.7709,-0.7768,-0.7934,-0.8045,-0.8266,-2.8263,-2.79,-2.7931,-2.8769,-2.8782,-2.8611,-2.8324,-2.836,-2.8431,-2.8431,-2.8882,-2.9281,-2.9473,-2.9768,-3.0037,-3.0165,-2.9985,-2.9767,-2.9585,-2.9209,-2.8855,-2.851,-2.8122,-2.7667,-2.7226,-2.6704,-2.6124,-2.5496,-2.4988,-2.4444,0.0,0.0,0.0,0.0,-2.0906,-2.009,-1.9478,-1.8702,-1.8193,-1.787,-1.7465,-1.7221,-1.7049,-1.6812,-1.6689,-1.6689,-1.6689,-1.6607,-1.6484,-1.6435,-1.6319,-1.6162,-1.5782,-1.5567,-1.5394,-1.4894,-1.4531,-1.4243,-1.3857,-1.3428,-1.296,-1.2577,-1.2363,-1.2015,-1.1284,-1.1111,-1.0982,-1.0554,-1.0168,-0.9901,-0.9895,-0.9567,-0.9369,0.0,0.0,-0.963,0.0,-0.9643,-0.9649,-0.962,-0.8772,-0.8235,-0.8391,-0.856,-0.8779,-0.9151,-0.9161,-0.9315,-0.9583,-0.9641,-0.9641,-0.9641,-0.9641,-0.9641,-0.9641,-0.9428,-0.9374,-0.9374,-0.9049,-0.8889,-0.8889,-0.8777,-0.8777,-0.8723,-0.8553,-0.8445,-0.8285,-0.8175,-0.8029,-0.7923,-0.7971,-0.7989,-0.7989,-0.8156,-0.8211,-0.838,-2.6846,-2.6625,-2.6904,-2.7885,-2.7748,-2.7405,-2.6986,-2.7438,-2.7806,-2.7806,-2.827,-2.8797,-2.9359,-2.9237,-2.934,-2.9741,-2.9521,-2.9314,-2.9091,-2.8882,-2.8685,-2.8471,-2.8082,-2.7667,-2.7185,-2.6528,-2.5946,-2.5496,-2.4828,-2.4229,0.0,0.0,0.0,0.0,-2.0845,-2.0065,-1.9825,-1.8798,-1.8112,-1.7659,-1.7253,-1.709,-1.7049,-1.6812,-1.6689,-1.6689,-1.673,-1.673,-1.6689,-1.6517,-1.6435,-1.6394,-1.6203,-1.5955,-1.5692,-1.5477,-1.511,-1.4692,-1.4524,-1.4104,-1.3695,-1.3519,-1.3307,-1.2966,-1.2229,-1.2057,-1.1929,-1.1451,-1.1198,-1.0982,-1.0722,-1.0506,-1.0362,0.0,0.0,0.0,-1.0466,-1.0478,-1.0464,-1.0471,-0.9562,-0.9038,-0.915,-0.9169,-0.9237,-0.9358,-0.9369,-0.9373,-0.938,-0.938,-0.938,-0.938,-0.938,-0.938,-0.938,-0.9328,-0.9328,-0.9328,-0.907,-0.8916,-0.8916,-0.8643,-0.8535,-0.8535,-0.8482,-0.8325,-0.8022,-0.8214,-0.8107,-0.7843,-0.7974,-0.8029,-0.8091,-0.8374,-0.8657,-0.8885,-2.6016,-2.5576,-2.5409,-2.5756,-2.611,-2.6303,-2.6213,-2.63,-2.6422,-2.6422,-2.6872,-2.7418,-2.7965,-2.8312,-2.8732,-2.925,-2.9209,-2.9079,-2.8882,-2.8697,-2.8431,-2.8082,-2.7615,-2.7196,-2.6757,-2.626,-2.5759,-2.5285,-2.4625,-2.411,-2.3797,0.0,0.0,0.0,-2.0707,-1.9963,-1.9825,-1.8594,-1.787,-1.7473,-1.7221,-1.6976,-1.6812,-1.6738,-1.6689,-1.6738,-1.6935,-1.7017,-1.7017,-1.7098,-1.7057,-1.6894,-1.6607,-1.6402,-1.6188,-1.5997,-1.5699,-1.5443,-1.5401,-1.4901,-1.4447,-1.4398,-1.4104,-1.3682,-1.3173,-1.3045,-1.2918,-1.2448,-1.2192,-1.202,-1.1935,-1.1628,-1.1348,-1.1326,-1.1266,-1.1301,-1.1579,-1.1572,-1.1599,-1.1612,-1.1332,-1.0869,-1.0132,-1.0086,-1.0117,-1.031,-1.0323,-1.0382,-1.046,-1.0468,-1.0468,-1.0468,-1.0468,-1.0416,-1.0264,-1.0004,-0.9795,-0.959,-0.9328,-0.9175,-0.9175,-0.8912,-0.8808,-0.8804,-0.8591,-0.843,-0.8381,-0.8421,-0.8381,-0.8329,-0.8368,-0.8451,-0.8509,-0.8501,-0.8657,-0.8885,-2.5145,-2.4724,-2.4562,-2.4647,-2.4933,-2.5265,-2.5583,-2.5641,-2.5641,-2.5641,-2.5909,-2.6334,-2.6956,-2.7407,-2.7905,-2.8426,-2.8642,-2.8618,-2.8419,-2.8311,-2.8042,-2.7615,-2.736,-2.6951,-2.6437,-2.5979,-2.5506,-2.5073,-2.4358,-2.3851,-2.3484,0.0,0.0,0.0,0.0,-2.0004,-1.9664,-1.8316,-1.7595,-1.7351,-1.7057,-1.6812,0.0,-1.6689,-1.6689,-1.6738,-1.7098,-1.718,-1.7139,-1.7351,-1.731,-1.718,-1.7066,-1.6935,-1.6812,-1.6615,-1.636,-1.6105,-1.6023,-1.5567,-1.5151,-1.5151,-1.4894,-1.4559,-1.4237,-1.4068,-1.3851,-1.3512,-1.3294,-1.313,-1.3003,-1.2747,-1.2534,-1.2448,-1.2313,-1.2317,-1.2569,-1.2547,-1.2577,-1.2789,-1.2749,-1.2443,-1.2004,-1.1336,-1.0901,-1.092,-1.0929,-1.0975,-1.1033,-1.1038,-1.0987,-1.0886,-1.0886,-1.0738,-1.0535,-1.0332,-1.0077,-0.9823,-0.9572,-0.9371,-0.9265,-0.8958,-0.8856,-0.8856,-0.8596,-0.8439,-0.8446,-0.8412,-0.8391,-0.8394,-0.8459,-0.8533,-0.8628,-0.8777,-0.8821,-0.894,-2.4249,-2.4043,-2.4043,-2.408,-2.408,-2.4298,-2.4993,-2.5135,-2.5206,-2.5241,-2.5241,-2.5528,-2.6203,-2.6563,-2.6968,-2.7591,-2.7889,-2.8028,-2.7921,-2.7841,-2.7626,-2.7226,-2.7103,-2.6787,-2.6157,-2.5717,-2.5242,-2.4861,-2.4133,-2.358,0.0,0.0,0.0,0.0,0.0,-2.006,-1.9246,-1.797,-1.7392,-1.731,-1.6894,-1.6689,-1.6689,-1.6689,-1.6689,-1.6771,-1.7229,-1.731,-1.718,-1.7392,-1.7473,-1.7432,-1.7432,-1.7432,-1.7351,-1.718,-1.6976,-1.673,-1.6558,-1.6229,-1.5899,-1.5899,-1.5733,-1.5526,-1.5291,-1.5033,-1.4824,-1.4559,-1.4391,-1.4181,-1.3984,-1.3899,-1.3822,-1.3603,-1.3385,-1.3297,-1.3536,-1.3436,-1.3513,-1.3973,-1.3857,0.0,-1.4023,-1.2678,-1.1683,-1.1487,-1.1438,-1.1389,-1.1389,-1.1394,-1.1243,-1.1002,-1.1002,-1.085,-1.056,-1.0511,-1.0364,-1.0117,-0.9821,-0.9579,-0.9282,-0.9027,-0.8874,-0.8825,-0.8581,-0.8432,-0.8443,-0.8386,-0.834,-0.8354,-0.8501,-0.856,-0.8629,-0.9051,-0.9103,-0.902,-2.3411,-2.3224,-2.3261,-2.3446,-2.3446,-2.3556,-2.3849,-2.4334,-2.4706,-2.4861,-2.4897,-2.5098,-2.5691,-2.5784,-2.621,-2.7105,-2.727,-2.7478,-2.7857,-2.7534,-2.7267,-2.7185,-2.6663,-2.6229,-2.5948,-2.5506,-2.5031,-2.4583,-2.4057,-2.358,0.0,0.0,0.0,0.0,0.0,-1.9738,-1.8464,-1.7738,-1.731,-1.7139,-1.6812,-1.6689,-1.6689,-1.6689,-1.6689,-1.6771,-1.7229,-1.7392,-1.7392,-1.7757,-1.7789,-1.7659,-1.7659,-1.7546,-1.7392,-1.7351,-1.731,-1.727,-1.7229,-1.7057,-1.6845,-1.6845,-1.6648,-1.636,-1.6004,-1.588,-1.5748,-1.5311,-1.5186,-1.5144,-1.5103,-1.495,-1.479,-1.4531,-1.444,-1.4412,-1.4467,-1.4471,-1.4536,-1.4636,-1.4857,-1.4942,-1.4801,-1.3624,-1.2834,-1.278,-1.2608,-1.2516,-1.2516,-1.2322,-1.2175,-1.2127,-1.1927,-1.1683,-1.1389,-1.1145,-1.0949,-1.0659,-1.0413,-1.0117,-0.9875,-0.9575,-0.9331,-0.9133,-0.8829,-0.8726,-0.873,-0.8706,-0.872,-0.8739,-0.8903,-0.9021,-0.9039,-0.9205,-0.931,-0.941,-2.2644,-2.2628,-2.2703,-2.2815,-2.2815,-2.2889,-2.3113,-2.3372,-2.3703,-2.4116,-2.4189,-2.4328,-2.468,-2.486,-2.5217,-2.5754,-2.618,-2.6565,-2.6777,-2.6855,-2.6839,-2.6674,-2.6271,-2.5948,-2.5728,-2.5295,-2.4828,-2.4325,-2.397,-2.345,0.0,-2.253,0.0,-2.1302,0.0,-1.9514,-1.8541,-1.7954,-1.7475,-1.7098,-1.6812,-1.6689,-1.6689,-1.6689,-1.6689,-1.6738,-1.7098,-1.731,-1.7473,-1.7878,-1.7951,-1.787,-1.787,-1.7789,-1.7716,-1.7716,-1.7635,-1.7546,-1.7546,-1.7424,-1.727,-1.727,-1.7147,-1.7025,-1.6828,-1.6697,-1.6566,-1.6345,-1.6188,-1.6064,-1.6064,-1.5989,-1.5906,-1.5775,-1.565,-1.5567,-1.5567,-1.5526,-1.5475,-1.5512,-1.5674,-1.5807,-1.594,-1.5259,-1.4555,-1.3992,-1.3715,-1.3576,-1.3576,-1.3329,-1.3087,-1.299,-1.2705,-1.237,-1.2029,-1.1883,-1.1639,-1.1194,-1.0949,-1.0654,-1.0413,-1.0117,-0.992,-0.9826,-0.9377,-0.9225,-0.9175,-0.8924,-0.8825,-0.8832,-0.8914,-0.8948,-0.9017,-0.9442,-0.9657,-0.9762,-2.2026,-2.2025,-2.2138,-2.2214,-2.2214,-2.2289,-2.2478,-2.2515,-2.274,-2.3372,-2.3482,-2.3556,-2.3751,-2.4015,-2.4284,-2.4525,-2.5127,-2.5598,-2.5771,-2.611,-2.6243,-2.6146,-2.5895,-2.5644,-2.5475,-2.5041,-2.4572,-2.411,-2.3797,-2.3222,-2.2397,-2.2353,-2.1856,-2.0979,-2.0076,-1.9397,-1.8789,-1.8245,-1.768,-1.7122,-1.6803,-1.6689,-1.6689,-1.6689,-1.6689,-1.673,-1.7017,-1.718,-1.7392,-1.7789,-1.7951,-1.8,-1.8,-1.8,-1.8,-1.8,-1.787,-1.7781,-1.7821,-1.7749,-1.7635,-1.7684,-1.7676,-1.7684,-1.7635,-1.7505,-1.7383,-1.7302,-1.7139,-1.6976,-1.6976,-1.6976,-1.6976,-1.6976,-1.6853,-1.6722,-1.6722,-1.655,-1.6446,-1.6431,-1.6487,-1.6558,-1.6855,-1.6769,-1.6317,-1.5381,-1.493,-1.4675,-1.4634,-1.434,-1.4046,-1.3848,-1.3474,-1.3098,-1.2705,-1.2613,-1.2322,-1.1834,-1.1585,-1.1292,-1.0949,-1.0708,-1.056,-1.0462,-0.9969,-0.9776,-0.9723,-0.932,-0.9122,-0.9122,-0.9122,-0.9122,-0.9187,-0.9774,-1.0054,-1.0179,-2.1454,-2.132,-2.1359,-2.154,-2.1578,-2.1655,-2.1835,-2.1873,-2.2187,-2.2964,-2.3075,-2.315,-2.3335,-2.3379,-2.3702,-2.4363,-2.4498,-2.4897,-2.5726,-2.5503,-2.5519,-2.5926,-2.5506,-2.5158,-2.4988,-2.4658,-2.4325,-2.3841,-2.3406,-2.2916,-2.2397,-2.222,-2.1731,-2.0979,-2.0076,-1.9409,-1.8927,-1.8268,-1.7702,-1.7241,-1.6865,-1.6689,-1.6689,-1.6689,-1.6689,-1.673,-1.7017,-1.7098,-1.718,-1.7578,-1.787,-1.8,-1.8,-1.8,-1.8,-1.8,-1.7991,-1.8031,-1.8273,-1.8322,-1.8362,-1.8531,-1.858,-1.8531,-1.8362,-1.8273,-1.8193,-1.7951,-1.7919,-1.7878,-1.7878,-1.7878,-1.7878,-1.7878,-1.787,-1.7838,-1.7838,-1.7659,-1.7465,-1.7311,-1.7348,-1.7313,-1.718,-1.7534,-1.759,-1.7243,-1.65,-1.5913,-1.5683,-1.5248,-1.4956,-1.4956,-1.4238,-1.3806,-1.3763,-1.3286,-1.291,-1.2667,-1.2419,-1.2029,-1.1536,-1.1243,-1.0998,-1.0752,-1.0462,-1.0314,-1.0314,-1.0265,-1.0265,-1.0265,-1.0265,-1.0265,-1.0265,-1.0332,-1.0603,-1.1015,-2.1154,-2.0909,-2.0886,-2.0964,-2.0954,-2.1031,-2.1223,-2.1252,-2.1415,-2.1873,-2.2214,-2.2553,-2.274,-2.2777,-2.2891,-2.315,-2.3471,-2.39,-2.4574,-2.4716,-2.5001,-2.5443,-2.5041,-2.4743,-2.4658,-2.4272,-2.3927,-2.3624,-2.3276,-2.2882,-2.2388,-2.2043,-2.1508,-2.0826,-2.0273,-1.9681,-1.8985,-1.8516,-1.7922,-1.7247,-1.6881,-1.6689,-1.6689,-1.6689,-1.6689,-1.6689,-1.6812,-1.6976,-1.7139,-1.7294,-1.7538,-1.7821,-1.7951,-1.8,-1.8,-1.8,-1.8112,-1.8282,-1.8353,-1.8482,-1.8612,-1.87,-1.87,-1.87,-1.8612,-1.8571,-1.8563,-1.8603,-1.8714,-1.8785,-1.8785,-1.8785,-1.8785,-1.8785,-1.8785,-1.8785,-1.8785,-1.8625,-1.8425,-1.8184,-1.8119,-1.8052,-1.8029,-1.8056,-1.8148,-1.8345,-1.7589,-1.6951,-1.6548,-1.6204,-1.5913,-1.5764,-1.5146,-1.4717,-1.4621,-1.41,-1.3721,-1.348,-1.305,-1.2662,-1.2322,-1.2029,-1.1688,-1.1292,-1.1145,-1.1047,-1.09,-1.09,-1.09,-1.09,-1.09,-1.09,-1.0904,-1.1047,-1.1349,-1.1737,-2.0692,-2.0385,-2.0255,-2.0294,-2.0294,-2.0372,-2.0595,-2.0595,-2.0683,-2.0896,-2.131,-2.1721,-2.2101,-2.2149,-2.2138,-2.2214,-2.252,-2.291,-2.3374,-2.3787,-2.4209,-2.4672,-2.4457,-2.4282,-2.4282,-2.3927,-2.358,-2.3363,-2.3047,-2.2696,-2.2309,-2.1776,-2.1195,-2.0699,-2.0428,-1.9875,-1.9166,-1.8787,-1.8164,-1.739,-1.704,-1.6833,-1.6689,-1.6689,-1.6689,-1.6689,-1.6689,-1.6812,-1.6976,-1.7049,-1.7294,-1.7578,-1.7829,-1.7951,-1.8,-1.8,-1.8112,-1.8322,-1.8442,-1.8571,-1.874,-1.8851,-1.8891,-1.8891,-1.8891,-1.8931,-1.9011,-1.924,-1.939,-1.946,-1.946,-1.946,-1.946,-1.946,-1.946,-1.946,-1.946,-1.935,-1.9192,-1.8984,-1.8834,-1.8749,-1.8728,-1.8644,-1.8684,-1.8908,-1.8385,-1.7903,-1.7473,-1.72,-1.6857,-1.652,-1.6008,-1.5669,-1.5432,-1.4914,-1.4484,-1.4238,-1.3721,-1.334,-1.3098,-1.2759,-1.237,-1.1932,-1.1878,-1.1736,-1.1536,-1.1487,-1.1438,-1.1438,-1.1536,-1.1536,-1.1585,-1.1834,-1.217,-1.2532,-2.0008,-1.9586,-1.9381,-1.9597,-1.9597,-1.9676,-1.9863,-1.9902,-2.002,-2.0264,-2.0303,-2.0615,-2.1425,-2.1502,-2.1578,-2.1807,-2.1807,-2.1994,-2.2478,-2.2714,-2.3043,-2.3513,-2.3728,-2.3797,-2.3797,-2.3634,-2.3363,-2.3091,-2.2652,-2.2309,-2.2097,-2.1365,-2.0916,-2.0699,-2.0428,-2.0027,-1.9554,-1.9175,-1.8539,-1.7775,-1.7448,-1.7056,-1.6689,-1.6689,-1.6689,-1.6689,-1.6689,-1.6689,-1.6738,-1.7009,-1.7098,-1.7172,-1.7578,-1.7821,-1.8,-1.8,-1.8,-1.8121,-1.858,-1.87,-1.882,-1.9183,-1.9301,-1.9301,-1.9301,-1.9429,-1.9645,-1.9863,-1.9902,-1.9902,-1.9902,-1.9902,-1.9902,-1.9902,-1.9902,-1.9902,-1.9902,-1.9902,-1.9833,-1.9597,-1.9606,-1.9448,-1.9051,-1.9354,-1.9383,-1.8946,-1.8998,-1.8918,-1.8503,-1.8218,-1.7846,-1.7279,-1.6817,-1.644,-1.619,-1.5669,-1.5296,-1.5099,-1.4532,-1.4148,-1.3854,-1.3335,-1.3001,-1.2764,-1.2516,-1.237,-1.237,-1.2078,-1.198,-1.2029,-1.2273,-1.237,-1.2419,-1.2716,-1.3093,-1.3463,-1.9687,-1.9422,-1.9187,-1.9016,-1.8971,-1.9051,-1.928,-1.9271,-1.9439,-1.9803,-1.9833,-1.999,-2.0372,-2.0838,-2.1108,-2.1175,-2.131,-2.158,-2.2066,-2.2392,-2.2796,-2.3283,-2.3481,-2.3493,-2.3319,-2.3144,-2.2882,-2.2608,-2.2353,-2.1909,-2.132,-2.0961,-2.0645,-2.0428,-2.0155,-1.9891,-1.9563,-1.9011,-1.856,-1.8081,-1.7509,-1.7207,-1.708,-1.6784,-1.6689,-1.6689,-1.6689,-1.6689,-1.6689,-1.6812,-1.6935,-1.7139,-1.7253,-1.7538,-1.7821,-1.7951,-1.8121,-1.8322,-1.8612,-1.8812,-1.8962,-1.9222,-1.9301,-1.9341,-1.9469,-1.9794,-2.0108,-2.0147,-2.0294,-2.0372,-2.0372,-2.0372,-2.0372,-2.0372,-2.0372,-2.0372,-2.0372,-2.0264,-2.0147,-2.0069,-1.9912,-1.9745,-1.9627,-1.9589,-1.9582,-1.9579,-1.9499,-1.9151,-1.847,-1.8425,-1.8198,-1.7743,-1.7641,-1.7426,-1.6951,-1.648,-1.6103,-1.5859,-1.5289,-1.4819,-1.4442,-1.4058,-1.3769,-1.357,-1.3474,-1.3335,-1.3152,-1.3055,-1.3001,-1.305,-1.3329,-1.3426,-1.3474,-1.3721,-1.4148,-1.4573,-1.9187,-1.8895,-1.8642,-1.8391,-1.8322,-1.8442,-1.8723,-1.8754,-1.8882,-1.921,-1.925,-1.9329,-1.9439,-1.9893,-2.0284,-2.0518,-2.0644,-2.085,-2.1125,-2.1696,-2.2138,-2.2456,-2.2875,-2.3013,-2.2828,-2.2706,-2.253,-2.2264,-2.1963,-2.1517,-2.0871,-2.0736,-2.0564,-2.0292,-2.0019,-1.9799,-1.9571,-1.9113,-1.8656,-1.8263,-1.7834,-1.7509,-1.7254,-1.7024,-1.6808,-1.6689,-1.6689,-1.6689,-1.6689,-1.6689,-1.6812,-1.6976,-1.7057,-1.7253,-1.7538,-1.7829,-1.8072,-1.8322,-1.8531,-1.8732,-1.8922,-1.9152,-1.9222,-1.9381,-1.9636,-1.9951,-2.0186,-2.0381,-2.0489,-2.0605,-2.0605,-2.0605,-2.0605,-2.0693,-2.0693,-2.0731,-2.0799,-2.0731,-2.0654,-2.0654,-2.042,-2.0264,-2.0177,-1.999,-1.9867,-1.9919,-1.9727,-1.9339,-1.8783,-1.8747,-1.8591,-1.8105,-1.8094,-1.7841,-1.7333,-1.7084,-1.6772,-1.6399,-1.5947,-1.5486,-1.5118,-1.4825,-1.4627,-1.443,-1.4292,-1.4106,-1.3919,-1.3823,-1.3775,-1.3823,-1.4196,-1.4334,-1.4382,-1.4729,-1.5201,-1.5676,-1.8545,-1.8183,-1.7862,-1.7719,-1.7668,-1.7821,-1.8273,-1.8313,-1.8402,-1.8612,-1.8652,-1.866,-1.87,-1.8851,-1.9201,-1.9784,-1.9863,-1.9902,-1.9902,-2.0718,-2.1182,-2.1182,-2.1987,-2.2388,-2.2397,-2.2353,-2.222,-2.2008,-2.1571,-2.1122,-2.0699,-2.0699,-2.0518,-2.0246,-2.0019,-1.9754,-1.9533,-1.9288,-1.8857,-1.8335,-1.8311,-1.7914,-1.735,-1.7284,-1.7046,-1.6688,-1.6688,-1.6672,-1.6656,-1.6656,-1.6648,-1.673,-1.6976,-1.7049,-1.7172,-1.7578,-1.7821,-1.804,-1.8322,-1.8523,-1.8732,-1.8962,-1.9152,-1.942,-1.9784,-1.9902,-2.0059,-2.0489,-2.0605,-2.0605,-2.0605,-2.0605,-2.0654,-2.0867,-2.0906,-2.0984,-2.1167,-2.1167,-2.1205,-2.1205,-2.1022,-2.0858,-2.0644,-2.0459,-2.0225,-1.9942,-1.9754,-1.9557,-1.9341,-1.9232,-1.8914,-1.8458,-1.824,-1.7953,-1.7473,-1.7511,-1.7311,-1.6843,-1.6467,-1.615,-1.5872,-1.5629,-1.5486,-1.5439,-1.4968,-1.4783,-1.4736,-1.449,-1.4394,-1.4442,-1.5003,-1.5194,-1.5248,-1.573,-1.6251,-1.673,-1.8113,-1.8029,-1.7935,-1.7595,-1.7524,-1.7514,-1.7635,-1.7635,-1.7716,-1.791,-1.8072,-1.8241,-1.8442,-1.8652,-1.8812,-1.8971,-1.9408,-1.9754,-1.9902,-2.0718,-2.1182,-2.1182,-2.1987,-2.2309,-2.2185,-2.1954,-2.1687,-2.1266,-2.1015,-2.0789,-2.0699,-2.0473,-2.0246,-1.9973,-1.9762,-1.9533,-1.9288,-1.9012,-1.8826,-1.8631,-1.8188,-1.7895,-1.7723,-1.7247,-1.6895,-1.6638,-1.6638,-1.6476,-1.6252,-1.6252,-1.6327,-1.6476,-1.6558,-1.6804,-1.7139,-1.7383,-1.7627,-1.7821,-1.804,-1.8282,-1.8563,-1.8922,-1.928,-1.9557,-1.9636,-1.9951,-2.0225,-2.0342,-2.0489,-2.0605,-2.0605,-2.0605,-2.0605,-2.0654,-2.0819,-2.0906,-2.0945,-2.1089,-2.1205,-2.1205,-2.1177,-2.1051,-2.0858,-2.079,-2.0586,-2.0225,-2.0147,-2.0029,-1.9784,-1.9574,-1.9254,-1.8809,-1.8837,-1.8637,-1.8154,-1.8025,-1.776,-1.7342,-1.7365,-1.7113,-1.6697,-1.6643,-1.6393,-1.6001,-1.5906,-1.5724,-1.5547,-1.5493,-1.5445,-1.5493,-1.6062,-1.6251,-1.6298,-1.6763,-1.7279,-1.7753,-1.7833,-1.784,-1.7727,-1.7172,-1.7062,-1.7053,-1.709,-1.7066,-1.7188,-1.7505,-1.7676,-1.7797,-1.7919,-1.8049,-1.817,-1.8371,-1.8891,-1.925,-1.9359,-2.0113,-2.0563,-2.0563,-2.1326,-2.1722,-2.1597,-2.1454,-2.123,-2.0871,-2.0736,-2.0654,-2.0518,-2.0246,-2.0019,-1.9891,-1.9571,-1.9342,-1.9188,-1.892,-1.8743,-1.8635,-1.8317,-1.8001,-1.7748,-1.7384,-1.7066,-1.6776,-1.6776,-1.6662,-1.6502,-1.6502,-1.648,-1.6476,-1.6476,-1.6609,-1.6804,-1.6894,-1.7261,-1.7627,-1.7829,-1.8031,-1.8322,-1.8763,-1.9082,-1.9359,-1.9429,-1.9715,-1.999,-2.0108,-2.0294,-2.045,-2.045,-2.0527,-2.0644,-2.0731,-2.0819,-2.0945,-2.1022,-2.1138,-2.1205,-2.1205,-2.1205,-2.1128,-2.0906,-2.0906,-2.078,-2.0459,-2.0459,-2.0342,-2.0108,-1.999,-1.9659,-1.9106,-1.9074,-1.8847,-1.838,-1.83,-1.8165,-1.7981,-1.8156,-1.804,-1.7667,-1.7581,-1.7293,-1.6857,-1.6763,-1.6622,-1.6487,-1.6487,-1.6487,-1.6534,-1.7099,-1.7293,-1.7333,-1.78,-1.8311,-1.8812,-1.7485,-1.7478,-1.731,-1.6713,-1.6617,-1.6626,-1.67,-1.6647,-1.6738,-1.7147,-1.727,-1.727,-1.727,-1.7351,-1.7554,-1.7878,-1.8302,-1.8619,-1.878,-1.9421,-1.9837,-1.9899,-2.0616,-2.0997,-2.0997,-2.0952,-2.0871,-2.0654,-2.0609,-2.0473,-2.0246,-1.9982,-1.9845,-1.9791,-1.9371,-1.9188,-1.9096,-1.8874,-1.8658,-1.8481,-1.8435,-1.8064,-1.7606,-1.7561,-1.7311,-1.6987,-1.6987,-1.6956,-1.6911,-1.6911,-1.6773,-1.6632,-1.6632,-1.6546,-1.6508,-1.6508,-1.693,-1.745,-1.7571,-1.7781,-1.8121,-1.8531,-1.8812,-1.9002,-1.9222,-1.939,-1.9597,-1.9833,-2.0059,-2.0225,-2.0225,-2.0411,-2.0615,-2.078,-2.0867,-2.0945,-2.1138,-2.1167,-2.1205,-2.1205,-2.1205,-2.1128,-2.0906,-2.0906,-2.0819,-2.0605,-2.0605,-2.0527,-2.0342,-2.0342,-2.0059,-1.946,-1.9192,-1.886,-1.853,-1.8549,-1.8646,-1.8811,-1.8935,-1.8866,-1.8681,-1.8404,-1.8133,-1.7861,-1.7613,-1.752,-1.752,-1.752,-1.752,-1.7567,-1.8125,-1.8311,-1.8357,-1.8874,-1.9371,-1.982,-1.676,-1.6849,-1.6904,-1.6808,-1.6703,-1.6583,-1.6607,-1.6396,-1.6211,-1.6294,-1.6615,-1.6812,-1.6812,-1.7147,-1.7441,-1.7473,-1.7805,-1.8354,-1.9079,-1.9554,-1.9961,-2.028,-2.0758,-2.0997,-2.0997,-2.0826,-2.06,-2.0382,-2.0155,-2.0019,-1.9973,-1.9762,-1.9533,-1.9325,-1.9234,-1.905,-1.8827,-1.8658,-1.8527,-1.8481,-1.8009,-1.7785,-1.7647,-1.7446,-1.7147,-1.692,-1.692,-1.6743,-1.65,-1.65,-1.6566,-1.6697,-1.6697,-1.6798,-1.6891,-1.6891,-1.7144,-1.7356,-1.7219,-1.7587,-1.808,-1.8362,-1.8612,-1.8812,-1.9002,-1.9192,-1.939,-1.9597,-1.9833,-1.9942,-1.9942,-2.0186,-2.0342,-2.0391,-2.0664,-2.0906,-2.0945,-2.1089,-2.1205,-2.1205,-2.1205,-2.1128,-2.0906,-2.0906,-2.0819,-2.0605,-2.0605,-2.0605,-2.0566,-2.0566,-2.0411,-2.0137,-1.9587,-1.9226,-1.917,-1.9277,-1.9523,-1.9876,-1.9751,-1.96,-1.9409,-1.9142,-1.8866,-1.8643,-1.8596,-1.8589,-1.8589,-1.8589,-1.8589,-1.8643,-1.9142,-1.9371,-1.9409,-1.9874,-2.0374,-2.0817,-1.6588,-1.6657,-1.664,-1.6468,-1.6481,-1.6484,-1.6266,-1.6164,-1.616,-1.611,-1.6252,-1.6368,-1.6368,-1.6822,-1.7183,-1.7324,-1.7774,-1.8308,-1.9058,-1.928,-1.9459,-1.963,-2.0041,-2.0246,-2.0246,-2.0164,-2.0027,-1.9945,-1.9808,-1.9762,-1.9716,-1.9479,-1.9333,-1.9188,-1.8928,-1.8743,-1.8604,-1.8373,-1.8195,-1.8055,-1.7815,-1.7628,-1.7481,-1.7333,-1.7238,-1.7113,-1.7113,-1.7011,-1.6887,-1.6887,-1.686,-1.6817,-1.6817,-1.6832,-1.6823,-1.6823,-1.7175,-1.7585,-1.7637,-1.7787,-1.8019,-1.8208,-1.8307,-1.8411,-1.8643,-1.8843,-1.9042,-1.924,-1.9429,-1.9627,-1.9715,-1.9951,-2.0069,-2.0069,-2.0342,-2.0586,-2.0586,-2.0741,-2.0886,-2.0886,-2.0974,-2.0984,-2.077,-2.0829,-2.0819,-2.0605,-2.0605,-2.0605,-2.0605,-2.0605,-2.0566,-2.045,-1.9942,-1.9703,-1.9843,-1.9985,-2.0211,-2.0482,-2.0507,-2.0374,-2.0192,-2.0056,-1.9874,-1.9608,-1.9608,-1.9608,-1.9608,-1.9608,-1.9608,-1.9654,-2.0138,-2.0357,-2.0411,-2.0871,-2.1365,-2.1802,-1.6346,-1.6447,-1.6418,-1.6181,-1.6267,-1.629,-1.5987,-1.606,-1.6135,-1.6102,-1.6148,-1.6232,-1.6232,-1.663,-1.6997,-1.7227,-1.7707,-1.8194,-1.869,-1.8832,-1.897,-1.915,-1.943,-1.9587,-1.9587,-1.9587,-1.9587,-1.9587,-1.9541,-1.9487,-1.9487,-1.9242,-1.9096,-1.9012,-1.8658,-1.8481,-1.8381,-1.8141,-1.7908,-1.7675,-1.7628,-1.7473,-1.7279,-1.7279,-1.7279,-1.7279,-1.7279,-1.7279,-1.7279,-1.7279,-1.7165,-1.7013,-1.7013,-1.6935,-1.6818,-1.6818,-1.7271,-1.7728,-1.7957,-1.7983,-1.7976,-1.8221,-1.8171,-1.8174,-1.8501,-1.8673,-1.8876,-1.912,-1.9232,-1.9328,-1.9546,-1.9701,-1.9784,-1.9824,-2.002,-2.0225,-2.0225,-2.0372,-2.0527,-2.0527,-2.0693,-2.078,-2.0605,-2.0731,-2.078,-2.0605,-2.0644,-2.0654,-2.0654,-2.0722,-2.0771,-2.0918,-2.0399,-2.0252,-2.0514,-2.0717,-2.0912,-2.1176,-2.1221,-2.1186,-2.1015,-2.097,-2.0835,-2.0609,-2.0609,-2.0609,-2.0609,-2.0609,-2.0609,-2.0654,-2.1096,-2.1266,-2.1401,-2.182,-2.2264,-2.274,-1.5588,-1.5927,-1.6218,-1.6197,-1.6176,-1.6106,-1.6109,-1.6043,-1.6029,-1.6007,-1.6397,-1.666,-1.666,-1.6858,-1.7005,-1.7012,-1.7399,-1.7733,-1.7989,-1.8347,-1.8858,-1.9546,-1.9571,-1.9587,-1.9587,-1.9587,-1.9587,-1.9587,-1.9333,-1.9234,-1.9242,-1.8958,-1.8743,-1.8574,-1.8527,-1.8381,-1.8087,-1.7861,-1.7721,-1.7675,-1.7426,-1.7333,-1.7279,-1.7279,-1.7279,-1.7279,-1.7279,-1.7279,-1.7279,-1.7279,-1.7311,-1.7296,-1.7296,-1.7274,-1.726,-1.726,-1.7453,-1.7697,-1.7705,-1.7901,-1.8129,-1.8337,-1.8399,-1.8511,-1.8939,-1.9076,-1.9204,-1.9646,-1.9472,-1.9297,-1.957,-1.9456,-1.9429,-1.9597,-1.9794,-1.9942,-1.9942,-2.0147,-2.0303,-2.0303,-2.0489,-2.0605,-2.0605,-2.0605,-2.0605,-2.0605,-2.078,-2.0867,-2.0867,-2.1051,-2.1357,-2.1779,-2.1162,-2.0922,-2.1135,-2.1528,-2.19,-2.2262,-2.2122,-2.2008,-2.2008,-2.1741,-2.1597,-2.1597,-2.1597,-2.1597,-2.1597,-2.1597,-2.1597,-2.1597,-2.1919,-2.2132,-2.2344,-2.2618,-2.3144,-2.3711,-1.5267,-1.5553,-1.5784,-1.5784,-1.5981,-1.6071,-1.5886,-1.5983,-1.5972,-1.5775,-1.6064,-1.6249,-1.6249,-1.6781,-1.7131,-1.7131,-1.7614,-1.7934,-1.8034,-1.8157,-1.8512,-1.9066,-1.9112,-1.9112,-1.9112,-1.9112,-1.9112,-1.9112,-1.9012,-1.8881,-1.8751,-1.8658,-1.8465,-1.8234,-1.8102,-1.7962,-1.7815,-1.7574,-1.7426,-1.7426,-1.7333,-1.7239,-1.7106,-1.7106,-1.7012,-1.6864,-1.6864,-1.6864,-1.6864,-1.6864,-1.6864,-1.6864,-1.6864,-1.6965,-1.716,-1.7286,-1.7481,-1.7716,-1.769,-1.783,-1.8016,-1.8274,-1.828,-1.8292,-1.8586,-1.8767,-1.8998,-1.929,-1.9382,-1.9454,-1.9682,-1.9674,-1.97,-1.9948,-1.9942,-1.9928,-2.0089,-2.0072,-2.0098,-2.0264,-2.0381,-2.045,-2.0605,-2.0605,-2.0605,-2.0605,-2.078,-2.0906,-2.0906,-2.136,-2.1708,-2.1869,-2.2198,-2.234,-2.2424,-2.2422,-2.2543,-2.2828,-2.2618,-2.2451,-2.2264,-2.2176,-2.2132,-2.2132,-2.2132,-2.222,-2.2397,-2.2397,-2.2441,-2.2564,-2.2838,-2.3101,-2.3319,-2.358,-2.4013,-2.4519,-1.4981,-1.5172,-1.5404,-1.5493,-1.5784,-1.5913,-1.5751,-1.5949,-1.6058,-1.5798,-1.6004,-1.6185,-1.6185,-1.675,-1.7156,-1.7156,-1.7579,-1.79,-1.7947,-1.804,-1.8226,-1.855,-1.8596,-1.8596,-1.8596,-1.8596,-1.8596,-1.8596,-1.8596,-1.8512,-1.8381,-1.8381,-1.8234,-1.7955,-1.7768,-1.7628,-1.7574,-1.738,-1.7286,-1.7192,-1.7192,-1.7059,-1.6878,-1.6878,-1.6784,-1.6588,-1.6588,-1.6588,-1.6588,-1.6588,-1.6588,-1.6588,-1.6588,-1.6777,-1.7026,-1.7153,-1.7387,-1.7574,-1.7574,-1.7688,-1.7925,-1.8289,-1.8295,-1.829,-1.8583,-1.8811,-1.8996,-1.9215,-1.9375,-1.9506,-1.9738,-1.9719,-1.9811,-2.0023,-2.0009,-2.0035,-2.0191,-2.0074,-2.0061,-2.0259,-2.0302,-2.0342,-2.0489,-2.0566,-2.0605,-2.0605,-2.0858,-2.1121,-2.1377,-2.1826,-2.2199,-2.2534,-2.3092,-2.3478,-2.361,-2.326,-2.3196,-2.3319,-2.3188,-2.3013,-2.2828,-2.2828,-2.2828,-2.2828,-2.2828,-2.2925,-2.3101,-2.3101,-2.3232,-2.345,-2.3634,-2.3884,-2.4176,-2.4401,-2.4828,-2.5242,-1.4688,-1.4885,-1.5172,-1.5452,-1.5493,-1.554,-1.5784,-1.6028,-1.6224,-1.6224,-1.6447,-1.6588,-1.6588,-1.6831,-1.6979,-1.6979,-1.72,-1.7426,-1.7675,-1.7955,-1.8087,-1.8087,-1.8087,-1.8087,-1.8087,-1.8087,-1.8087,-1.8087,-1.8087,-1.8087,-1.8087,-1.8087,-1.7947,-1.7675,-1.7675,-1.7527,-1.7279,-1.7279,-1.72,-1.6979,-1.6979,-1.6831,-1.6588,-1.6588,-1.6588,-1.6581,-1.6581,-1.6581,-1.6581,-1.6581,-1.6581,-1.6581,-1.6588,-1.6784,-1.6979,-1.6979,-1.716,-1.7279,-1.7279,-1.7481,-1.7822,-1.8342,-1.8481,-1.8612,-1.9104,-1.9188,-1.9288,-1.9533,-1.9507,-1.947,-1.9655,-1.9601,-1.9555,-1.9777,-2.0032,-2.0201,-2.0201,-2.0223,-2.0201,-2.0201,-2.0246,-2.0313,-2.0313,-2.0489,-2.0605,-2.0605,-2.0974,-2.16,-2.248,-2.2501,-2.2925,-2.3888,-2.3888,-2.4095,-2.4497,-2.4057,-2.3797,-2.3797,-2.3797,-2.3797,-2.3797,-2.3797,-2.3797,-2.3797,-2.3797,-2.3797,-2.3797,-2.3797,-2.398,-2.4206,-2.4206,-2.4497,-2.4946,-2.5115,-2.5496,-2.5937,-1.4442,-1.464,-1.4838,-1.4927,-1.507,-1.5315,-1.5547,-1.5642,-1.5784,-1.5879,-1.6163,-1.6312,-1.6312,-1.6548,-1.6784,-1.6979,-1.7066,-1.72,-1.738,-1.7473,-1.752,-1.752,-1.79,-1.8087,-1.8087,-1.8087,-1.8087,-1.8087,-1.8087,-1.7994,-1.7815,-1.7815,-1.7667,-1.7426,-1.7426,-1.7293,-1.7113,-1.7113,-1.6972,-1.673,-1.673,-1.6548,-1.6312,-1.6312,-1.6211,-1.6015,-1.6015,-1.6015,-1.6015,-1.6015,-1.6015,-1.6069,-1.6265,-1.6366,-1.6461,-1.6643,-1.6878,-1.7113,-1.7113,-1.7246,-1.752,-1.7861,-1.8241,-1.8527,-1.8658,-1.8974,-1.9234,-1.9288,-1.9443,-1.9595,-1.9813,-1.9811,-1.9913,-2.0359,-2.0272,-2.0227,-2.0564,-2.0392,-2.0296,-2.0578,-2.0389,-2.0346,-2.0686,-2.0526,-2.045,-2.0605,-2.1291,-2.2067,-2.2956,-2.3287,-2.3598,-2.3867,-2.4178,-2.449,-2.4786,-2.4444,-2.4239,-2.4067,-2.4067,-2.398,-2.3797,-2.3797,-2.3884,-2.4067,-2.4067,-2.4282,-2.4562,-2.4562,-2.469,-2.4914,-2.5084,-2.5295,-2.5644,-2.5832,-2.6207,-2.6689,-1.416,-1.4352,-1.4592,-1.4688,-1.4838,-1.5029,-1.5315,-1.5445,-1.554,-1.5683,-1.5879,-1.6028,-1.6028,-1.6258,-1.6501,-1.665,-1.6885,-1.7073,-1.7153,-1.7239,-1.7279,-1.7279,-1.7613,-1.78,-1.78,-1.78,-1.78,-1.78,-1.78,-1.7707,-1.7527,-1.7527,-1.7481,-1.7279,-1.72,-1.7106,-1.6979,-1.6885,-1.669,-1.6447,-1.6447,-1.6258,-1.6028,-1.6028,-1.5927,-1.5784,-1.5784,-1.5784,-1.5784,-1.5784,-1.5784,-1.5832,-1.5981,-1.6123,-1.6218,-1.64,-1.669,-1.6979,-1.6979,-1.7153,-1.7333,-1.7481,-1.7861,-1.8249,-1.8435,-1.8705,-1.8966,-1.9012,-1.9242,-1.9479,-1.9608,-1.9791,-2.0019,-2.0337,-2.0373,-2.0447,-2.0704,-2.0584,-2.0546,-2.0793,-2.0602,-2.0608,-2.0995,-2.0878,-2.0924,-2.1322,-2.185,-2.2534,-2.3432,-2.3774,-2.396,-2.4136,-2.448,-2.4743,-2.4903,-2.4828,-2.47,-2.4615,-2.4615,-2.4529,-2.4348,-2.4348,-2.4444,-2.4615,-2.4615,-2.4743,-2.5031,-2.5031,-2.52,-2.5506,-2.5633,-2.5884,-2.6229,-2.6487,-2.6787,-2.7154,-1.3883,-1.4112,-1.4394,-1.464,-1.464,-1.4742,-1.5035,-1.5309,-1.5493,-1.5493,-1.5683,-1.5784,-1.5784,-1.6028,-1.6177,-1.6224,-1.665,-1.6979,-1.6979,-1.7153,-1.7279,-1.7279,-1.7279,-1.7279,-1.7279,-1.7279,-1.7279,-1.7279,-1.7279,-1.7279,-1.7279,-1.7279,-1.7286,-1.7286,-1.7066,-1.6979,-1.6932,-1.6683,-1.64,-1.6177,-1.6177,-1.6028,-1.5784,-1.5784,-1.5784,-1.5784,-1.5784,-1.5784,-1.5784,-1.5784,-1.5784,-1.5784,-1.5784,-1.5981,-1.6177,-1.6177,-1.6555,-1.6979,-1.6979,-1.7106,-1.7279,-1.7279,-1.7473,-1.7815,-1.8295,-1.8481,-1.8574,-1.8743,-1.8966,-1.9188,-1.9188,-1.9563,-1.9882,-1.9882,-2.0337,-2.0654,-2.0699,-2.0749,-2.0833,-2.0833,-2.0848,-2.0936,-2.1239,-2.1428,-2.1802,-2.2501,-2.2542,-2.2991,-2.3908,-2.3939,-2.4126,-2.4529,-2.4786,-2.4903,-2.4946,-2.5158,-2.52,-2.52,-2.52,-2.52,-2.52,-2.52,-2.52,-2.5242,-2.5242,-2.5242,-2.5285,-2.5285,-2.5549,-2.5979,-2.5979,-2.6271,-2.6715,-2.7115,-2.729,-2.7498,-1.3883,-1.4112,-1.4298,-1.4394,-1.4394,-1.4496,-1.4742,-1.5029,-1.5267,-1.5493,-1.5683,-1.5784,-1.5784,-1.5832,-1.5981,-1.617,-1.6501,-1.6784,-1.6979,-1.7019,-1.716,-1.7279,-1.7279,-1.7279,-1.7279,-1.7279,-1.7279,-1.7279,-1.7279,-1.7279,-1.7279,-1.7279,-1.72,-1.7066,-1.7026,-1.6791,-1.6366,-1.6312,-1.6123,-1.5879,-1.5879,-1.5832,-1.5784,-1.5784,-1.5784,-1.5784,-1.5784,-1.5784,-1.5784,-1.5784,-1.5784,-1.5784,-1.5784,-1.5832,-1.5879,-1.5879,-1.6258,-1.6683,-1.6683,-1.7005,-1.7279,-1.7279,-1.7333,-1.7473,-1.7815,-1.8195,-1.8527,-1.8574,-1.8743,-1.8958,-1.9142,-1.9433,-1.9716,-1.9891,-2.0155,-2.0473,-2.0654,-2.0845,-2.1016,-2.1257,-2.1149,-2.1194,-2.1651,-2.1778,-2.2146,-2.2984,-2.3046,-2.3458,-2.4332,-2.4352,-2.4522,-2.4818,-2.4861,-2.5084,-2.5433,-2.5475,-2.5422,-2.52,-2.52,-2.52,-2.52,-2.52,-2.5327,-2.5517,-2.5517,-2.5686,-2.5979,-2.5979,-2.6188,-2.6479,-2.6603,-2.6839,-2.7103,-2.7348,-2.793,-2.8793,-1.3684,-1.3925,-1.416,-1.4298,-1.4298,-1.4346,-1.449,-1.4742,-1.5029,-1.5267,-1.5499,-1.5689,-1.5778,-1.5784,-1.5879,-1.5981,-1.6258,-1.6454,-1.6602,-1.6838,-1.7073,-1.7153,-1.7239,-1.7279,-1.7279,-1.7279,-1.7279,-1.7279,-1.7279,-1.7279,-1.7279,-1.72,-1.7113,-1.6979,-1.6744,-1.6461,-1.6177,-1.6076,-1.5927,-1.5784,-1.5784,-1.5784,-1.5784,-1.5784,-1.5784,-1.5784,-1.5784,-1.5784,-1.5784,-1.5784,-1.5784,-1.5784,-1.5784,-1.5784,-1.5784,-1.5784,-1.6163,-1.6588,-1.6588,-1.6958,-1.7279,-1.7279,-1.7279,-1.738,-1.7628,-1.8009,-1.8334,-1.8481,-1.8651,-1.8827,-1.8966,-1.9342,-1.9633,-1.9762,-2.0073,-2.0337,-2.0473,-2.0772,-2.1042,-2.1195,-2.1318,-2.1586,-2.2032,-2.2308,-2.2748,-2.3446,-2.3499,-2.378,-2.4444,-2.4615,-2.4743,-2.4903,-2.5126,-2.5338,-2.5601,-2.5696,-2.5686,-2.5549,-2.5549,-2.5549,-2.5549,-2.5549,-2.5644,-2.5906,-2.5906,-2.6074,-2.6396,-2.6396,-2.652,-2.6768,-2.6962,-2.7156,-2.7423,-2.7994,-2.8982,-3.0194,-1.3394,-1.3684,-1.3973,-1.4202,-1.425,-1.4298,-1.4298,-1.4544,-1.479,-1.5083,-1.5309,-1.5588,-1.5784,-1.5784,-1.5784,-1.5784,-1.5981,-1.617,-1.6224,-1.665,-1.6932,-1.6979,-1.72,-1.7279,-1.7279,-1.7279,-1.7279,-1.7279,-1.7279,-1.7279,-1.7239,-1.7066,-1.6932,-1.6838,-1.6414,-1.6177,-1.6123,-1.5879,-1.5784,-1.5784,-1.5784,-1.5784,-1.5784,-1.5784,-1.5784,-1.5784,-1.5784,-1.5784,-1.5784,-1.5784,-1.5784,-1.5784,-1.5784,-1.5784,-1.5784,-1.5784,-1.6163,-1.6588,-1.6588,-1.6958,-1.7279,-1.7279,-1.7279,-1.738,-1.7628,-1.7908,-1.8179,-1.8381,-1.8651,-1.8781,-1.8781,-1.9258,-1.9587,-1.9587,-1.9982,-2.0292,-2.0292,-2.069,-2.0997,-2.0997,-2.1499,-2.1998,-2.2441,-2.2872,-2.3353,-2.3754,-2.3841,-2.4057,-2.4497,-2.4743,-2.4903,-2.4946,-2.5391,-2.5612,-2.5654,-2.5822,-2.5895,-2.5895,-2.5937,-2.5948,-2.5948,-2.5948,-2.6074,-2.6282,-2.6282,-2.6396,-2.6644,-2.6644,-2.6809,-2.7015,-2.7196,-2.7447,-2.7883,-2.8987,-3.0182,-3.1296,-1.3147,-1.3545,-1.3931,-1.3931,-1.416,-1.4298,-1.4298,-1.4544,-1.479,-1.5083,-1.5309,-1.5588,-1.5784,-1.5784,-1.5784,-1.5784,-1.5832,-1.5927,-1.617,-1.6501,-1.6784,-1.6979,-1.72,-1.7279,-1.7279,-1.7279,-1.7279,-1.7279,-1.7279,-1.7192,-1.7019,-1.7026,-1.6744,-1.6319,-1.6224,-1.6076,-1.5832,-1.5832,-1.5784,-1.5784,-1.5784,-1.5784,-1.5784,-1.5784,-1.5784,-1.5784,-1.5784,-1.5784,-1.5784,-1.5784,-1.5784,-1.5784,-1.5784,-1.5784,-1.5784,-1.5784,-1.6163,-1.6588,-1.6588,-1.6958,-1.7279,-1.7279,-1.7279,-1.738,-1.7628,-1.7908,-1.8087,-1.8133,-1.8504,-1.8781,-1.8781,-1.9258,-1.9587,-1.9587,-1.9982,-2.0292,-2.0292,-2.069,-2.0997,-2.0997,-2.1767,-2.2441,-2.2706,-2.3188,-2.3537,-2.3797,-2.4024,-2.4239,-2.4497,-2.4743,-2.4988,-2.5158,-2.5433,-2.5686,-2.5864,-2.5906,-2.5895,-2.5895,-2.6074,-2.6157,-2.6157,-2.6157,-2.6313,-2.6561,-2.6561,-2.6685,-2.685,-2.685,-2.7085,-2.7441,-2.7441,-2.7994,-2.8964,-3.0393,-3.1174,-3.1638,-1.3098,-1.3394,-1.3738,-1.3883,-1.4112,-1.4298,-1.4298,-1.4394,-1.4592,-1.4838,-1.5124,-1.5356,-1.5594,-1.573,-1.5784,-1.5784,-1.5784,-1.5927,-1.617,-1.6447,-1.673,-1.6979,-1.72,-1.7279,-1.7279,-1.7279,-1.7279,-1.7279,-1.7279,-1.72,-1.6979,-1.6831,-1.6548,-1.6177,-1.6028,-1.5927,-1.5784,-1.5784,-1.5784,-1.5784,-1.5784,-1.5784,-1.5784,-1.5784,-1.5784,-1.5784,-1.5784,-1.5784,-1.5784,-1.5784,-1.5784,-1.5784,-1.5784,-1.5784,-1.5832,-1.5981,-1.6305,-1.6636,-1.6777,-1.7052,-1.7279,-1.7279,-1.7279,-1.738,-1.7628,-1.7908,-1.8133,-1.828,-1.8604,-1.8781,-1.8781,-1.9258,-1.9587,-1.9587,-1.9982,-2.0337,-2.0518,-2.0826,-2.1132,-2.1588,-2.2078,-2.253,-2.275,-2.3242,-2.358,-2.3797,-2.4067,-2.4368,-2.47,-2.4946,-2.5168,-2.5422,-2.5644,-2.5812,-2.5895,-2.5895,-2.5948,-2.6074,-2.6157,-2.6199,-2.6199,-2.6354,-2.6561,-2.6768,-2.6768,-2.6891,-2.7067,-2.7167,-2.7319,-2.7545,-2.8122,-2.9094,-3.0344,-3.1126,-3.1761,-3.2271]},{"header":{"parameterUnit":"m.s-1","parameterCategory":1,"la1":30.6,"la2":28.766,"lo1":-90.7593,"lo2":-88.6598,"dy":0.0162,"dx":0.0183,"nx":116,"ny":114,"refTime":"2024-03-01T18:00:00:Z","depth":0,"parameterNumber":3,"parameterNumberName":"V-component_of_WINDS"},"data":[0.0,0.0,0.0,0.0,0.0,0.0,0.0,0.0,0.0,0.0,0.0,0.0,0.0,0.0,0.0,0.0,0.0,0.0,0.0,0.0,0.0,0.0,0.0,0.0,0.0,0.0,0.0,0.0,0.0,0.0,0.0,0.0,0.0,0.0,0.0,0.0,0.0,0.0,0.0,0.0,0.0,0.0,0.0,0.0,0.0,0.0,0.0,0.0,0.0,0.0,0.0,0.0,0.0,0.0,0.0,0.0,0.0,0.0,0.0,0.0,0.0,0.0,0.0,0.0,0.0,0.0,0.0,0.0,0.0,0.0,0.0,0.0,0.0,0.0,0.0,0.0,0.0,0.0,0.0,0.0,0.0,0.0,0.0,0.0,0.0,0.0,0.0,0.0,0.0,0.0,0.0,0.0,0.0,0.0,0.0,0.0,0.0,0.0,0.0,0.0,0.0,0.0,0.0,0.0,0.0,0.0,0.0,0.0,0.0,0.0,0.0,0.0,0.0,0.0,0.0,0.0,0.0,0.0,0.0,0.0,0.0,0.0,0.0,0.0,0.0,0.0,0.0,0.0,0.0,0.0,0.0,0.0,0.0,0.0,0.0,0.0,0.0,0.0,0.0,0.0,0.0,0.0,0.0,0.0,0.0,0.0,0.0,0.0,0.0,0.0,0.0,0.0,0.0,0.0,0.0,0.0,0.0,0.0,0.0,0.0,0.0,0.0,0.0,0.0,0.0,0.0,0.0,0.0,0.0,0.0,0.0,0.0,0.0,0.0,0.0,0.0,0.0,0.0,0.0,0.0,0.0,0.0,0.0,0.0,0.0,0.0,0.0,0.0,0.0,0.0,0.0,0.0,0.0,0.0,0.0,0.0,0.0,0.0,0.0,0.0,0.0,0.0,0.0,0.0,0.0,0.0,0.0,0.0,0.0,0.0,0.0,0.0,0.0,0.0,0.0,0.0,0.0,0.0,0.0,0.0,0.0,0.0,0.0,0.0,0.0,0.0,0.0,0.0,0.0,0.0,0.0,0.0,0.0,0.0,0.0,0.0,0.0,0.0,0.0,0.0,0.0,0.0,0.0,0.0,0.0,0.0,0.0,0.0,0.0,0.0,0.0,0.0,0.0,0.0,0.0,0.0,0.0,0.0,0.0,0.0,0.0,0.0,0.0,0.0,0.0,0.0,0.0,0.0,0.0,0.0,0.0,0.0,0.0,0.0,0.0,0.0,0.0,0.0,0.0,0.0,0.0,0.0,0.0,0.0,0.0,0.0,0.0,0.0,0.0,0.0,0.0,0.0,0.0,0.0,0.0,0.0,0.0,0.0,0.0,0.0,0.0,0.0,0.0,0.0,0.0,0.0,0.0,0.0,0.0,0.0,0.0,0.0,0.0,0.0,0.0,0.0,0.0,0.0,0.0,0.0,0.0,0.0,0.0,0.0,0.0,0.0,0.0,0.0,0.0,0.0,0.0,0.0,0.0,0.0,0.0,0.0,0.0,0.0,0.0,0.0,0.0,0.0,0.0,0.0,0.0,0.0,0.0,0.0,0.0,0.0,0.0,0.0,0.0,0.0,0.0,0.0,0.0,0.0,0.0,0.0,0.0,0.0,0.0,0.0,0.0,0.0,0.0,0.0,0.0,0.0,0.0,0.0,0.0,0.0,0.0,0.0,0.0,0.0,0.0,0.0,0.0,0.0,0.0,0.0,0.0,0.0,0.0,0.0,0.0,0.0,0.0,0.0,0.0,0.0,0.0,0.0,0.0,0.0,0.0,0.0,0.0,0.0,0.0,0.0,0.0,0.0,0.0,0.0,0.0,0.0,0.0,0.0,0.0,0.0,0.0,0.0,0.0,0.0,0.0,0.0,0.0,0.0,0.0,0.0,0.0,0.0,0.0,0.0,0.0,0.0,0.0,0.0,0.0,0.0,0.0,0.0,0.0,0.0,0.0,0.0,0.0,0.0,0.0,0.0,0.0,0.0,0.0,0.0,0.0,0.0,0.0,0.0,0.0,0.0,0.0,0.0,0.0,0.0,0.0,0.0,0.0,0.0,0.0,0.0,0.0,0.0,0.0,0.0,0.0,0.0,0.0,0.0,0.0,0.0,0.0,0.0,0.0,0.0,0.0,0.0,0.0,0.0,0.0,0.0,0.0,0.0,0.0,0.0,0.0,0.0,0.0,0.0,0.0,0.0,0.0,0.0,0.0,0.0,0.0,0.0,0.0,0.0,0.0,0.0,0.0,0.0,0.0,0.0,0.0,0.0,0.0,0.0,0.0,0.0,0.0,0.0,0.0,0.0,0.0,0.0,0.0,0.0,0.0,0.0,0.0,0.0,0.0,0.0,0.0,0.0,0.0,0.0,0.0,0.0,0.0,0.0,0.0,0.0,0.0,0.0,0.0,0.0,0.0,0.0,0.0,0.0,0.0,0.0,0.0,0.0,0.0,0.0,0.0,0.0,0.0,0.0,0.0,0.0,0.0,0.0,0.0,0.0,0.0,0.0,0.0,0.0,0.0,0.0,0.0,0.0,0.0,0.0,0.0,0.0,0.0,0.0,0.0,0.0,0.0,0.0,0.0,0.0,0.0,0.0,0.0,0.0,0.0,0.0,0.0,0.0,0.0,0.0,0.0,0.0,0.0,0.0,0.0,0.0,0.0,0.0,0.0,0.0,0.0,0.0,0.0,0.0,0.0,0.0,0.0,0.0,0.0,0.0,0.0,0.0,0.0,0.0,0.0,0.0,0.0,0.0,0.0,0.0,0.0,0.0,0.0,0.0,0.0,0.0,0.0,0.0,0.0,0.0,0.0,0.0,0.0,0.0,0.0,0.0,0.0,0.0,0.0,0.0,0.0,0.0,0.0,0.0,0.0,0.0,0.0,0.0,0.0,0.0,0.0,0.0,0.0,0.0,0.0,0.0,0.0,0.0,0.0,0.0,0.0,0.0,0.0,0.0,0.0,0.0,0.0,0.0,0.0,0.0,0.0,0.0,0.0,0.0,0.0,0.0,0.0,0.0,0.0,0.0,0.0,0.0,0.0,0.0,0.0,0.0,0.0,0.0,0.0,0.0,0.0,0.0,0.0,0.0,0.0,0.0,0.0,0.0,0.0,0.0,0.0,0.0,0.0,0.0,0.0,0.0,0.0,0.0,0.0,0.0,0.0,0.0,0.0,0.0,0.0,0.0,0.0,0.0,0.0,0.0,0.0,0.0,0.0,0.0,0.0,0.0,0.0,0.0,0.0,0.0,0.0,0.0,0.0,0.0,0.0,0.0,0.0,0.0,0.0,0.0,0.0,0.0,0.0,0.0,0.0,0.0,0.0,0.0,0.0,0.0,0.0,0.0,0.0,0.0,0.0,0.0,0.0,0.0,0.0,0.0,0.0,0.0,0.0,0.0,0.0,0.0,0.0,0.0,0.0,0.0,0.0,0.0,0.0,0.0,0.0,0.0,0.0,0.0,0.0,0.0,0.0,0.0,0.0,0.0,0.0,0.0,0.0,0.0,0.0,0.0,0.0,0.0,0.0,0.0,0.0,0.0,0.0,0.0,0.0,0.0,0.0,0.0,0.0,0.0,0.0,0.0,0.0,0.0,0.0,0.0,0.0,0.0,0.0,0.0,0.0,0.0,0.0,0.0,0.0,0.0,0.0,0.0,0.0,0.0,0.0,0.0,0.0,0.0,0.0,0.0,0.0,0.0,0.0,0.0,0.0,0.0,0.0,0.0,0.0,0.0,0.0,0.0,0.0,0.0,0.0,0.0,0.0,0.0,0.0,0.0,0.0,0.0,0.0,0.0,0.0,0.0,0.0,0.0,0.0,0.0,0.0,0.0,0.0,0.0,0.0,0.0,0.0,0.0,0.0,0.0,0.0,0.0,0.0,0.0,0.0,0.0,0.0,0.0,0.0,0.0,0.0,0.0,0.0,0.0,0.0,0.0,0.0,0.0,0.0,0.0,0.0,0.0,0.0,0.0,0.0,0.0,0.0,0.0,0.0,0.0,0.0,0.0,0.0,0.0,0.0,0.0,0.0,0.0,0.0,0.0,0.0,0.0,0.0,0.0,0.0,0.0,0.0,0.0,0.0,0.0,0.0,0.0,0.0,0.0,0.0,0.0,0.0,0.0,0.0,0.0,0.0,0.0,0.0,0.0,0.0,0.0,0.0,0.0,0.0,0.0,0.0,0.0,0.0,0.0,0.0,0.0,0.0,0.0,0.0,0.0,0.0,0.0,0.0,0.0,0.0,0.0,0.0,0.0,0.0,0.0,0.0,0.0,0.0,0.0,0.0,0.0,0.0,0.0,0.0,0.0,0.0,0.0,0.0,0.0,0.0,0.0,0.0,0.0,0.0,0.0,0.0,0.0,0.0,0.0,0.0,0.0,0.0,0.0,0.0,0.0,0.0,0.0,0.0,0.0,0.0,0.0,0.0,0.0,0.0,0.0,0.0,0.0,0.0,0.0,0.0,0.0,0.0,0.0,0.0,0.0,0.0,0.0,0.0,0.0,0.0,0.0,0.0,0.0,0.0,0.0,0.0,0.0,0.0,0.0,0.0,0.0,0.0,0.0,0.0,0.0,0.0,0.0,0.0,0.0,0.0,0.0,0.0,0.0,0.0,0.0,0.0,0.0,0.0,0.0,0.0,0.0,0.0,0.0,0.0,0.0,0.0,0.0,0.0,0.0,0.0,0.0,0.0,0.0,0.0,0.0,0.0,0.0,0.0,0.0,0.0,0.0,0.0,0.0,0.0,0.0,0.0,0.0,0.0,0.0,0.0,0.0,0.0,0.0,0.0,0.0,0.0,0.0,0.0,0.0,0.0,0.0,0.0,0.0,0.0,0.0,0.0,0.0,0.0,0.0,0.0,0.0,0.0,0.0,0.0,0.0,0.0,0.0,0.0,0.0,0.0,0.0,0.0,0.0,0.0,0.0,0.0,0.0,0.0,0.0,0.0,0.0,0.0,0.0,0.0,0.0,0.0,0.0,0.0,0.0,0.0,0.0,0.0,0.0,0.0,0.0,0.0,0.0,0.0,0.0,0.0,0.0,0.0,0.0,0.0,0.0,0.0,0.0,0.0,0.0,0.0,0.0,0.0,0.0,0.0,0.0,0.0,0.0,0.0,0.0,0.0,0.0,0.0,0.0,0.0,0.0,0.0,0.0,0.0,0.0,0.0,0.0,0.0,0.0,0.0,0.0,0.0,0.0,0.0,0.0,0.0,0.0,0.0,0.0,0.0,0.0,0.0,0.0,0.0,0.0,0.0,0.0,0.0,0.0,0.0,0.0,0.0,0.0,0.0,0.0,0.0,0.0,0.0,0.0,0.0,0.0,0.0,0.0,0.0,0.0,0.0,0.0,0.0,0.0,0.0,0.0,0.0,0.0,0.0,0.0,0.0,0.0,0.0,0.0,0.0,0.0,0.0,0.0,0.0,0.0,0.0,0.0,0.0,0.0,0.0,0.0,0.0,0.0,0.0,0.0,0.0,0.0,0.0,0.0,0.0,0.0,0.0,0.0,0.0,0.0,0.0,0.0,0.0,0.0,0.0,0.0,0.0,0.0,0.0,0.0,0.0,0.0,0.0,0.0,0.0,0.0,0.0,0.0,0.0,0.0,0.0,0.0,0.0,0.0,0.0,0.0,0.0,0.0,0.0,0.0,0.0,0.0,0.0,0.0,0.0,0.0,0.0,0.0,0.0,0.0,0.0,0.0,0.0,0.0,0.0,0.0,0.0,0.0,0.0,0.0,0.0,0.0,0.0,0.0,0.0,0.0,0.0,0.0,0.0,0.0,0.0,0.0,0.0,0.0,0.0,0.0,0.0,0.0,0.0,0.0,0.0,0.0,0.0,0.0,0.0,0.0,0.0,0.0,0.0,0.0,0.0,0.0,0.0,0.0,0.0,0.0,0.0,0.0,0.0,0.0,0.0,0.0,0.0,0.0,0.0,0.0,0.0,0.0,0.0,0.0,0.0,0.0,0.0,0.0,0.0,0.0,0.0,0.0,0.0,0.0,0.0,0.0,0.0,0.0,0.0,0.0,0.0,0.0,0.0,0.0,0.0,0.0,0.0,0.0,0.0,0.0,0.0,0.0,0.0,0.0,0.0,0.0,0.0,0.0,3.7586,3.7186,0.0,0.0,0.0,0.0,0.0,0.0,0.0,0.0,0.0,0.0,0.0,0.0,0.0,0.0,0.0,0.0,0.0,0.0,0.0,0.0,0.0,0.0,0.0,0.0,0.0,0.0,0.0,0.0,0.0,0.0,0.0,0.0,0.0,0.0,3.2835,3.2776,3.2615,3.2333,3.2273,3.2168,3.1987,3.1652,3.0812,2.967,0.0,0.0,0.0,0.0,0.0,0.0,0.0,0.0,0.0,0.0,0.0,0.0,0.0,0.0,0.0,0.0,0.0,0.0,0.0,0.0,0.0,0.0,0.0,0.0,0.0,0.0,0.0,0.0,0.0,0.0,0.0,0.0,0.0,0.0,0.0,0.0,0.0,0.0,0.0,0.0,0.0,0.0,0.0,0.0,0.0,0.0,0.0,0.0,0.0,0.0,0.0,0.0,0.0,0.0,0.0,0.0,0.0,0.0,0.0,0.0,0.0,0.0,0.0,0.0,0.0,0.0,0.0,0.0,0.0,0.0,3.941,3.8805,0.0,0.0,0.0,0.0,0.0,0.0,0.0,0.0,0.0,0.0,0.0,0.0,0.0,0.0,0.0,0.0,0.0,0.0,0.0,0.0,0.0,0.0,0.0,3.0911,3.1646,3.2489,3.2655,3.2733,0.0,0.0,0.0,0.0,0.0,3.4663,3.4663,3.4546,3.44,3.4208,3.4044,3.3849,3.3653,3.3653,3.2645,3.0781,3.0558,0.0,0.0,0.0,0.0,0.0,0.0,0.0,0.0,0.0,0.0,0.0,0.0,0.0,0.0,0.0,0.0,0.0,0.0,0.0,0.0,0.0,0.0,0.0,0.0,0.0,0.0,0.0,0.0,0.0,0.0,0.0,0.0,0.0,0.0,0.0,0.0,0.0,0.0,0.0,0.0,0.0,0.0,0.0,0.0,0.0,0.0,0.0,0.0,0.0,0.0,0.0,0.0,0.0,0.0,0.0,0.0,0.0,0.0,0.0,0.0,0.0,0.0,0.0,4.3431,4.3466,4.345,4.2837,4.2672,4.2807,4.1395,4.0678,4.0459,4.0478,0.0,0.0,0.0,0.0,0.0,0.0,0.0,0.0,0.0,0.0,0.0,0.0,0.0,0.0,0.0,0.0,0.0,0.0,0.0,0.0,0.0,3.2193,3.2737,3.316,3.3707,3.4038,3.4038,0.0,3.5165,3.5165,3.5244,3.5291,3.5291,3.5247,3.5178,3.5036,3.4734,3.4502,3.437,3.437,3.4041,3.3427,3.2316,3.1318,3.0447,0.0,0.0,0.0,0.0,0.0,0.0,0.0,0.0,0.0,0.0,0.0,0.0,0.0,0.0,0.0,0.0,0.0,0.0,0.0,0.0,0.0,0.0,0.0,0.0,0.0,0.0,0.0,0.0,0.0,0.0,0.0,0.0,0.0,0.0,0.0,0.0,0.0,0.0,0.0,0.0,0.0,3.9875,3.9986,0.0,0.0,0.0,0.0,0.0,0.0,0.0,0.0,0.0,0.0,0.0,0.0,0.0,4.4076,4.4156,4.4156,4.4223,4.4324,4.4324,4.444,4.4574,4.4477,4.4543,4.474,4.4496,0.0,4.1407,4.1541,0.0,0.0,0.0,0.0,0.0,0.0,0.0,0.0,0.0,0.0,0.0,0.0,0.0,0.0,0.0,0.0,0.0,0.0,0.0,0.0,0.0,3.2928,3.3604,3.4322,3.4653,3.499,3.5391,3.6064,3.6477,3.6477,3.685,3.7074,3.7074,3.7074,3.7018,3.6816,3.6545,3.6358,3.6299,3.618,3.58,3.5205,3.4572,3.3517,3.2211,3.1811,0.0,0.0,0.0,0.0,0.0,0.0,0.0,0.0,0.0,0.0,0.0,0.0,0.0,0.0,0.0,0.0,0.0,0.0,0.0,0.0,0.0,0.0,0.0,0.0,0.0,0.0,0.0,0.0,0.0,0.0,0.0,0.0,0.0,0.0,0.0,0.0,0.0,0.0,0.0,4.0559,4.1291,4.1708,4.2203,4.2699,0.0,0.0,0.0,0.0,0.0,0.0,0.0,0.0,0.0,4.588,4.5994,4.6223,4.6601,4.6601,4.6634,4.6666,4.6666,4.6748,4.6812,4.6416,4.6314,4.6361,4.5947,4.5197,4.4164,4.3441,4.3168,4.312,0.0,0.0,0.0,0.0,4.247,4.2542,0.0,0.0,0.0,0.0,0.0,0.0,0.0,0.0,0.0,0.0,0.0,0.0,3.2964,3.3593,3.429,3.5259,3.5554,3.5987,3.6747,3.7405,3.7796,3.7796,3.829,3.86,3.86,3.8795,3.8902,3.889,3.8663,3.8424,3.8206,3.8027,3.7499,3.6672,3.6542,3.5483,3.3774,3.323,3.3019,3.2944,0.0,0.0,0.0,0.0,0.0,0.0,0.0,0.0,0.0,0.0,0.0,0.0,0.0,0.0,0.0,0.0,0.0,0.0,0.0,0.0,0.0,0.0,0.0,0.0,0.0,0.0,0.0,0.0,0.0,0.0,0.0,0.0,0.0,0.0,0.0,0.0,0.0,4.2171,4.2646,4.3418,4.3605,4.399,0.0,0.0,0.0,0.0,0.0,0.0,4.6545,4.6809,4.7183,4.7673,4.783,4.8161,4.8652,4.8668,4.8668,4.8668,4.8668,4.8668,4.8635,4.8144,4.7939,4.7953,4.7426,4.7203,4.7089,4.5485,4.4814,4.4731,4.4051,4.383,4.39,4.3671,4.371,4.3844,0.0,0.0,0.0,0.0,0.0,0.0,0.0,0.0,0.0,0.0,0.0,3.2554,3.4039,3.4358,3.48,3.5679,3.6521,3.7325,3.8063,3.8732,3.9086,3.9086,3.9135,3.9152,3.9152,3.9907,4.0547,4.1045,4.0906,4.0406,3.9609,3.9469,3.8908,3.7994,3.7851,3.6624,3.4632,3.4471,3.4397,3.4368,3.4131,0.0,0.0,0.0,0.0,0.0,0.0,0.0,0.0,0.0,0.0,0.0,0.0,0.0,0.0,0.0,0.0,0.0,0.0,0.0,0.0,0.0,0.0,0.0,0.0,0.0,0.0,0.0,0.0,0.0,0.0,0.0,0.0,0.0,0.0,0.0,0.0,0.0,0.0,4.5005,4.519,0.0,0.0,0.0,0.0,4.7912,4.8094,4.8472,4.9159,4.9223,4.9257,4.9291,4.9291,4.9308,4.9342,4.9342,4.9342,4.9342,4.9342,4.9342,4.9342,4.9308,4.9398,4.958,4.9546,4.9617,4.9555,4.7382,4.6481,4.6426,4.5802,4.5573,4.5488,4.4716,4.4446,4.4446,0.0,0.0,0.0,0.0,0.0,0.0,0.0,0.0,3.0582,3.2132,3.2403,3.3054,3.4638,3.5361,3.6071,3.6942,3.7818,3.8631,3.9379,3.9639,3.9975,4.0471,4.0505,4.0707,4.1177,4.148,4.1705,4.1913,4.1699,4.1416,4.1111,4.0875,4.0602,4.0282,3.9993,3.9469,3.8628,3.6593,3.5665,3.5547,3.4905,3.456,0.0,0.0,0.0,0.0,0.0,0.0,0.0,0.0,0.0,0.0,0.0,0.0,0.0,0.0,0.0,0.0,0.0,0.0,0.0,0.0,0.0,0.0,0.0,0.0,0.0,0.0,0.0,0.0,0.0,0.0,0.0,0.0,0.0,0.0,0.0,0.0,0.0,4.659,4.6856,0.0,4.8077,4.831,4.875,4.9516,4.9625,4.9774,5.0022,5.0137,5.0176,5.0176,5.0261,5.0317,5.0317,5.0317,5.0317,5.0317,5.0317,5.0317,5.0317,5.0317,5.0345,5.0418,5.0418,5.0418,5.0411,4.9632,4.8803,4.7934,4.7255,4.6992,4.6906,4.6134,4.5833,4.5764,0.0,0.0,0.0,0.0,0.0,0.0,0.0,0.0,3.1214,3.2558,3.3045,3.3773,3.5117,3.6044,3.6926,3.7787,3.8693,3.9538,4.0311,4.0608,4.0966,4.1461,4.1733,4.221,4.2969,4.2986,4.3079,4.3282,4.3058,4.2793,4.2513,4.2266,4.1994,4.1705,4.1437,4.1267,4.1082,3.9015,3.7758,3.7139,3.6266,3.5841,3.5667,0.0,0.0,0.0,0.0,0.0,0.0,0.0,0.0,0.0,0.0,0.0,0.0,0.0,0.0,0.0,0.0,0.0,0.0,0.0,0.0,0.0,0.0,0.0,0.0,0.0,0.0,0.0,0.0,0.0,0.0,0.0,0.0,0.0,0.0,4.6916,4.7382,4.8199,4.8475,4.8879,4.9674,4.9862,5.0275,5.1082,5.1224,5.1357,5.1603,5.1684,5.1739,5.1739,5.1864,5.1909,5.1909,5.1909,5.1909,5.1909,5.1891,5.1891,5.1891,5.1626,5.1503,5.1485,5.122,5.1114,5.1114,5.1114,5.0585,4.9691,4.8752,4.8375,4.8288,4.7541,4.7264,4.7159,0.0,0.0,0.0,0.0,0.0,0.0,0.0,3.1261,3.2143,3.3076,3.3915,3.4739,3.5515,3.6412,3.7297,3.8157,3.9094,4.0018,4.0894,4.1619,4.2033,4.2109,4.2869,4.3629,4.4337,4.4371,4.4639,4.523,4.5086,4.4575,4.3751,4.3573,4.3003,4.2176,4.2058,4.191,4.1805,4.1615,4.0705,3.9237,3.8354,3.7908,3.7685,0.0,0.0,0.0,0.0,0.0,0.0,0.0,0.0,0.0,0.0,0.0,0.0,0.0,0.0,0.0,0.0,0.0,0.0,0.0,0.0,0.0,0.0,0.0,0.0,0.0,0.0,0.0,0.0,0.0,0.0,0.0,0.0,0.0,4.8443,4.853,4.8983,4.9852,5.0002,5.0328,5.12,5.1401,5.1841,5.2606,5.2842,5.3276,5.3991,5.4044,5.4044,5.4044,5.4098,5.4116,5.4116,5.4116,5.4116,5.4116,5.4062,5.4062,5.4098,5.3312,5.2973,5.2919,5.209,5.1751,5.1751,5.1733,5.1715,5.1576,5.0276,4.9767,4.9679,4.8924,4.8625,4.8502,0.0,0.0,0.0,0.0,0.0,0.0,3.0834,3.1597,3.2478,3.3384,3.4282,3.5138,3.595,3.7377,3.837,3.8622,3.9945,4.1105,4.1933,4.2271,4.2975,4.4194,4.4956,4.5463,4.5673,4.5573,4.5602,4.5786,4.5555,4.5294,4.5061,4.493,4.4668,4.4329,4.4211,4.4065,4.3893,4.3087,4.2428,4.1839,4.0639,3.9969,3.9702,0.0,0.0,0.0,0.0,0.0,0.0,0.0,0.0,0.0,0.0,0.0,0.0,0.0,0.0,0.0,0.0,0.0,0.0,0.0,0.0,0.0,0.0,0.0,0.0,0.0,0.0,0.0,0.0,0.0,0.0,0.0,5.0205,5.0235,4.9799,4.9866,5.0318,5.1166,5.1915,5.2487,5.2765,5.3488,5.403,5.4247,5.4332,5.444,5.4639,5.4639,5.4639,5.4639,5.4657,5.4675,5.4675,5.4675,5.4675,5.4675,5.4657,5.4657,5.4657,5.444,5.4332,5.4296,5.3448,5.3069,5.3033,5.245,5.2215,5.215,5.1422,5.115,5.1061,5.0261,4.9646,4.9148,0.0,0.0,0.0,0.0,0.0,0.0,3.1072,3.215,3.3182,3.3744,3.4868,3.5956,3.6778,3.8105,3.9086,3.9478,4.0687,4.1791,4.2624,4.34,4.4407,4.5676,4.6128,4.6357,4.6357,4.6618,4.672,4.667,4.6835,4.689,4.6838,4.6726,4.6577,4.6401,4.5956,4.563,4.536,4.4429,4.3931,4.3693,4.2902,4.191,4.0905,4.0818,4.0469,4.0024,3.9982,3.9577,3.9121,3.9195,0.0,0.0,0.0,0.0,0.0,0.0,0.0,0.0,0.0,0.0,0.0,0.0,0.0,0.0,0.0,0.0,0.0,0.0,0.0,0.0,0.0,0.0,0.0,0.0,5.1769,5.2157,5.2028,5.1886,5.2018,5.2659,5.3532,5.4157,5.4304,5.4851,5.5335,5.5681,5.57,5.5845,5.6192,5.6186,5.6186,5.6186,5.6186,5.6186,5.6186,5.6186,5.6186,5.6186,5.6186,5.6186,5.6186,5.5864,5.57,5.5663,5.4806,5.426,5.3913,5.3435,5.3034,5.264,0.0,0.0,0.0,0.0,5.0832,5.0209,0.0,0.0,0.0,0.0,0.0,0.0,3.1249,3.2764,3.396,3.4133,3.5567,3.6884,3.7735,3.8646,3.954,4.0453,4.1317,4.2237,4.3235,4.4777,4.5969,4.6649,4.6773,4.6808,4.6808,4.7582,4.7917,4.7795,4.8501,4.8761,4.8633,4.853,4.8365,4.8137,4.7334,4.6826,4.6488,4.5807,4.537,4.5124,4.5012,4.3715,4.1803,4.1629,4.1493,4.1354,4.1243,4.1049,4.0896,4.1012,0.0,0.0,0.0,0.0,0.0,0.0,0.0,0.0,0.0,0.0,0.0,0.0,0.0,0.0,0.0,0.0,0.0,0.0,0.0,0.0,0.0,0.0,0.0,0.0,5.3153,5.4206,5.4577,5.4286,5.4077,5.4182,5.4921,5.5509,5.5772,5.5886,5.6253,5.6971,5.7026,5.7316,5.8051,5.8088,0.0,0.0,0.0,5.8088,5.8088,5.8088,5.8088,5.8088,5.8065,5.8065,5.8029,5.7312,5.6981,5.6944,5.6118,5.5364,5.4703,5.4501,5.3931,5.3096,5.264,5.2477,5.2477,5.2477,5.2064,5.1502,0.0,0.0,0.0,0.0,0.0,0.0,3.1634,3.3035,3.4116,3.431,3.5828,3.7206,3.8015,3.8954,3.9852,4.0668,4.1485,4.2654,4.4296,4.5864,4.6842,4.7147,4.7797,4.8137,4.8137,4.8816,4.9127,4.9049,4.9112,4.9061,4.893,4.8904,4.8829,4.8641,4.8372,4.8172,4.7971,4.7557,4.7343,4.722,4.6354,4.5099,4.3759,4.3731,4.3191,4.2504,4.2446,4.1979,4.1357,4.1385,4.147,4.1554,4.1705,4.1854,0.0,0.0,0.0,0.0,0.0,0.0,0.0,0.0,0.0,0.0,0.0,0.0,0.0,0.0,0.0,0.0,0.0,0.0,0.0,5.3946,5.4375,5.488,5.581,5.6399,5.642,5.5558,5.6209,5.6817,5.6964,5.7659,5.8164,5.8331,5.8331,5.8405,5.8572,5.8551,5.8551,5.8551,5.8551,5.8551,5.8551,5.8551,5.8551,5.8551,5.8446,0.0,5.8403,5.8186,5.8087,5.805,5.7239,5.6796,5.6538,5.5212,5.4158,5.34,5.3075,5.2969,5.2969,5.2969,5.2877,5.2749,0.0,0.0,0.0,0.0,0.0,0.0,3.1746,3.3189,3.431,3.452,3.6022,3.7508,3.8765,3.9365,4.0175,4.1345,4.2658,4.3982,4.5373,4.6516,4.7187,4.7298,4.8075,4.8506,4.8506,4.9629,5.0187,5.0157,5.0504,5.0628,5.0555,5.0407,5.0307,5.0221,4.9629,4.9299,4.9109,4.8513,4.8224,4.811,4.7469,4.6773,4.6003,4.4964,4.426,4.3783,4.3681,4.3362,4.2987,4.2987,4.306,4.3144,4.331,4.3447,4.3593,0.0,0.0,0.0,0.0,0.0,0.0,0.0,0.0,0.0,0.0,0.0,0.0,0.0,0.0,5.2119,5.2989,0.0,5.433,5.5367,5.5889,5.6377,5.7021,5.7824,5.7931,5.6831,5.7462,5.8046,5.8129,5.8581,5.8843,5.8843,5.8843,5.8843,5.8843,5.8843,5.8843,5.8843,5.8843,5.8843,5.8843,5.8843,5.8843,5.8843,5.8764,5.8743,5.8743,5.8721,5.8698,5.8679,5.8271,5.7862,5.736,5.5689,5.476,5.4351,5.3809,5.3484,5.33,5.33,5.33,5.33,0.0,0.0,0.0,0.0,0.0,0.0,0.0,3.3389,3.4535,3.4898,3.6224,3.7786,3.9476,3.9755,4.0508,4.2237,4.3888,4.524,4.6154,4.691,4.7435,4.7601,4.8375,4.8879,4.9041,5.0464,5.1202,5.1178,5.1826,5.2126,5.2102,5.1864,5.1765,5.1747,5.0837,5.0358,5.0203,4.944,4.9047,4.8925,4.8592,4.8363,4.8062,4.621,4.5364,4.5118,4.4793,4.4669,4.4669,4.4669,4.4669,4.4697,4.4896,4.5059,4.5177,4.531,4.5606,0.0,0.0,0.0,0.0,0.0,0.0,0.0,0.0,5.0406,5.0963,5.1788,5.2332,5.3091,5.4522,5.5051,5.558,5.6555,5.7303,5.7827,5.8184,5.8822,5.8953,5.8089,5.861,5.904,5.9101,5.9101,5.912,5.912,5.912,5.912,5.912,5.912,5.912,5.912,5.912,5.912,5.912,5.912,5.912,5.912,5.9101,5.9101,5.9101,5.9063,5.9063,5.9063,5.9043,5.8575,5.7678,5.6164,5.5454,5.5212,5.4426,5.3907,5.362,5.362,5.362,5.362,0.0,0.0,0.0,0.0,0.0,0.0,0.0,0.0,3.4746,3.573,3.669,3.7918,3.9595,3.9836,4.0844,4.3235,4.4378,4.5345,4.6224,4.7039,4.7858,4.8667,4.9484,5.0267,5.0972,5.1878,5.226,5.2143,5.2233,5.2216,5.2102,5.2078,5.2054,5.2036,5.1676,5.1497,5.1472,5.1146,5.0981,5.091,5.0056,4.9618,4.9389,4.8373,4.7333,4.6284,4.5551,4.531,4.531,4.531,4.531,4.5319,4.5468,4.5606,4.5735,4.5862,4.6112,4.6357,4.6495,4.7374,4.8277,4.8407,4.9303,5.039,0.0,5.1671,5.2156,5.3105,5.4026,5.4779,5.5098,5.5884,5.6817,5.7752,5.8031,5.844,5.9282,5.9488,5.9525,5.9377,5.9399,5.9438,5.9438,5.9492,5.9526,5.9526,5.9526,5.9526,5.9526,5.9526,5.9526,5.9526,5.9526,5.9526,5.9526,5.9526,5.9526,5.9526,5.9456,5.9438,5.9438,5.9309,5.9272,5.9253,5.9215,5.8652,5.7734,5.6818,5.5996,5.5212,5.4426,5.4073,5.4036,5.4036,5.4036,5.4036,0.0,0.0,0.0,0.0,0.0,0.0,0.0,0.0,0.0,3.5853,3.6761,3.7937,3.9615,4.0693,4.2136,4.4217,4.4782,4.5606,4.7018,4.7434,4.7781,4.8167,4.942,5.0275,5.0578,5.1846,5.2475,5.2428,5.2428,5.2382,5.2317,5.2246,5.2216,5.2216,5.2029,5.1889,5.179,5.1615,5.1505,5.1384,5.0883,5.0681,5.0541,4.9713,4.9073,4.8435,4.6891,4.6326,0.0,4.5891,4.576,4.5786,4.5912,4.6038,4.6186,4.6308,4.6542,4.6908,4.763,4.8694,4.9724,5.0177,5.086,5.1628,5.2498,5.2885,5.3362,5.4293,5.4913,5.5622,5.6687,5.7265,5.7879,5.8833,5.9034,5.9233,5.9713,6.0236,6.0589,6.0638,6.1077,6.1105,6.0442,6.0889,6.1243,6.1243,6.077,6.0486,6.0486,6.0032,5.977,5.977,5.977,5.9753,5.9666,5.9666,5.9631,5.9616,5.9563,5.9545,5.9545,5.9491,5.9473,5.9473,5.9437,5.9213,5.8782,5.7974,5.7128,5.6282,5.5456,5.4854,5.4424,5.418,5.4109,5.4109,0.0,0.0,0.0,0.0,0.0,0.0,0.0,0.0,0.0,0.0,3.6829,3.79,3.9615,4.1339,4.2964,4.4471,4.4877,4.5701,4.722,4.7569,4.7808,4.8025,4.9347,5.0202,5.0438,5.1774,5.2498,5.2498,5.2498,5.2498,5.2498,5.2405,5.2358,5.2358,5.2198,5.2102,5.1998,5.1833,5.1708,5.1582,5.1462,5.1402,5.128,5.072,5.0464,5.0193,4.8232,4.742,4.7157,4.6663,4.6362,4.6235,4.6332,4.6477,4.6637,4.6778,4.7168,4.7819,4.888,4.998,5.0981,5.1632,5.2171,5.2762,5.3452,5.3775,5.4187,5.5119,5.562,5.6381,5.7898,5.8454,5.888,5.9571,5.9748,5.9926,6.0272,6.0906,6.1444,6.1735,6.2543,6.276,6.1939,6.2243,6.2471,6.2471,6.1901,6.1446,6.1199,6.063,6.0213,5.9966,5.9966,5.9915,5.9815,5.9815,5.9782,5.9734,5.9734,5.9734,5.9734,5.9734,5.9717,5.9685,5.9685,5.965,5.954,5.8729,5.788,5.7012,5.622,5.5409,5.4657,5.4373,5.4269,5.4269,0.0,0.0,0.0,0.0,0.0,0.0,0.0,0.0,0.0,0.0,0.0,0.0,0.0,4.1417,4.2808,4.3581,4.4574,4.5526,4.6284,4.7202,4.804,4.8818,4.9655,5.0474,5.1249,5.2063,5.2498,5.2498,5.2498,5.2498,5.2498,5.2498,5.2498,5.2498,5.2358,5.2287,5.2264,5.2023,5.1882,5.1882,5.174,5.1607,5.1479,5.1462,5.1367,5.1051,4.951,4.8448,4.7769,4.7751,4.7317,4.6772,4.6795,4.6957,4.7178,4.7254,4.8117,4.9231,5.0101,5.1133,5.2002,5.2223,5.3028,5.3757,5.387,5.4035,5.4439,5.5386,5.6319,5.7252,5.8202,5.9183,5.9866,5.9885,5.9994,6.0388,6.1244,6.1377,6.1716,6.2569,6.349,6.4038,6.4004,6.32,6.2703,6.2703,6.2684,6.2287,6.1434,6.1358,6.0959,6.0122,6.0084,6.0084,6.0084,6.0084,6.0084,6.0084,6.0084,6.0084,6.0084,6.0084,6.001,5.9885,5.9885,5.9786,5.954,5.8729,5.788,5.7012,5.622,5.5409,5.4708,5.4692,5.4673,5.4673,0.0,0.0,0.0,0.0,0.0,0.0,0.0,0.0,0.0,0.0,0.0,0.0,0.0,0.0,0.0,0.0,4.439,4.5303,4.6176,4.6993,4.7616,4.7951,4.9238,5.0132,5.051,5.181,5.2498,5.2498,5.2498,5.2498,5.2498,5.2498,5.2498,5.2498,5.2452,5.2382,5.2287,5.2216,5.2102,5.2029,5.1882,5.1858,5.1882,5.1808,5.1808,5.1768,0.0,5.0042,4.8613,4.8212,4.7635,4.7088,4.7227,4.7697,4.8351,4.9119,5.0159,5.1122,5.1544,5.2407,5.3212,5.3329,5.3721,5.409,5.4216,5.4769,5.5527,5.6421,5.7385,5.8332,5.9235,5.9741,6.0026,6.0026,6.0137,6.0531,6.141,6.2079,6.2806,6.371,6.459,6.5102,6.5102,6.481,6.4609,6.4609,6.4126,6.3456,6.2562,6.2007,6.1319,6.0458,6.0398,6.0342,6.0299,6.026,6.0182,6.0099,6.0099,6.0099,6.0099,6.0099,6.0087,6.0026,6.0026,5.9975,5.9909,5.9643,5.8694,5.7404,5.7119,5.6171,5.4971,5.4971,5.4971,5.4941,0.0,0.0,0.0,0.0,0.0,0.0,0.0,0.0,0.0,0.0,0.0,0.0,0.0,0.0,0.0,0.0,0.0,4.5025,4.5631,4.6683,4.7341,4.7428,4.869,4.9564,4.996,5.1261,5.2074,5.2364,5.2364,5.2364,5.2364,5.2405,5.2428,5.2428,5.2475,5.2452,5.2358,5.2311,5.2264,5.215,5.2029,5.2029,5.2102,5.2005,5.2029,0.0,5.2102,5.0964,4.9388,4.8887,4.8321,4.7813,4.7966,4.8662,4.9653,5.0707,5.1557,5.2237,5.271,5.3366,5.3926,5.4054,5.4197,5.4335,5.4493,5.523,5.6158,5.7019,5.7996,5.8976,5.983,6.0091,6.0182,6.0193,6.0304,6.0776,6.1969,6.2656,6.3483,6.4688,6.5315,6.5674,6.5674,6.5682,6.5682,6.5608,6.5129,6.4323,6.3173,6.2617,6.1793,6.0642,6.0565,6.0512,6.0472,6.0436,6.0361,6.028,6.0251,6.0237,6.0237,6.0222,6.0178,6.0167,6.0167,6.0133,6.0099,6.0099,5.9109,5.7606,5.7606,5.6578,5.5094,5.5094,5.5094,5.5066,0.0,0.0,0.0,0.0,0.0,0.0,0.0,0.0,0.0,0.0,0.0,0.0,0.0,0.0,0.0,0.0,0.0,0.0,4.4682,4.6287,4.7276,4.7258,4.8052,4.8843,4.9621,5.0466,5.1275,5.203,5.2066,5.2102,5.2084,5.224,5.2287,5.2287,5.2428,5.2475,5.2475,5.2335,5.2287,5.2287,5.215,5.2126,5.2126,5.2108,5.2108,5.2126,5.2072,5.1241,5.0118,4.982,4.9374,4.8937,4.8995,4.9875,5.1048,5.1939,5.2318,5.2678,5.359,5.3963,5.4163,5.4356,5.4474,5.4554,5.4673,5.5457,5.6414,5.7248,5.8243,5.9204,5.9981,6.0231,6.0323,6.0389,6.0458,6.11,6.2853,6.3115,6.3729,6.543,6.5715,6.5807,6.5807,6.5872,6.584,6.5635,6.5583,6.4841,6.3192,6.3058,6.2291,6.0674,6.0604,6.0604,6.0604,6.0604,6.0604,6.0604,6.0539,6.0512,6.0499,6.0444,6.038,6.0327,6.0327,6.0245,6.0133,6.0114,5.9124,5.762,5.762,5.6592,5.5127,5.5127,5.5127,5.5127,0.0,0.0,0.0,0.0,0.0,0.0,0.0,0.0,0.0,0.0,0.0,0.0,0.0,0.0,0.0,0.0,0.0,0.0,4.4396,4.5902,4.6806,4.6916,4.7798,4.8427,4.8711,5.015,5.1005,5.1203,5.1814,5.2102,5.2102,5.2126,5.215,5.215,5.2198,5.2198,5.2198,5.2174,5.2198,5.2287,5.215,5.2222,5.2405,5.2287,5.2311,5.2338,5.1774,5.137,5.0957,5.0222,4.9737,4.9543,5.0129,5.1086,5.2174,5.3103,5.3441,5.3628,5.4106,5.4287,5.4373,5.4576,5.4702,5.481,5.4841,5.608,5.7281,5.7509,5.8819,6.0012,6.028,6.0389,6.0472,6.0539,6.0565,6.1179,6.2932,6.3175,6.3847,6.5679,6.5916,6.5953,6.595,6.5955,6.5943,6.5888,6.5243,6.4373,6.3297,6.2675,6.1848,6.0772,6.0685,6.066,6.066,6.0629,6.0604,6.0604,6.0578,6.0578,6.0578,6.0552,6.0539,6.0512,6.0512,6.0512,6.0466,6.0425,5.9404,5.7881,5.7827,5.6801,5.5332,5.5332,5.5332,5.5332,0.0,0.0,0.0,0.0,0.0,0.0,0.0,0.0,0.0,0.0,0.0,0.0,0.0,0.0,0.0,0.0,0.0,0.0,0.0,4.5305,4.6212,4.6596,4.7198,4.7701,4.8128,4.9055,4.9704,5.0061,5.0854,5.1254,5.1321,5.1728,5.1956,5.2029,5.2078,5.2102,5.2102,5.2102,5.215,0.0,0.0,5.2287,5.2405,5.2405,5.2211,5.1923,5.1546,5.1042,5.0438,4.9672,4.9724,5.0237,5.0875,5.1952,5.3143,5.3777,5.4036,5.4162,5.4388,5.4508,5.4608,5.4752,5.4856,5.4941,5.4985,5.6093,5.7225,5.7648,5.883,5.9963,6.0395,6.0512,6.0565,6.0642,6.0635,6.1121,6.2526,6.3058,6.3825,6.53,6.5793,6.5998,6.6001,6.6001,6.5847,6.55,6.4999,6.4309,6.3442,6.2594,6.1766,6.0919,6.0846,6.0823,6.0788,6.0753,6.0717,6.0692,6.0667,6.0635,6.0635,6.0617,6.0604,6.0604,6.0604,6.0604,6.0604,6.0565,5.9575,5.803,5.7992,5.6945,5.5453,5.5453,5.5453,5.5453,0.0,0.0,0.0,0.0,0.0,0.0,0.0,0.0,0.0,0.0,0.0,0.0,0.0,0.0,0.0,0.0,0.0,0.0,0.0,0.0,4.5516,4.6291,4.6447,4.6837,4.7561,4.7667,4.8081,4.882,4.9564,4.9986,5.0129,5.0966,5.1465,5.1672,5.1801,5.1922,5.2011,5.2054,5.2054,5.2102,5.2222,5.2233,5.2167,0.0,5.1851,5.1149,5.1133,5.037,4.928,4.8715,4.9488,5.0797,5.125,5.2456,5.3777,5.4106,5.432,5.4476,5.4538,5.4686,5.4829,5.4901,5.4971,5.5038,5.5094,5.5843,5.6782,5.7714,5.8616,5.9504,6.0431,6.0617,6.0642,6.071,6.0741,6.1046,6.1989,6.2752,6.3623,6.4682,6.5426,6.5909,6.6016,6.5939,6.5592,6.4878,6.4608,6.4133,6.337,6.251,6.172,6.1006,6.0987,6.0965,6.0903,6.0903,6.088,6.0823,6.0777,6.0741,6.0722,6.0667,6.0642,6.0629,6.0629,6.0629,6.0629,6.0482,5.9524,5.8105,5.7977,5.6942,5.5504,5.5504,5.5504,5.5504,0.0,0.0,0.0,0.0,0.0,0.0,0.0,0.0,0.0,0.0,3.6611,3.7895,0.0,0.0,0.0,0.0,0.0,0.0,0.0,0.0,0.0,4.5862,4.6013,4.6182,4.6322,4.7071,4.7593,4.7858,4.8635,4.9081,4.9224,4.9391,4.9806,5.0416,5.0542,5.0966,5.1607,5.1715,5.1815,5.1932,5.2078,5.1802,5.1318,5.1457,0.0,0.0,4.9891,4.9273,4.866,4.8606,4.9307,5.036,5.1156,5.2227,5.3367,5.4149,5.451,5.4673,5.4795,5.4856,5.4916,5.5023,5.5121,5.5176,5.5189,5.5944,5.6913,5.7793,5.8681,5.9569,6.0507,6.0673,6.071,6.0846,6.0858,6.1169,6.2064,6.2307,6.3023,6.469,6.4999,6.5368,6.6097,6.5555,6.5121,6.4985,6.3622,6.2693,6.2444,6.1643,6.1141,6.0987,6.0987,6.0987,6.0976,6.0976,6.0976,6.0965,6.0955,6.0922,6.0858,6.0846,6.0812,6.0765,6.0765,6.0765,6.0707,5.9929,5.9041,5.8107,5.7337,5.6393,5.5504,5.5504,5.5504,5.5504,0.0,0.0,0.0,0.0,0.0,0.0,0.0,3.4201,3.43,3.4374,3.5976,3.7236,3.7655,3.9134,4.0138,0.0,0.0,0.0,0.0,0.0,0.0,0.0,0.0,0.0,4.5684,4.6194,4.6488,4.6564,0.0,4.7933,4.8061,4.8541,4.9005,4.9435,4.9561,4.9841,5.0196,5.0346,5.0446,5.0519,5.0677,5.0586,5.0379,0.0,0.0,0.0,0.0,4.8712,4.8587,4.8714,4.915,4.9864,5.1148,5.2272,5.3297,5.4263,5.4673,5.4829,5.4931,5.4971,5.5028,5.5135,5.5189,5.5229,5.5294,5.5683,5.6294,5.7217,5.8117,5.8997,5.9915,6.0481,6.0823,6.088,6.0933,6.1111,6.1511,6.1965,6.2585,6.3486,6.3999,6.4444,6.4871,6.4542,6.4145,6.3727,6.2914,6.2403,6.2316,6.1504,6.106,6.106,6.106,6.105,6.1,6.1,6.0999,6.0987,6.0987,6.0976,6.0955,6.0955,6.0933,6.0891,6.0891,6.088,6.0789,5.9869,5.9019,5.8158,5.7259,5.6364,5.5596,5.5596,5.5596,5.5596,0.0,0.0,0.0,0.0,0.0,0.0,0.0,3.3745,3.3886,3.4143,3.5445,3.6594,3.7182,3.872,3.9703,0.0,0.0,0.0,0.0,0.0,0.0,0.0,0.0,0.0,0.0,0.0,0.0,4.5503,4.6257,0.0,0.0,0.0,0.0,0.0,4.8564,4.8745,4.893,4.9121,4.9195,0.0,0.0,4.9469,0.0,0.0,0.0,0.0,0.0,4.8458,4.8623,4.882,4.9029,4.9457,5.1002,5.2146,5.3118,5.4129,5.4678,5.4946,5.5,5.5066,5.5135,5.5216,5.5242,5.5262,5.5383,5.542,5.5729,5.6698,5.7605,5.8493,5.9369,6.028,6.0903,6.0924,6.0967,6.1009,6.1012,6.1621,6.2143,6.2385,6.3033,6.3516,6.3698,6.3543,6.3173,6.2549,6.2344,6.2213,6.2181,6.1513,6.1146,6.1146,6.1137,6.1099,6.1041,6.1022,6.1021,6.1029,6.1029,6.0999,6.0989,6.0989,6.1008,6.0987,6.0987,6.085,6.0575,5.9689,5.8839,5.7987,5.7112,5.6332,5.5724,5.5724,5.5714,5.5703,0.0,0.0,0.0,0.0,0.0,0.0,0.0,3.3282,3.362,3.4383,3.5294,3.6194,3.7035,3.8275,3.9115,0.0,0.0,0.0,0.0,0.0,0.0,0.0,0.0,0.0,0.0,0.0,0.0,4.523,4.5325,0.0,0.0,0.0,0.0,0.0,0.0,4.794,4.8659,4.9029,0.0,0.0,0.0,0.0,0.0,0.0,0.0,0.0,0.0,4.8532,4.8623,4.882,4.9029,4.9396,5.0459,5.1478,5.2462,5.3354,5.428,5.5014,5.5066,5.5149,5.5216,5.5358,5.5384,5.5383,5.5395,5.5492,5.5834,5.671,5.7639,5.8561,5.9425,6.0302,6.0924,6.0972,6.0992,6.1012,6.108,6.1167,6.1534,6.2382,6.2565,6.2923,6.3703,6.3072,6.2588,6.2519,6.1821,6.1414,6.1405,6.1328,6.1289,6.1289,6.1227,6.1192,6.1173,6.1108,6.1089,6.108,6.108,6.1061,6.0992,6.0992,6.101,6.0987,6.0987,6.0543,5.9752,5.8865,5.8026,5.7216,5.6348,5.5913,5.5787,5.5787,5.5756,5.5703,0.0,0.0,0.0,0.0,0.0,0.0,3.2722,3.2834,3.3165,3.4023,3.4865,3.5672,3.6457,3.7559,3.8387,3.8816,0.0,0.0,0.0,0.0,0.0,0.0,0.0,0.0,0.0,0.0,4.4592,4.478,4.4896,0.0,0.0,0.0,0.0,0.0,0.0,4.6669,4.7051,4.7283,0.0,0.0,0.0,0.0,0.0,0.0,0.0,0.0,0.0,0.0,4.8641,4.8959,4.9129,4.9319,4.9924,5.0704,5.1684,5.3086,5.3907,5.4457,5.496,5.5195,5.5339,5.5384,5.5402,5.542,5.5504,5.5562,5.5703,5.6113,5.6926,5.7835,5.8657,5.9607,6.0411,6.0925,6.1032,6.1089,6.1155,6.1155,6.1317,6.1729,6.1776,6.1909,6.2261,6.197,6.1791,6.1834,6.1543,6.1349,6.1349,6.133,6.1297,6.1297,6.1261,6.1253,6.1253,6.1236,6.1227,6.1227,6.1173,6.1146,6.1108,6.108,6.1061,6.1051,6.1051,6.0577,5.9698,5.8829,5.7941,5.7052,5.6223,5.5885,5.5856,5.5856,5.5836,5.5816,0.0,0.0,0.0,0.0,0.0,3.2135,3.2299,3.2382,3.2804,3.3857,3.4483,3.5237,3.6246,3.6987,3.7626,3.8144,3.8343,0.0,0.0,0.0,0.0,0.0,0.0,0.0,0.0,0.0,4.415,4.4305,4.448,4.4676,0.0,0.0,4.523,4.5363,0.0,0.0,0.0,0.0,0.0,0.0,0.0,0.0,0.0,0.0,0.0,0.0,0.0,0.0,0.0,0.0,0.0,4.9244,4.9604,5.0088,5.0854,5.2408,5.3167,5.3699,5.455,5.4892,5.5072,5.5345,5.542,5.5468,5.5573,5.5607,5.564,5.5724,5.6449,5.7357,5.8208,5.9147,6.0065,6.0906,6.1089,6.1146,6.1182,6.1219,6.1245,6.1294,6.1302,6.1318,6.1337,6.1337,6.1344,6.1393,6.1393,6.1393,6.1393,6.1368,6.1337,6.1337,6.1302,6.1302,6.1302,6.1306,6.1297,6.1297,6.1245,6.1227,6.1227,6.1173,6.1019,6.075,6.075,6.0103,5.9012,5.8403,5.7602,5.6715,5.6155,5.5933,5.5924,5.5924,5.5914,5.5895,0.0,0.0,0.0,0.0,0.0,0.0,3.171,3.1868,3.2524,3.401,3.4193,3.4833,3.6522,3.6708,3.6846,3.7194,3.777,0.0,0.0,0.0,0.0,0.0,0.0,0.0,0.0,0.0,4.3671,4.3802,4.3993,4.4253,4.4502,4.4502,4.4752,4.5203,0.0,0.0,0.0,0.0,0.0,0.0,0.0,0.0,0.0,0.0,0.0,0.0,0.0,0.0,0.0,0.0,0.0,0.0,0.0,4.9711,4.992,5.1014,5.1939,5.2817,5.3746,5.4072,5.4326,5.5173,5.5456,5.5516,5.5585,5.564,5.5724,5.5776,5.6499,5.7397,5.8317,5.9215,6.0094,6.0954,6.1155,6.1201,6.1201,6.1272,6.1294,6.1295,6.1302,6.1337,6.1393,6.1393,6.1393,6.1393,6.1393,6.1393,6.1393,6.1393,6.1393,6.1393,6.1337,6.1302,6.1302,6.1302,6.1297,6.1297,6.1297,6.1297,6.1297,6.1297,6.0788,5.9913,5.9913,5.8938,5.7338,5.7318,5.6796,5.6003,5.6003,5.5996,5.599,5.599,5.5962,5.5895,0.0,0.0,0.0,0.0,0.0,0.0,0.0,3.184,3.2556,3.3713,3.4258,3.4971,3.6088,3.6305,3.6399,3.6507,3.7511,0.0,0.0,0.0,0.0,0.0,0.0,0.0,0.0,0.0,4.3251,4.3522,4.3671,4.3848,4.4018,4.4361,4.4586,4.4725,4.5096,4.5336,0.0,0.0,0.0,0.0,0.0,0.0,4.7323,0.0,0.0,0.0,0.0,0.0,0.0,0.0,0.0,0.0,0.0,0.0,0.0,5.0274,5.1045,5.1948,5.2812,5.3557,5.4186,5.4556,5.509,5.5527,5.564,5.5673,5.5724,5.5776,5.6067,5.6551,5.7438,5.8355,5.9281,6.0129,6.0805,6.1227,6.1255,6.1291,6.1314,6.1352,6.1368,6.1389,6.1395,6.1434,6.1473,6.1473,6.1473,6.1473,6.1473,6.1473,6.1447,6.14,6.1386,6.1378,6.1378,6.1364,6.1364,6.1364,6.1314,6.1008,6.0484,6.0433,5.9932,5.9075,5.9075,5.8438,5.737,5.737,5.6831,5.6012,5.6012,5.5995,5.6005,5.6005,5.5996,5.5959,0.0,0.0,0.0,0.0,0.0,0.0,0.0,3.1589,3.2359,3.3303,3.4022,3.4743,3.5625,3.5846,3.5973,3.6022,3.7307,0.0,0.0,0.0,0.0,0.0,0.0,0.0,4.2413,4.2665,4.2883,4.3099,4.3312,4.3522,4.3713,4.4035,4.4276,4.4502,4.4824,4.5096,0.0,0.0,0.0,0.0,0.0,0.0,4.7323,0.0,0.0,0.0,0.0,0.0,0.0,0.0,0.0,0.0,0.0,0.0,0.0,0.0,5.0398,5.1091,5.1954,5.2673,5.3338,5.41,5.4691,5.5155,5.5605,5.5703,5.5724,5.5826,5.5875,5.6175,5.708,5.7753,5.8523,5.971,6.0403,6.091,6.1256,6.131,6.1359,6.1394,6.1415,6.1434,6.1434,6.1472,6.1503,6.1503,6.1503,6.1503,6.1503,6.1503,6.133,6.0955,6.1233,6.1239,6.0914,6.0914,6.074,6.0422,6.0381,6.0102,5.9609,5.9568,5.906,5.825,5.825,5.7742,0.0,5.6955,5.6593,5.6037,5.6037,5.602,5.6012,5.6012,5.6012,5.6012,0.0,0.0,0.0,0.0,0.0,0.0,0.0,3.1285,3.2096,3.2821,3.3576,3.4304,3.5088,3.5326,3.5537,3.5731,0.0,0.0,0.0,0.0,0.0,0.0,0.0,0.0,4.2045,4.2365,4.2571,4.2602,4.2898,4.3235,4.3552,4.3598,4.3906,4.4474,4.4474,4.4752,4.523,4.5641,4.6048,4.6405,4.6542,4.6893,0.0,0.0,0.0,0.0,0.0,0.0,0.0,0.0,0.0,0.0,0.0,0.0,0.0,0.0,0.0,0.0,0.0,5.1514,5.2007,5.3775,5.425,5.4553,5.5489,5.5695,0.0,5.5875,5.5905,5.6165,5.7049,5.7304,5.7937,5.9545,5.9987,6.0383,6.1186,6.1359,6.1394,6.1415,6.1466,6.1503,6.1503,6.1509,6.1509,6.1509,6.1509,6.149,6.1412,6.1412,6.1023,6.0141,6.0837,6.0845,6.0008,6.0008,5.962,5.8817,5.8797,5.8778,5.8719,5.8719,5.8233,5.7409,5.7409,5.6941,5.6206,5.6206,5.6157,5.6098,5.6098,5.6054,5.6012,5.6012,5.6012,5.6012,0.0,0.0,0.0,0.0,0.0,0.0,0.0,0.0,0.0,0.0,3.3503,3.4441,3.4783,3.4949,3.5307,0.0,0.0,0.0,0.0,0.0,0.0,0.0,0.0,0.0,4.172,4.1947,4.2174,4.2445,4.2634,4.2898,4.3235,4.3462,4.3805,4.4196,4.4406,4.4807,4.5363,4.5667,4.5955,4.6259,4.6501,4.6847,0.0,0.0,0.0,0.0,4.8169,4.8401,0.0,0.0,0.0,0.0,0.0,0.0,0.0,0.0,4.9898,5.0082,5.0355,0.0,5.1873,5.3016,5.3809,5.4553,0.0,5.5745,5.5806,0.0,0.0,0.0,5.6265,5.6917,5.7752,5.8811,5.9615,6.0398,6.1262,6.1394,6.1415,6.1466,6.1482,6.1504,6.1504,6.1558,6.1588,6.1588,6.1588,6.1296,6.0614,6.0575,6.0176,5.9313,5.9463,5.9446,5.9184,5.9179,5.9089,5.8875,5.883,5.8486,5.7891,5.7891,5.7418,5.657,5.657,5.6433,5.6204,5.6204,5.6182,5.6164,5.6125,5.609,5.6073,5.602,5.6012,5.6012,0.0,0.0,0.0,0.0,0.0,0.0,0.0,0.0,0.0,0.0,0.0,0.0,0.0,0.0,0.0,0.0,0.0,0.0,0.0,0.0,0.0,0.0,0.0,4.1189,4.1456,4.167,4.1931,4.227,4.2445,4.2696,4.3007,4.3251,4.3552,4.3894,4.4423,4.4852,4.523,4.5641,4.5905,4.6137,4.6471,0.0,0.0,0.0,0.0,0.0,4.807,4.8325,0.0,4.8732,4.8959,4.9211,0.0,0.0,0.0,0.0,4.9843,4.9978,5.007,5.0525,5.12,5.2192,5.3069,5.3966,5.4932,0.0,0.0,0.0,0.0,0.0,5.6048,5.6485,5.7126,5.8005,5.8916,5.9942,6.1226,6.1428,6.147,6.1501,6.1534,6.1549,6.1549,6.1583,6.1607,6.1607,6.1237,6.0808,6.0321,5.9912,5.9304,5.8432,5.8389,5.8369,5.8307,5.8289,5.8103,5.7702,5.7664,5.7418,5.6997,5.6997,5.6738,5.6291,5.6291,5.6285,5.6246,5.6246,5.6225,5.6202,5.616,5.613,5.609,5.6065,5.6029,5.6012,0.0,0.0,0.0,0.0,0.0,0.0,0.0,0.0,0.0,0.0,0.0,0.0,0.0,0.0,0.0,0.0,0.0,0.0,0.0,0.0,0.0,0.0,4.0627,4.0935,4.1256,4.1456,4.172,4.2093,4.2254,4.2539,4.2868,4.3021,4.3295,4.3717,4.4423,4.4858,4.5032,4.5563,4.5854,4.6013,4.6429,0.0,0.0,0.0,0.0,0.0,0.0,0.0,0.0,4.8587,4.8855,4.9146,4.9179,0.0,0.0,0.0,0.0,0.0,5.0057,5.0145,5.0434,5.1541,5.2409,5.3256,5.4278,0.0,0.0,0.0,0.0,0.0,5.6082,5.6149,5.6485,5.7363,5.8349,5.9575,6.1194,6.1462,6.1495,6.1519,6.1578,6.1607,6.1607,6.1607,6.1549,6.1412,6.0711,6.0185,5.9912,5.9191,5.8412,5.754,5.752,5.7498,5.7428,5.7423,5.7062,5.6319,5.6308,5.6309,5.6298,5.6298,5.6291,5.6291,5.6291,5.6291,5.6291,5.6291,5.6278,5.6206,5.6199,5.6175,5.6106,5.6098,5.6065,5.6012,0.0,0.0,0.0,0.0,0.0,0.0,0.0,0.0,0.0,0.0,0.0,0.0,0.0,0.0,0.0,0.0,0.0,0.0,0.0,0.0,0.0,4.0066,4.0366,4.0746,4.1135,4.1272,4.1538,4.1931,4.2061,4.2318,4.2665,4.2959,4.3416,4.4039,4.4378,4.4714,4.5032,4.5441,4.5701,4.5871,4.6398,0.0,0.0,0.0,0.0,0.0,0.0,0.0,0.0,4.8532,4.8767,4.8978,4.9146,0.0,0.0,0.0,0.0,0.0,5.0044,5.0108,5.0392,5.1529,5.2409,5.3256,5.4278,0.0,0.0,0.0,0.0,5.6012,5.609,5.6149,5.6485,5.7363,5.8901,6.0339,6.1337,6.1489,6.1519,6.1578,6.1588,6.1607,6.1607,6.1607,6.1295,6.0555,6.038,5.9659,5.8178,5.7968,5.754,5.6702,5.6682,5.6678,5.6669,5.6607,5.6519,5.6378,5.6331,5.6302,5.6296,5.6304,5.6291,5.6291,5.6291,5.6291,5.6291,5.6291,5.6291,5.6285,5.6213,5.619,5.6184,5.6125,5.6065,5.6012,0.0,0.0,0.0,0.0,0.0,0.0,0.0,0.0,0.0,0.0,0.0,0.0,0.0,0.0,0.0,0.0,0.0,0.0,0.0,0.0,3.9481,3.9975,4.0137,4.0436,4.0916,4.112,4.1388,4.1752,4.198,4.2238,4.2508,4.2929,4.3446,4.4097,4.4293,4.4603,4.5005,4.5363,4.5598,4.5846,0.0,0.0,0.0,0.0,0.0,0.0,0.0,0.0,0.0,0.0,4.8732,4.8943,4.9129,0.0,0.0,0.0,0.0,0.0,5.0031,5.0095,5.0253,5.088,5.2031,5.313,5.362,0.0,0.0,0.0,5.5941,5.6029,5.6141,5.6184,5.65,5.7411,5.8648,5.9805,6.0725,6.1271,6.1578,6.1607,6.1607,6.1412,6.0945,6.0906,6.0536,5.9659,5.9152,5.8548,5.7734,5.7286,5.6877,5.6507,5.6507,5.6507,5.6507,5.6474,5.6446,5.6393,5.6372,5.6339,5.6302,5.631,5.6291,5.6291,5.6291,5.6291,5.6291,5.6291,5.6291,5.6291,5.6272,5.6231,5.6191,5.6082,5.6029,5.6012,0.0,0.0,0.0,0.0,0.0,0.0,0.0,0.0,0.0,0.0,0.0,0.0,0.0,0.0,0.0,0.0,0.0,0.0,0.0,0.0,3.9173,3.996,4.0011,4.0261,4.0799,4.1,4.1221,4.1522,4.1916,4.227,4.2555,4.2929,4.3446,4.4097,4.4212,4.4536,4.5005,4.5257,4.5537,4.5846,0.0,0.0,0.0,0.0,0.0,0.0,0.0,0.0,0.0,0.0,0.0,0.0,0.0,0.0,0.0,4.9619,4.9692,4.9764,5.0005,5.0095,5.0145,5.0302,5.1545,5.2785,5.3031,5.4389,5.5654,5.5856,5.5969,5.6065,5.6184,5.6202,5.6523,5.7443,5.817,5.8937,5.9878,6.056,6.0988,6.0993,6.0993,6.074,6.0086,6.0027,5.9653,5.8771,5.8089,5.7622,5.7423,5.6838,5.6507,5.6507,5.6507,5.6507,5.6507,5.6507,5.6479,5.6417,5.6407,5.6375,5.6314,5.631,5.6291,5.6291,5.6291,5.6291,5.6291,5.6291,5.6291,5.6291,5.6291,5.6271,5.6191,5.6046,5.6012,5.6012,0.0,0.0,0.0,0.0,0.0,0.0,0.0,0.0,0.0,0.0,0.0,0.0,0.0,0.0,0.0,0.0,0.0,0.0,0.0,0.0,3.8567,3.9945,4.0011,4.0261,4.0799,4.1,4.1153,4.1323,4.1851,4.2429,4.3052,4.3066,4.3446,4.4097,4.4097,4.4423,4.5005,4.515,4.5459,4.5846,4.6253,0.0,0.0,0.0,0.0,0.0,0.0,0.0,0.0,0.0,0.0,0.0,0.0,0.0,4.926,4.9604,4.9692,4.975,4.9952,5.0057,5.012,5.0207,5.1059,5.2094,5.2907,5.3927,5.4921,5.5721,5.5996,5.6106,5.6191,5.6246,5.658,5.7451,5.7697,5.8092,5.8972,5.9152,5.9181,5.9182,5.9186,5.919,5.9189,5.9193,5.8815,5.7958,5.7821,5.7443,5.6624,5.6526,5.6507,5.6507,5.6507,5.6507,5.6507,5.6507,5.6507,5.6483,5.6437,5.6406,5.6386,5.6323,5.6291,5.6291,5.6291,5.6291,5.6291,5.6291,5.6291,5.6291,5.6291,5.6271,5.6191,5.6046,5.6012,5.6012,0.0,0.0,0.0,0.0,0.0,0.0,0.0,0.0,0.0,0.0,0.0,0.0,0.0,0.0,0.0,0.0,0.0,0.0,0.0,3.7314,3.8329,3.9343,3.9768,4.0191,4.0593,4.0932,4.1135,4.1187,4.1801,4.2444,4.3113,4.3113,4.3446,4.4097,4.4097,4.444,4.5005,4.5059,4.5353,4.5821,4.6055,4.6332,0.0,0.0,0.0,0.0,0.0,0.0,0.0,0.0,4.8605,4.866,4.9079,4.9214,4.9279,4.9604,4.9692,4.975,4.9952,5.0057,5.012,5.0175,5.0608,5.1354,5.2738,5.3849,5.4844,5.5721,5.6016,5.6114,5.6182,5.6253,5.6411,5.6795,5.7327,5.7819,5.8159,5.8659,5.9003,5.8991,5.9042,5.8858,5.8334,5.8295,5.7925,5.706,5.6991,5.6843,5.6523,5.6492,5.6507,5.6507,5.6507,5.6507,5.6507,5.6507,5.6479,5.6446,5.6407,5.6411,5.6406,5.6323,5.6291,5.6291,5.6291,5.6291,5.6291,5.6291,5.6291,5.6311,5.6245,5.6194,5.6133,5.6029,5.6012,5.6012,0.0,0.0,0.0,0.0,0.0,0.0,0.0,0.0,0.0,0.0,0.0,0.0,0.0,0.0,0.0,0.0,0.0,0.0,3.5688,3.6713,3.7654,3.8473,3.9081,3.9603,4.0113,4.0538,4.0899,4.1117,4.1768,4.2444,4.3113,4.3113,4.3446,4.4097,4.4097,4.444,4.5005,4.5005,4.53,4.5821,4.5955,4.6235,0.0,0.0,0.0,0.0,0.0,0.0,0.0,0.0,4.8605,4.866,4.9079,4.9214,4.9279,4.9604,4.9692,4.975,4.9952,5.0057,5.012,5.0219,5.0371,5.0875,5.2327,5.3464,5.4544,5.5663,5.6014,5.6145,5.6219,5.6284,5.635,5.6397,5.6914,5.7327,5.7329,5.7833,5.8215,5.8207,5.824,5.8055,5.7473,5.7414,5.7177,5.655,5.6494,5.65,5.6492,5.6496,5.6507,5.6507,5.6507,5.6507,5.6507,5.6507,5.6474,5.6393,5.6402,5.6386,5.6375,5.6317,5.6291,5.6291,5.6291,5.6291,5.6291,5.6291,5.6285,5.6272,5.6194,5.6141,5.609,5.6029,5.6012,5.6012,0.0,0.0,0.0,0.0,0.0,0.0,0.0,0.0,0.0,0.0,0.0,0.0,0.0,0.0,0.0,0.0,0.0,0.0,3.5314,3.5722,3.6373,3.7434,3.7805,3.8412,3.9287,3.9807,4.0415,4.1117,4.1768,4.2444,4.3113,4.3113,4.3446,4.4097,4.4097,4.444,4.5005,4.5005,4.53,4.5821,4.5938,4.6235,4.6637,0.0,0.0,0.0,0.0,0.0,0.0,0.0,4.8605,4.866,4.9079,4.9214,4.9279,4.9604,4.9692,4.975,4.9952,5.0057,5.0133,5.0267,5.0393,5.0743,5.1691,5.2676,5.3888,5.5557,5.6059,5.6216,5.6284,5.635,5.6397,5.6407,5.645,5.6492,5.6492,5.6492,5.6507,5.6503,5.6509,5.6533,5.6584,5.6606,5.656,5.6509,5.6491,5.6494,5.6496,5.6496,5.6507,5.6507,5.6507,5.6507,5.6507,5.6507,5.6474,5.6388,5.6402,5.6356,5.6302,5.631,5.6291,5.6291,5.6291,5.6291,5.6291,5.6291,5.6252,5.6192,5.613,5.6098,5.609,5.6029,5.6012,5.6012,0.0,0.0,0.0,0.0,0.0,0.0,0.0,0.0,0.0,0.0,0.0,0.0,0.0,0.0,0.0,0.0,0.0,0.0,3.4641,3.5439,3.6151,3.6765,3.7582,3.8199,3.8598,3.9079,4.0129,4.1801,4.198,4.2444,4.3113,4.3113,4.3446,4.4097,4.4097,4.444,4.5005,4.5005,4.53,4.5795,4.5846,4.6154,4.6637,0.0,0.0,0.0,0.0,0.0,0.0,0.0,0.0,0.0,4.9079,4.9214,4.9279,4.9604,4.9692,4.975,4.9952,5.0057,5.0133,5.0267,5.0393,5.0743,5.1691,5.2676,5.3925,5.5728,5.6164,5.6225,5.629,5.635,5.6397,5.6407,5.6464,5.6508,5.6492,5.6498,5.6497,5.6506,5.6536,5.6582,5.6604,5.6606,5.6584,5.656,5.6539,5.6501,5.6494,5.6504,5.6507,5.6507,5.6507,5.6507,5.6507,5.645,5.6427,5.6402,5.635,5.6314,5.6302,5.631,5.6291,5.6291,5.6291,5.6291,5.6291,5.6246,5.6197,5.613,5.6106,5.6073,5.6029,5.6012,5.6012,5.6012,0.0,0.0,0.0,0.0,0.0,0.0,0.0,0.0,0.0,0.0,3.1299,3.1683,0.0,0.0,0.0,0.0,0.0,0.0,0.0,3.5034,3.561,3.5844,3.6745,3.7521,3.8172,3.8711,3.9723,4.1277,4.1277,4.1605,4.2261,4.2261,4.2587,4.3141,4.3198,4.3518,4.4019,4.4046,4.4389,4.4891,4.4891,4.5194,4.571,0.0,0.0,0.0,0.0,0.0,0.0,0.0,0.0,0.0,4.8501,4.8728,4.8848,4.951,4.9692,4.975,4.9978,5.007,5.0145,5.0337,5.0427,5.0753,5.1751,5.2982,5.4353,5.5885,5.6223,5.6265,5.6333,5.6367,5.6417,5.6441,5.6472,5.6496,5.6503,5.6491,5.6509,5.6533,5.6582,5.6606,5.6606,5.6606,5.6584,5.656,5.6517,5.6498,5.6491,5.6504,5.6507,5.6507,5.6507,5.6483,5.6455,5.6417,5.6393,5.635,5.6314,5.6296,5.6303,5.6304,5.6291,5.6291,5.6291,5.6285,5.6272,5.6211,5.616,5.6098,5.6073,5.6029,5.6012,5.6012,5.6012,5.6012,0.0,0.0,2.6897,2.7627,0.0,0.0,0.0,0.0,0.0,0.0,3.1187,3.1572,0.0,0.0,0.0,0.0,0.0,3.3896,3.3896,3.4549,3.4902,3.4902,3.5621,3.6596,3.7873,3.8512,3.9125,3.9806,3.9934,4.0347,4.1,4.0983,4.1243,4.1683,4.1821,4.2115,4.2507,4.2628,4.3012,4.3482,4.3482,4.381,4.4306,4.4515,0.0,0.0,0.0,0.0,0.0,0.0,0.0,0.0,4.7532,4.7868,4.81,4.9246,4.9579,4.967,5.0012,5.0095,5.017,5.0427,5.0521,5.0805,5.1856,5.3351,5.4788,5.5854,5.6206,5.6317,5.64,5.6393,5.6422,5.6483,5.6504,5.6503,5.6501,5.652,5.6533,5.6584,5.6606,5.6606,5.6606,5.6606,5.656,5.6509,5.6491,5.6494,5.6496,5.6496,5.6507,5.6507,5.6507,5.6474,5.6393,5.6407,5.6363,5.6302,5.6302,5.6303,5.6291,5.6291,5.6291,5.6291,5.6291,5.6265,5.6192,5.6187,5.6149,5.609,5.602,5.6012,5.6012,5.6012,5.6012,5.6003,0.0,0.0,2.7226,2.7957,0.0,0.0,0.0,0.0,0.0,0.0,0.0,0.0,0.0,0.0,0.0,0.0,3.3452,3.3896,3.3896,3.4549,3.4902,3.4902,3.5621,3.6397,3.7187,3.7358,3.7726,3.8336,3.947,4.0287,4.0857,4.0942,4.1202,4.1559,4.1794,4.2115,4.2507,4.2628,4.3012,4.3482,4.3482,4.381,4.4306,4.4515,4.4771,0.0,0.0,0.0,0.0,0.0,0.0,0.0,4.6808,4.6975,4.7186,4.8361,4.8692,4.8881,4.9841,5.0095,5.017,5.0427,5.0615,5.0979,5.1892,5.2464,5.3269,5.4842,5.578,5.6327,5.6381,5.6393,5.6426,5.648,5.6503,5.6504,5.65,5.6553,5.6582,5.6604,5.6606,5.6606,5.6606,5.6606,5.656,5.6509,5.6491,5.6494,5.6496,5.6496,5.6507,5.6507,5.6507,5.6474,5.6393,5.6407,5.6361,5.6302,5.6297,5.6298,5.6291,5.6291,5.6291,5.6291,5.6246,5.6211,5.6206,5.6149,5.6082,5.602,5.6012,5.6012,5.6012,5.6012,5.6012,5.6003,0.0,0.0,0.0,0.0,0.0,0.0,0.0,0.0,0.0,0.0,0.0,0.0,0.0,0.0,0.0,0.0,3.3333,3.3793,3.3896,3.4549,3.5067,3.5427,3.5767,3.632,3.6984,3.7015,3.7301,3.7905,3.8624,3.9259,3.9756,3.9866,4.0064,4.0332,4.0671,4.1028,4.135,4.1554,4.1928,4.241,4.241,4.2706,4.3231,4.3433,4.3665,4.391,4.4304,0.0,0.0,0.0,0.0,0.0,0.0,0.0,4.6345,4.7495,4.8108,4.856,4.9328,4.981,5.017,5.0478,5.0664,5.0926,5.1413,5.1931,5.2561,5.3506,5.4783,5.5864,5.6328,5.6422,5.6459,5.6488,5.6491,5.6508,5.6506,5.6558,5.6606,5.6606,5.6606,5.6606,5.6606,5.656,5.6531,5.6497,5.6501,5.65,5.65,5.6492,5.6507,5.6507,5.6474,5.6437,5.6393,5.6361,5.6333,5.6297,5.6304,5.6291,5.6291,5.6291,5.6285,5.6246,5.6225,5.6182,5.6149,5.6106,5.6073,5.6012,5.6012,5.6012,5.6012,5.6012,5.5995,5.6007,0.0,0.0,0.0,0.0,0.0,0.0,0.0,0.0,0.0,0.0,0.0,0.0,0.0,0.0,3.2314,0.0,0.0,0.0,3.3896,3.4549,3.5216,3.5973,3.6005,3.632,3.6984,3.7015,3.7301,3.7905,3.7905,3.8135,3.8588,3.8738,3.886,3.8996,3.9478,3.9858,4.0138,4.0387,4.0782,4.1209,4.1209,4.152,4.2026,4.2202,4.2409,4.2649,4.305,4.3196,4.3269,4.3652,0.0,0.0,0.0,0.0,4.5518,4.6661,4.748,4.8102,4.8549,4.9307,5.0052,5.0493,5.0692,5.0819,5.0882,5.1528,5.2142,5.2356,5.3724,5.5141,5.6016,5.6237,5.6316,5.6476,5.6491,5.6511,5.6528,5.658,5.6606,5.6606,5.6606,5.6606,5.6606,5.6536,5.65,5.6504,5.6503,5.6504,5.6507,5.6507,5.6483,5.6479,5.6422,5.6398,5.6381,5.6339,5.6309,5.6291,5.6291,5.6291,5.6285,5.6285,5.6246,5.6199,5.6185,5.6141,5.6098,5.609,5.6046,5.6012,5.6012,5.6012,5.6003,5.5995,5.5987,5.599,0.0,0.0,0.0,0.0,0.0,0.0,0.0,0.0,0.0,0.0,3.0444,3.0748,0.0,3.178,3.2132,3.2668,3.3086,3.3501,3.3896,0.0,0.0,3.5973,3.6005,3.632,3.6984,3.7015,3.7301,3.7905,3.7905,3.8135,3.8588,3.8738,3.8805,3.886,3.9425,3.9858,4.0138,4.0387,4.0782,4.1209,4.1209,4.152,4.2005,4.21,4.231,4.2649,4.2993,4.316,4.3269,4.3652,4.3804,0.0,0.0,0.0,4.4676,4.5819,4.6275,4.6612,4.7516,4.8522,4.9541,5.0394,5.0701,5.0819,5.0882,5.1083,5.1489,5.2233,5.323,5.4246,5.5102,5.5322,5.5619,5.6377,5.6501,5.6514,5.658,5.6584,5.6606,5.6606,5.6606,5.6606,5.6606,5.6536,5.65,5.6504,5.6503,5.6504,5.6507,5.6507,5.6479,5.6417,5.6393,5.6368,5.6314,5.6308,5.6309,5.6291,5.6291,5.6278,5.6206,5.6206,5.6206,5.6199,5.6145,5.6106,5.609,5.6037,5.6012,5.6012,5.6012,5.6012,5.6003,5.5998,5.5999,5.5981,0.0,0.0,0.0,0.0,0.0,0.0,0.0,0.0,0.0,0.0,0.0,3.071,0.0,3.1683,3.1986,3.2632,3.2966,3.3437,3.4108,3.4635,3.5184,3.5799,3.5941,3.632,3.6984,3.7015,3.7301,3.7905,3.7905,3.8135,3.8588,3.8738,3.8832,3.8942,3.9451,3.9858,4.0138,4.0387,4.0782,4.1209,4.1209,4.152,4.2005,4.2079,4.231,4.2649,4.2974,4.3142,4.3269,4.3652,4.3804,4.3869,4.4195,0.0,0.0,0.0,4.5696,4.6386,4.7422,4.8447,4.9333,4.9846,5.0401,5.0836,5.0983,5.1053,5.1224,5.1641,5.206,5.2753,5.4125,5.4431,5.4761,5.564,5.5763,5.5968,5.6523,5.6606,5.6606,5.6606,5.6606,5.6582,5.6555,5.6523,5.6508,5.6507,5.6508,5.6496,5.6507,5.6455,5.6422,5.6393,5.6363,5.6331,5.6302,5.6303,5.6278,5.6246,5.6246,5.6225,5.6202,5.616,5.6133,5.6133,5.6114,5.6082,5.6037,5.602,5.6012,5.6012,5.6012,5.5995,5.6007,5.5999,5.5943,5.5876,0.0,0.0,0.0,0.0,0.0,0.0,0.0,0.0,0.0,0.0,0.0,0.0,0.0,0.0,0.0,0.0,3.2846,3.3304,3.4264,3.4702,3.5151,3.5688,3.5894,3.632,3.6984,3.7015,3.7301,3.7905,3.7905,3.8164,3.8655,3.875,3.8914,3.9148,3.952,3.9884,4.0163,4.0412,4.0782,4.1209,4.1209,4.152,4.2005,4.2055,4.2308,4.2649,4.2955,4.3105,4.3269,4.3652,4.3804,4.3869,4.4195,4.4358,0.0,0.0,0.0,4.6143,4.7223,4.8022,4.8672,4.9084,4.984,5.0516,5.0717,5.0945,5.1115,5.1184,5.1196,5.1609,5.2922,5.3392,5.3845,5.4723,5.4866,5.521,5.6133,5.6274,5.6352,5.6567,5.6606,5.656,5.6509,5.6494,5.6494,5.6496,5.6496,5.6483,5.6479,5.6422,5.6383,5.6373,5.6331,5.6302,5.629,5.6278,5.6246,5.6199,5.6211,5.6182,5.6164,5.6114,5.609,5.6082,5.6082,5.6037,5.6012,5.6012,5.6012,5.6012,5.6012,5.5996,5.599,5.5981,5.5905,5.5787,0.0,0.0,0.0,0.0,0.0,0.0,0.0,0.0,0.0,0.0,0.0,0.0,3.1522,3.1609,3.1877,3.2632,3.2704,3.3094,3.4059,3.4601,3.5151,3.5688,3.5894,0.0,3.6984,3.7015,3.7301,3.7905,3.7905,3.8205,3.8805,3.8805,3.904,3.9484,3.9625,3.991,4.0305,4.0436,4.0782,4.1209,4.1209,4.152,4.2005,4.2005,4.2243,4.2629,4.2843,4.3031,4.3269,4.3652,4.3804,4.3869,4.4195,4.4358,4.444,0.0,0.0,0.0,4.6461,4.679,4.7079,4.8107,4.8968,4.9608,4.9826,5.0519,5.1121,5.1185,5.1206,5.1244,5.1405,5.2115,5.2949,5.3829,5.3969,5.4293,5.5238,5.5376,5.5669,5.6508,5.6606,5.656,5.6509,5.6494,5.6494,5.6496,5.6496,5.6479,5.6412,5.6393,5.6368,5.6314,5.6308,5.6309,5.6298,5.6239,5.6199,5.6199,5.6202,5.6164,5.6117,5.6098,5.6073,5.6012,5.6012,5.5993,5.6012,5.6012,5.6012,5.6012,5.6012,5.5996,5.599,5.5943,5.5856,5.5787,0.0,0.0,0.0,0.0,0.0,0.0,0.0,0.0,0.0,0.0,0.0,0.0,0.0,3.1609,3.1877,3.2632,3.3178,3.3626,3.3951,3.4534,3.5085,3.5479,3.5831,3.632,3.6984,3.7015,3.7301,3.7905,3.7905,3.8205,3.8805,3.8805,3.9104,3.9642,3.9677,3.991,4.0305,4.0436,4.0782,4.1209,4.1209,4.152,4.2005,4.2005,4.2243,4.2629,4.2785,4.2994,4.3251,4.3565,4.3736,4.3869,4.4195,4.4358,4.4468,4.4796,4.4979,4.5216,4.5724,4.6263,4.6829,4.7336,4.81,4.8759,4.8935,4.9647,5.028,5.0348,5.0807,5.122,5.1295,5.1565,5.2076,5.2971,5.3133,5.3434,5.434,5.4947,5.5415,5.5728,5.6228,5.6528,5.6494,5.6494,5.6496,5.6496,5.6455,5.6422,5.6393,5.6358,5.6325,5.6302,5.6303,5.6278,5.6239,5.6204,5.6187,5.6145,5.6149,5.6098,5.6029,5.6029,5.602,5.6012,5.6012,5.6012,5.6012,5.6012,5.6012,5.6003,5.5996,5.5971,5.5924,5.5856,5.5787,5.5735,0.0,0.0,0.0,0.0,0.0,2.9106,2.938,0.0,0.0,0.0,0.0,0.0,0.0,0.0,3.1986,3.2632,3.3452,3.3896,3.3896,3.4549,3.5037,3.54,3.5799,3.632,3.6984,3.7015,3.7301,3.7905,3.7905,3.8205,3.8805,3.8805,3.9131,3.9703,3.9703,3.9961,4.0362,4.0461,4.0782,4.1209,4.1209,4.152,4.2005,4.2005,4.2243,4.2629,4.2745,4.2956,4.3232,4.3512,4.3701,4.3869,4.4195,4.4383,4.4578,4.4895,4.5057,4.514,4.5351,4.5822,4.6311,4.6508,4.7213,4.789,4.8024,4.8735,4.9382,4.9443,5.016,5.0811,5.0858,5.1094,5.1507,5.2126,5.2227,5.2548,5.345,5.4057,5.4526,5.4799,5.555,5.6065,5.6065,5.6324,5.6484,5.6479,5.6422,5.6383,5.6363,5.6325,5.6296,5.6272,5.6265,5.6258,5.6197,5.618,5.6141,5.6098,5.6082,5.6037,5.6012,5.6012,5.6012,5.6012,5.6012,5.6012,5.6012,5.6012,5.6012,5.6003,5.5998,5.5962,5.5895,5.5826,5.5756,5.5703,0.0,2.8379,2.8578,2.8803,2.9145,2.9419,2.9419,2.9831,3.019,3.0368,0.0,0.0,0.0,0.0,0.0,3.2668,3.3437,3.3896,3.3896,3.4549,3.5037,3.54,3.5799,3.632,3.6984,3.7015,3.7301,3.7905,3.7889,3.8189,3.8805,3.8805,3.9131,3.9703,3.9703,3.9995,4.051,4.051,4.0782,4.1209,4.1209,4.152,4.2005,4.2005,4.2243,4.2609,4.2745,4.2956,4.3232,4.3512,4.3682,4.3869,4.4195,4.4482,4.4751,4.495,4.5038,0.0,0.0,0.0,0.0,4.564,4.6325,4.7001,4.7133,4.7837,4.849,4.8543,4.9309,4.996,4.9958,5.0661,5.1269,5.1268,5.1275,5.1613,5.2525,5.2684,5.2997,5.3774,5.4632,5.5172,5.519,5.5966,5.6437,5.6393,5.6388,5.6368,5.6308,5.6302,5.6272,5.6199,5.6199,5.6197,5.6199,5.6133,5.6098,5.609,5.6029,5.6012,5.6012,5.6012,5.6012,5.6012,5.6012,5.6012,5.6012,5.6012,5.6012,5.6003,5.5989,5.5962,5.5895,5.5826,5.5756,5.5703,2.8816,2.8895,2.9013,2.9184,2.9482,2.974,2.987,3.0267,3.0546,0.0,0.0,0.0,3.1572,3.2119,3.2596,3.2881,3.3521,3.3896,3.3896,3.4549,3.5037,3.54,3.5799,3.632,3.6984,3.7015,3.7301,3.7905,3.7988,3.8286,3.8805,3.904,3.9362,3.9703,3.9781,4.0087,4.051,4.051,4.0782,4.1209,4.1209,4.152,4.2005,4.2005,4.2243,4.2609,4.2629,4.2899,4.3214,4.3356,4.3565,4.3869,4.4195,4.4482,0.0,4.4821,4.4967,0.0,4.5288,0.0,0.0,0.0,0.0,0.0,4.6235,4.6933,4.7585,4.7658,4.8369,4.8993,4.9055,4.9764,5.0349,5.0353,5.0894,5.1414,5.1726,5.2294,5.2782,5.3016,5.3764,5.4511,5.5131,5.5428,5.5797,5.6354,5.6393,5.6367,5.6308,5.6259,5.6219,5.6199,5.6141,5.613,5.6133,5.6054,5.6029,5.6029,5.6012,5.6012,5.6012,5.6012,5.6012,5.6012,5.6012,5.6012,5.6012,5.6012,5.6012,5.6003,5.5952,5.5914,5.5885,5.5766,5.5724,5.5703,2.9197,2.9326,2.9456,2.9677,2.9882,3.0075,3.0228,0.0,0.0,0.0,0.0,0.0,3.1913,3.2395,3.281,3.3108,3.3591,3.3965,3.4088,3.4601,3.5085,3.5512,3.5831,3.632,3.6984,3.7015,3.7301,3.7905,3.803,3.8343,3.8805,3.9148,3.9441,3.9703,3.991,4.0188,4.0476,4.0216,4.0513,4.1209,4.1209,4.152,4.2005,4.2005,4.2243,4.2609,4.2609,4.2862,4.3196,4.3286,4.3546,4.3931,4.4211,4.4458,4.4646,4.4757,4.4919,0.0,0.0,0.0,0.0,4.5565,0.0,0.0,4.5833,4.6261,4.6674,4.6742,4.7478,4.8103,4.8156,4.887,4.9582,4.994,5.0431,5.0894,5.1294,5.1804,5.2116,5.2116,5.2847,5.3557,5.4064,5.4418,5.4801,5.5288,5.5627,5.5944,5.6246,5.6226,5.6185,5.6148,5.6122,5.609,5.6065,5.602,5.6012,5.6012,5.6012,5.6012,5.6012,5.6012,5.6012,5.6012,5.6012,5.6012,5.6012,5.6012,5.6012,5.5995,5.5943,5.5895,5.5885,5.5745,5.5703,5.5703,0.0,2.9689,2.9934,3.0126,3.033,3.0482,0.0,0.0,0.0,0.0,3.1582,3.2059,3.2381,3.2596,0.0,0.0,3.3675,3.4054,3.438,3.4702,3.5151,3.5688,3.5894,3.632,3.6984,3.6999,3.7315,3.7905,3.8059,3.8371,3.8805,3.9175,3.9468,3.9703,3.9927,4.0127,4.0322,3.9688,3.9997,4.0965,4.0965,4.1275,4.174,4.174,4.1994,4.232,4.232,4.259,4.2905,4.3011,4.3354,4.3742,4.3946,4.4106,4.4261,4.4455,4.4662,0.0,0.0,0.0,0.0,4.5559,4.5627,0.0,4.5778,4.5854,4.5905,4.598,4.6657,4.7242,4.7242,4.7961,4.881,4.9593,4.978,5.0186,5.1164,5.13,5.13,5.13,5.1978,5.2485,5.2582,5.3243,5.3706,5.3798,5.4466,5.5177,5.5876,5.592,5.5884,5.5827,5.5819,5.5783,5.5722,5.5722,5.5722,5.5722,5.5722,5.5722,5.5741,5.5818,5.5877,5.5877,5.5877,5.5877,5.5857,5.576,5.5838,5.5995,5.5923,5.5905,5.5885,5.5756,5.5714,5.5703,3.0203,3.0254,3.0343,3.0546,3.0761,3.0936,0.0,0.0,0.0,0.0,0.0,0.0,0.0,0.0,0.0,0.0,3.3744,3.4054,3.438,3.4702,3.5151,3.5688,3.5894,3.632,3.6984,3.7105,3.7419,3.7905,3.8303,3.8595,3.8805,3.9345,3.9651,3.967,3.9478,3.9452,3.957,3.9003,3.9034,3.9421,3.9421,3.968,4.0076,4.0076,4.0297,4.059,4.0648,4.0817,4.1088,4.1417,4.1728,4.1994,4.2103,4.2282,4.2513,4.2604,4.3271,4.3999,4.4124,4.4739,4.535,4.5476,4.5577,0.0,4.5773,4.5812,4.5834,4.5912,4.611,4.6272,4.6279,4.7028,4.7719,4.7873,4.85,4.9491,5.1082,5.13,5.13,5.13,5.144,5.1821,5.2522,5.2694,5.3034,5.3747,5.3908,5.4019,5.4181,5.4144,5.4107,5.4092,5.4033,5.3989,5.3981,5.3981,5.3981,5.3981,5.3981,5.3981,5.4,5.4716,5.5026,5.5026,5.5026,5.5026,5.4987,5.4271,5.4774,5.6003,5.598,5.5953,5.5895,5.5816,5.5745,5.5703,3.0823,3.0861,3.0898,3.1112,0.0,0.0,0.0,0.0,0.0,0.0,0.0,0.0,0.0,0.0,0.0,0.0,0.0,0.0,0.0,3.4802,3.5184,3.5831,3.5941,3.632,3.6984,3.7119,3.7433,3.7905,3.8359,3.8667,3.8805,3.9425,3.9729,3.979,3.945,3.9351,3.9408,3.8503,3.8218,3.8425,3.8854,3.9266,3.9595,3.9595,3.9815,4.0104,4.0181,4.0384,4.0651,4.0993,4.1188,4.1348,4.1531,4.1688,4.1824,4.1999,4.2479,4.2991,4.3126,4.3596,4.4066,4.4135,4.4246,0.0,0.0,4.5136,4.533,4.575,4.5906,4.596,4.5953,4.6366,4.6844,4.7286,4.7738,4.852,4.9826,5.0376,5.08,5.1209,5.1258,5.1424,5.1852,5.1867,5.2205,5.3048,5.3042,5.3196,5.3628,5.363,5.3581,5.3557,5.3514,5.3489,5.3445,5.3445,5.3445,5.3445,5.3445,5.3481,5.3517,5.3942,5.4155,5.4155,5.4155,5.4155,5.4116,5.3672,5.4,5.4746,5.4723,5.4649,5.4603,5.4574,5.4504,5.4453,3.1384,3.1458,3.1532,3.173,0.0,0.0,0.0,0.0,0.0,0.0,0.0,0.0,0.0,0.0,0.0,0.0,0.0,0.0,3.4868,3.4902,3.5216,3.5973,3.6037,3.6352,3.6984,3.718,3.7492,3.7905,3.8387,3.8722,3.886,3.9425,3.9697,3.9682,3.9326,3.9138,3.902,3.7888,3.7505,3.7662,3.8398,3.8872,3.9153,3.9153,3.935,3.9638,3.9713,3.995,4.0232,4.0485,4.06,4.0698,4.0962,4.1082,4.1165,4.1392,4.1675,4.1957,4.2101,4.2436,4.2745,4.2785,4.2918,4.3225,0.0,0.0,0.0,4.5365,4.5589,4.5699,4.5854,4.5941,4.6219,4.6918,4.7072,4.7413,4.8288,4.9027,4.9829,5.086,5.1108,5.1181,5.1176,5.1184,5.1455,5.2098,5.2084,5.2359,5.3065,5.3089,5.3065,5.3006,5.2998,5.2953,5.2891,5.2891,5.2891,5.2891,5.2891,5.2936,5.2989,5.3152,5.3238,5.3238,5.3246,5.3246,5.3246,5.3072,5.2995,5.3033,5.3301,5.3374,5.33,5.3302,5.3263,5.3203,3.1913,3.1936,3.2055,3.2273,0.0,0.0,0.0,0.0,0.0,0.0,0.0,0.0,3.3241,3.3466,3.3695,3.4059,3.4094,3.4332,3.4868,3.4902,0.0,3.5973,3.6116,3.6445,3.6984,3.7405,3.773,3.7905,3.85,3.886,3.8996,3.9451,3.9463,3.8997,3.8533,3.8088,3.7602,3.7047,3.6864,3.6931,3.7138,3.7369,3.7562,3.7562,3.7695,3.7917,3.808,3.8255,3.8425,3.8561,3.8775,3.8982,3.9029,3.9202,3.9407,3.949,4.0199,4.0992,4.1187,4.1832,4.2506,4.2745,4.2814,4.2881,4.3105,0.0,4.3527,4.4388,0.0,4.4969,4.5685,0.0,0.0,4.604,4.6065,4.6375,4.7248,4.7462,4.8163,4.9922,5.0768,5.1184,5.1117,5.1114,5.1153,5.1243,5.1189,5.1187,5.1296,5.1246,5.1206,5.1197,5.1145,5.1099,5.1099,5.1099,5.1099,5.1099,5.1099,5.1099,5.1127,5.1915,5.226,5.226,5.2321,5.2345,5.2287,5.1505,5.1188,5.1343,5.289,5.34,5.331,5.33,5.3254,5.3203,3.248,3.2431,3.2489,3.2561,0.0,0.0,0.0,0.0,0.0,0.0,0.0,3.3556,3.364,3.3799,3.3971,3.4094,3.4312,3.4582,3.4902,3.5115,0.0,3.5973,3.6226,3.6585,3.6984,3.7464,3.7801,3.8017,3.8539,3.8914,3.9175,3.9547,3.9463,3.8984,3.8444,3.7962,3.7474,3.6915,3.6745,3.6809,3.6948,3.7124,3.7297,3.7297,3.7466,3.7685,3.7757,3.7898,3.8069,3.8153,3.8322,3.8501,3.8661,3.878,3.8892,3.9087,3.948,3.9924,4.0121,4.0498,4.0889,4.1062,4.1175,4.1389,4.1991,4.2178,4.2497,4.3404,0.0,0.0,0.0,0.0,0.0,0.0,4.5834,4.5964,4.6332,4.6816,4.763,4.8971,4.9877,5.0577,5.105,5.1062,5.1039,5.099,5.096,5.0929,5.0885,5.0863,5.0846,5.0846,5.081,5.0784,5.0738,5.0738,5.0738,5.0738,5.0738,5.0766,5.0821,5.1185,5.1348,5.1348,5.141,5.1454,5.1415,5.1045,5.0898,5.0975,5.1718,5.1948,5.1898,5.1871,5.1808,5.1742,3.301,0.0,3.3037,3.3037,0.0,0.0,0.0,0.0,3.3405,3.3405,3.3713,3.3917,3.3951,3.4108,3.4196,3.4264,3.4582,3.4817,3.4968,3.5326,3.5651,3.5973,3.6352,3.6677,3.6984,3.751,3.786,3.81,3.8567,3.8969,3.9352,3.9642,3.9556,3.9163,3.8532,3.8012,3.7619,3.6974,3.6766,3.6851,3.6968,3.7124,3.7314,3.7353,3.7503,3.7667,3.7685,3.7792,3.7932,3.8034,3.8136,3.8289,3.8517,3.8645,3.8753,3.8935,3.9073,3.921,3.9376,3.9526,3.9658,3.9804,3.9922,4.0169,4.0911,4.1141,4.1454,4.2371,4.264,0.0,0.0,0.0,4.4411,4.5252,0.0,4.5471,4.5703,4.629,4.705,4.8005,4.8876,4.9741,5.0606,5.0634,5.0674,5.0855,5.0861,5.0855,5.0801,5.0784,5.0775,5.0775,5.0766,5.0739,5.0702,5.0702,5.0702,5.0702,5.0702,5.072,5.0757,5.0775,5.0775,5.0784,5.0846,5.0872,5.0899,5.0893,5.089,5.0898,5.0898,5.0901,5.0888,5.0819,5.0766,5.0692,3.3506,3.3643,0.0,0.0,3.332,3.2673,3.2027,3.2487,3.2906,3.2906,3.3496,3.3951,3.4094,3.4264,3.4481,3.4664,3.4817,3.4968,3.518,3.5359,3.5651,3.5973,3.6445,3.68,3.7015,3.7583,3.7976,3.81,3.8567,3.904,3.9501,3.9772,0.0,0.0,3.8688,3.818,3.7742,3.7015,3.6806,3.6989,3.7007,3.7124,3.7316,3.7521,3.7613,3.7613,3.7667,3.7703,3.7739,3.7932,3.8052,3.8136,3.8272,3.8485,3.8707,3.8723,3.891,3.9129,3.9197,3.9317,3.9452,3.9658,3.9717,3.9781,4.0003,4.0105,4.0403,4.1274,4.1561,4.1918,4.2781,4.3052,4.341,0.0,4.4344,0.0,0.0,4.5637,4.602,4.703,4.7859,4.8686,4.9555,4.9592,4.9894,5.0743,5.0801,5.0801,5.0801,5.0729,5.0701,5.0701,5.0702,5.0693,5.0693,5.0693,5.0693,5.0693,5.0693,5.0693,5.0693,5.0702,5.0701,5.0701,5.0775,5.0846,5.0899,5.0899,5.0905,5.0898,5.0898,5.0898,5.089,5.0808,5.0766,5.0692,3.4088,3.3785,0.0,3.2959,3.272,3.2537,3.2449,3.2736,3.2978,3.2978,3.3547,3.3974,3.4039,3.4438,3.4769,3.485,3.5016,3.518,3.5392,3.5683,3.5988,3.6336,3.6708,3.7014,3.727,3.7685,3.8062,3.8427,3.8777,3.9158,0.0,0.0,0.0,0.0,3.8797,3.8264,3.7763,3.7059,3.6849,3.7007,3.7143,3.7278,3.7373,3.754,3.7595,3.7595,3.7631,3.7649,3.7703,3.7774,3.788,3.8003,3.8138,3.8219,3.8334,3.8512,3.8683,3.8866,3.8964,3.9101,3.9232,3.9401,3.9477,3.9551,3.9751,3.9826,3.9946,4.0336,4.0498,4.0854,4.1685,4.1944,4.2315,0.0,0.0,4.4212,0.0,4.5074,4.5591,4.5926,4.6801,4.7709,4.8596,4.8619,4.8921,4.975,4.9808,5.0038,5.0557,5.0575,5.0565,5.0565,5.0573,5.0563,5.0563,5.0613,5.0633,5.0633,5.0673,5.0712,5.0712,5.0702,5.0693,5.0693,5.073,5.0757,5.0775,5.0829,5.0827,5.0825,5.0825,5.0825,5.0836,5.081,5.0793,5.0757,3.3982,3.3547,3.3139,3.2805,3.2533,3.2267,3.2156,3.241,3.2634,3.2634,3.3225,3.3758,3.3979,3.4395,3.4783,3.5085,3.5264,3.5474,3.5651,3.591,3.6195,3.6492,3.6816,3.7135,3.7387,3.7786,3.8189,3.8611,3.8942,3.9309,0.0,0.0,0.0,0.0,3.9009,3.849,3.8125,3.7205,3.6891,3.7048,3.7241,3.7354,3.7411,3.754,3.7595,3.7595,3.7595,3.7631,3.7685,3.7685,3.7757,3.7846,3.7984,3.8052,3.8101,3.83,3.8481,3.8609,3.8728,3.8859,3.9017,3.9142,3.921,3.9298,3.9514,3.9563,3.9599,3.9735,3.9856,4.0084,4.0629,4.0828,4.1194,0.0,0.0,4.3217,0.0,4.4414,4.4913,4.5258,4.5928,4.6701,4.7586,4.7635,4.7953,4.8778,4.8835,4.9065,4.959,4.9599,4.9599,4.9599,4.9599,4.9599,4.9599,4.966,4.967,4.967,4.973,4.9779,4.9779,4.9779,4.9779,4.9788,4.9778,4.9797,4.9843,5.0198,5.034,5.0377,5.0686,5.0801,5.0801,5.0775,5.0766,5.0758,3.33,3.3026,3.3076,3.3305,3.2705,3.1946,3.125,3.1633,3.1987,3.1987,3.2592,3.3273,3.3923,3.4157,3.4582,3.5444,3.5653,3.5799,3.6005,3.6148,3.6305,3.6523,3.6847,3.7135,3.7417,3.7886,3.8286,3.8611,3.9067,3.9441,0.0,0.0,0.0,0.0,3.9307,3.8855,3.8803,3.7396,3.693,3.7127,3.7318,3.7393,3.7411,3.754,3.7595,3.7595,3.7577,3.7577,3.7595,3.7649,3.7685,3.7703,3.7828,3.7933,3.8001,3.8068,3.8236,3.8399,3.8462,3.8618,3.8807,3.8848,3.8921,3.9036,3.9232,3.9285,3.9324,3.9446,3.9539,3.9599,3.967,3.9728,4.0068,0.0,0.0,0.0,4.3384,4.3643,4.4007,4.4909,4.5231,4.5697,4.6531,4.6626,4.6971,4.7863,4.7921,4.794,4.7978,4.7978,4.7978,4.7978,4.7978,4.7978,4.7978,4.7988,4.7988,4.7988,4.8058,4.8106,4.8106,4.8097,4.8096,4.8096,4.8105,4.8133,4.8263,4.9083,4.9437,4.9519,5.0349,5.0696,5.0726,5.072,5.0712,5.0712,3.3829,3.3256,3.2891,3.2819,3.2387,3.1979,3.1799,3.1905,3.1981,3.1981,3.2598,3.3261,3.3924,3.4499,3.5089,3.58,3.591,3.599,3.6148,3.632,3.6554,3.6847,3.715,3.7433,3.7772,3.8119,3.846,3.875,3.9218,3.9537,3.9703,0.0,0.0,0.0,3.9358,3.8864,3.8803,3.7498,3.7048,3.7259,3.7354,3.7466,3.754,3.7594,3.7595,3.7594,3.7485,3.7448,3.7448,3.7411,3.7429,3.7503,3.7631,3.7721,3.7792,3.7916,3.8019,3.8103,3.8119,3.8318,3.8512,3.851,3.8618,3.877,3.8946,3.8989,3.9031,3.9183,3.9264,3.9317,3.9343,3.9414,3.9577,3.9827,4.0453,4.1274,4.2291,4.3001,4.3479,4.3718,4.4417,4.5055,4.5467,4.5497,4.587,4.6748,4.6805,4.7072,4.7674,4.7713,4.7713,4.7713,4.7713,4.7724,4.7777,4.7832,4.7875,4.7937,4.7988,4.8038,4.8038,4.8087,4.8107,4.8087,4.8106,4.8115,4.8143,4.8374,4.846,4.8469,4.87,4.9181,4.9845,5.0461,5.0712,5.0712,3.3826,3.3336,3.3043,3.2931,3.2715,3.2484,3.2234,3.2163,3.2163,3.2163,3.2499,3.2959,3.3587,3.4302,3.5003,3.5737,3.6089,3.6383,3.6538,3.6647,3.6877,3.715,3.7314,3.761,3.802,3.8335,3.8628,3.8887,3.9362,3.9694,3.9867,0.0,0.0,0.0,0.0,3.926,3.8907,3.7657,3.7201,3.7316,3.7429,3.754,0.0,3.7595,3.7595,3.7594,3.7411,3.7373,3.7392,3.7316,3.7334,3.7373,3.7447,3.7485,3.754,3.7649,3.7739,3.7827,3.7862,3.8052,3.8219,3.8219,3.83,3.8428,3.859,3.8652,3.871,3.8829,3.8884,3.896,3.9003,3.9087,3.9156,3.9183,3.9656,4.0288,4.111,4.1688,4.229,4.3002,4.3563,4.4119,4.4604,4.4839,4.5188,4.5706,4.5744,4.5934,4.6402,4.6421,4.6433,4.6456,4.6456,4.6511,4.6557,4.6603,4.6658,4.6713,4.6785,4.6845,4.6846,4.6906,4.6925,4.6925,4.6954,4.6962,4.7001,4.7404,4.7586,4.7605,4.7971,4.8394,4.8933,4.9779,5.0346,5.0702,3.3683,3.3398,3.3398,3.3372,3.3372,3.3214,3.2645,3.2535,3.248,3.2453,3.2453,3.2675,3.3238,3.3923,3.4673,3.5475,3.6182,3.6692,3.6969,3.703,3.7165,3.7387,3.7476,3.7727,3.8237,3.8488,3.8777,3.9023,3.9478,3.9833,0.0,0.0,0.0,0.0,0.0,3.9691,3.8919,3.778,3.7297,3.7334,3.7503,3.7595,3.7595,3.7595,3.7595,3.7558,3.7372,3.7334,3.7373,3.7297,3.7259,3.7278,3.7278,3.7278,3.7316,3.7373,3.7466,3.7577,3.7631,3.7774,3.7915,3.7915,3.7984,3.8069,3.8206,3.8287,3.8368,3.8428,3.8491,3.8569,3.8683,3.8713,3.8762,3.8818,3.8873,3.9172,3.9875,4.0155,4.083,4.222,4.2649,0.0,4.3806,4.4397,4.477,4.4821,4.4833,4.4846,4.4846,4.4865,4.4883,4.4962,4.4962,4.4979,4.5068,4.508,4.5114,4.517,4.5235,4.5307,4.5369,4.538,4.539,4.54,4.5467,4.5495,4.5552,4.6377,4.6702,4.6779,4.7606,4.7933,4.802,4.8836,4.972,5.0509,3.4223,3.3949,3.3924,3.3797,3.3797,3.372,3.3513,3.3187,3.2935,3.2843,3.2816,3.308,3.3709,3.3908,3.4467,3.5725,3.5943,3.63,3.6968,3.721,3.7358,3.7417,3.7815,3.8164,3.8379,3.8628,3.8914,3.9245,3.9547,3.9833,0.0,0.0,0.0,0.0,0.0,3.9481,3.8388,3.7609,3.7334,3.7392,3.754,3.7595,3.7595,3.7595,3.7595,3.7558,3.7372,3.7297,3.7297,3.7124,3.7087,3.7127,3.7127,3.7203,3.7297,3.7316,3.7334,3.7353,3.7372,3.7429,3.7504,3.7504,3.7613,3.7739,3.7934,3.7986,3.802,3.8135,3.8185,3.8201,3.8218,3.832,3.8403,3.8481,3.8494,3.8546,3.8693,3.9357,3.9937,4.0212,4.1523,4.2488,4.2682,4.3707,4.4393,4.4388,4.4519,4.4565,4.4565,4.4619,4.4659,4.4672,4.4706,4.477,4.4846,4.4907,4.4955,4.5045,4.5103,4.517,4.5243,4.5288,4.5359,4.5399,4.5419,4.5419,4.5438,4.5582,4.5659,4.5755,4.6618,4.6954,4.705,4.7913,4.8748,4.9564,3.4619,3.4349,3.43,3.4226,3.4226,3.4176,3.4025,3.3848,3.3617,3.3346,3.3293,3.3409,3.366,3.406,3.4549,3.5124,3.5951,3.6564,3.6941,3.739,3.7714,3.7831,3.8135,3.8379,3.8504,3.8766,3.9067,3.9405,3.9599,3.991,0.0,4.0436,0.0,4.103,0.0,3.9789,3.8871,3.8176,3.7689,3.7411,3.754,3.7595,3.7595,3.7595,3.7595,3.7594,3.7411,3.7334,3.7259,3.7066,3.7009,3.7048,3.7048,3.7087,3.7143,3.7143,3.7182,3.7203,3.7203,3.726,3.7353,3.7353,3.741,3.7466,3.7576,3.7613,3.7649,3.7703,3.7792,3.7845,3.7845,3.7898,3.7933,3.7966,3.8018,3.8052,3.8052,3.8427,3.8911,3.9379,4.0176,4.1046,4.1936,4.2645,4.3344,4.4042,4.417,4.4233,4.4233,4.4288,4.436,4.4388,4.4491,4.4605,4.4699,4.4738,4.4802,4.4895,4.4955,4.5026,4.5103,4.517,4.5213,4.5254,4.5329,4.5341,4.5351,4.5381,4.54,4.5438,4.586,4.6033,4.6119,4.6931,4.7465,4.7982,3.4993,3.4739,3.4667,3.4618,3.4618,3.457,3.4448,3.4423,3.4275,3.3848,3.3771,3.372,3.3607,3.4138,3.4521,3.4542,3.5719,3.6558,3.689,3.7463,3.7917,3.8221,3.8391,3.856,3.8672,3.8931,3.9228,3.9537,3.9703,4.002,4.051,4.0534,4.0782,4.1174,4.071,4.0215,3.9726,3.8795,3.8132,3.7679,3.763,3.7595,3.7595,3.7595,3.7595,3.7577,3.7448,3.7373,3.7297,3.7087,3.7009,3.7007,3.7007,3.7007,3.7007,3.7007,3.7048,3.7069,3.705,3.7106,3.7182,3.718,3.7163,3.718,3.7182,3.7222,3.7279,3.7317,3.7392,3.7466,3.7466,3.7466,3.7466,3.7466,3.7522,3.7559,3.7559,3.7613,3.7936,3.8708,3.896,3.9608,4.0944,4.1506,4.2231,4.3286,4.367,4.386,4.3894,4.3971,4.4045,4.4087,4.4244,4.4397,4.4491,4.4537,4.4619,4.4751,4.4796,4.487,4.4955,4.5033,4.5068,4.5091,4.5203,4.5265,4.5256,4.5301,4.5341,4.5341,4.5341,4.5341,4.5408,4.5984,4.6304,4.6636,3.5529,3.5222,3.5198,3.5065,3.5041,3.4994,3.4859,3.4835,3.4659,3.4126,3.405,3.4,3.3873,3.3937,3.4166,3.4633,3.4825,3.5475,3.6826,3.7194,3.7656,3.8347,3.8628,3.8832,3.8942,3.9175,3.9405,3.9677,3.9935,4.0196,4.051,4.0607,4.0871,4.1174,4.071,4.0577,4.0589,3.9065,3.8509,3.8611,3.788,3.7595,3.7595,3.7595,3.7595,3.7577,3.7448,3.7411,3.7373,3.7166,3.7048,3.7007,3.7007,3.7007,3.7007,3.7007,3.6989,3.697,3.6851,3.6849,3.6829,3.6766,3.6763,3.6766,3.6829,3.6851,3.6891,3.7009,3.7046,3.7066,3.7066,3.7066,3.7066,3.7066,3.7048,3.7085,3.7085,3.7127,3.7241,3.7442,3.8177,3.8771,3.9044,4.0445,4.1441,4.1629,4.2704,4.3426,4.3531,4.3664,4.3744,4.3744,4.3983,4.4121,4.4155,4.4321,4.4473,4.4542,4.4592,4.4699,4.4808,4.4883,4.4943,4.5003,4.5091,4.5125,4.5125,4.5136,4.5136,4.5136,4.5136,4.5136,4.5136,4.5201,4.57,4.6326,3.6455,3.5852,3.5458,3.5412,3.5396,3.535,3.5234,3.5195,3.5118,3.4835,3.4618,3.4399,3.4275,3.425,3.4339,3.4565,3.4961,3.5685,3.6691,3.7254,3.7862,3.8623,3.8931,3.9121,3.9175,3.9415,3.9625,3.9807,4.0011,4.0238,4.0493,4.0704,4.0989,4.1318,4.1222,4.1032,4.0713,3.9595,3.8988,3.8736,3.7916,3.7595,3.7595,3.7595,3.7595,3.7595,3.754,3.7466,3.7392,3.7299,3.7185,3.705,3.7009,3.7007,3.7007,3.7007,3.693,3.6869,3.6811,3.6768,3.6725,3.6702,3.6702,3.6702,3.6725,3.6745,3.6728,3.6708,3.6629,3.6571,3.6571,3.6571,3.6571,3.6571,3.6571,3.6571,3.6571,3.6652,3.6753,3.6873,3.7253,3.7741,3.8335,3.9055,3.9937,4.0962,4.2204,4.3032,4.3251,4.3339,4.3426,4.346,4.3679,4.3825,4.3857,4.4048,4.4188,4.4262,4.4411,4.4524,4.4619,4.4699,4.4789,4.487,4.4907,4.4931,4.4967,4.4967,4.4967,4.4967,4.4967,4.4967,4.4986,4.4931,4.5098,4.5382,3.7234,3.6399,3.58,3.5778,3.5778,3.5734,3.5583,3.5583,3.5554,3.5475,3.5205,3.493,3.4691,3.4683,3.4667,3.4618,3.5095,3.5703,3.6427,3.7159,3.791,3.8634,3.9139,3.9432,3.9432,3.9625,3.9833,3.9961,4.0121,4.032,4.0558,4.0847,4.1152,4.1403,4.1538,4.1437,4.1102,4.0288,3.9629,3.9058,3.8272,3.7809,3.7595,3.7595,3.7595,3.7595,3.7595,3.754,3.7466,3.7411,3.7299,3.7166,3.7068,3.7009,3.7007,3.7007,3.693,3.6849,3.6788,3.6745,3.6681,3.6602,3.6582,3.6582,3.6582,3.6561,3.652,3.6377,3.6276,3.6216,3.6216,3.6216,3.6216,3.6216,3.6216,3.6216,3.6216,3.6297,3.6381,3.6468,3.6568,3.6896,3.7563,3.791,3.8629,3.9864,4.1052,4.205,4.2843,4.2975,4.3069,4.3178,4.3391,4.3494,4.3579,4.3779,4.3923,4.3983,4.4188,4.4325,4.4397,4.4496,4.4605,4.4725,4.4719,4.4776,4.4808,4.4821,4.4833,4.4833,4.4808,4.4808,4.4796,4.4751,4.464,4.4621,3.7629,3.6835,3.6259,3.6187,3.6187,3.6144,3.6019,3.5997,3.5932,3.5817,3.5795,3.5616,3.5135,3.5088,3.5041,3.4899,3.4899,3.5197,3.5885,3.6796,3.7603,3.8276,3.9198,3.9703,3.9703,3.9824,3.9961,4.0096,4.0345,4.0558,4.0697,4.1041,4.1272,4.1403,4.1538,4.1754,4.1934,4.112,4.0446,3.9805,3.9074,3.8308,3.7595,3.7595,3.7595,3.7595,3.7595,3.7595,3.7594,3.743,3.7411,3.7355,3.7166,3.705,3.7007,3.7007,3.7007,3.6948,3.6763,3.6702,3.664,3.6364,3.6301,3.6301,3.6301,3.6255,3.6182,3.6019,3.5997,3.5997,3.5997,3.5997,3.5997,3.5997,3.5997,3.5997,3.5997,3.5997,3.6058,3.6187,3.6204,3.6289,3.6499,3.7178,3.7735,3.8,3.8845,4.0226,4.2302,4.2532,4.2689,4.2901,4.3105,4.325,4.3303,4.3494,4.3647,4.3695,4.3908,4.4033,4.4106,4.4306,4.4426,4.4515,4.4565,4.4605,4.4605,4.4685,4.4712,4.4699,4.4632,4.4605,4.4592,4.4528,4.4378,4.4206,3.8742,3.7912,3.7155,3.6627,3.6541,3.6499,3.6356,3.6339,3.6272,3.6096,3.6058,3.5971,3.5734,3.5464,3.5304,3.5241,3.5205,3.5475,3.6185,3.6993,3.7753,3.8463,3.9369,3.9884,3.9986,4.0087,4.0238,4.037,4.0534,4.0776,4.1065,4.1249,4.1408,4.1538,4.167,4.1819,4.1952,4.1239,4.0844,4.061,3.9325,3.8647,3.8362,3.7809,3.7595,3.7595,3.7595,3.7595,3.7595,3.754,3.7485,3.7392,3.7318,3.7185,3.705,3.7009,3.6948,3.6849,3.6725,3.6623,3.6523,3.6343,3.6301,3.628,3.6233,3.6079,3.5905,3.5883,3.5778,3.5734,3.5734,3.5734,3.5734,3.5734,3.5734,3.5734,3.5734,3.5817,3.5883,3.5927,3.6014,3.6084,3.6148,3.6457,3.6926,3.7611,3.7961,3.8835,4.0413,4.1141,4.1604,4.18,4.2457,4.2862,4.3032,4.3214,4.3356,4.3425,4.3629,4.3812,4.3958,4.4082,4.4173,4.4214,4.4244,4.4306,4.4401,4.443,4.4426,4.4411,4.4288,4.4258,4.4244,4.4188,4.4033,4.3873,3.9448,3.8634,3.7802,3.6988,3.6849,3.6788,3.6647,3.6609,3.6564,3.6416,3.6395,3.6353,3.6272,3.598,3.5761,3.5627,3.5577,3.5751,3.6224,3.7202,3.7961,3.8409,3.9521,4.0163,4.0246,4.0337,4.0436,4.0583,4.0769,4.1006,4.1295,4.1363,4.1471,4.1604,4.1736,4.1862,4.197,4.1579,4.1294,4.102,4.0057,3.9325,3.8754,3.8237,3.7863,3.7595,3.7595,3.7595,3.7595,3.7595,3.754,3.7466,3.7429,3.7318,3.7185,3.7068,3.695,3.6849,3.6766,3.6664,3.6544,3.6402,3.6343,3.6259,3.6165,3.5993,3.5861,3.5751,3.5667,3.56,3.56,3.56,3.56,3.5571,3.5571,3.5549,3.5487,3.5549,3.5594,3.5594,3.5728,3.5817,3.5844,3.5971,3.6306,3.6878,3.7004,3.745,3.8298,3.9638,4.0443,4.0663,4.1244,4.1652,4.1845,4.2285,4.2577,4.2722,4.3226,4.358,4.3751,4.383,4.3876,4.3921,4.3986,4.4067,4.4147,4.4177,4.4192,4.4177,4.4017,4.3952,4.3936,4.3862,4.3681,4.3512,3.9884,3.9104,3.8306,3.7358,3.7145,3.705,3.6851,3.6831,3.6809,3.6725,3.6705,3.6722,3.6702,3.6602,3.6398,3.6062,3.6019,3.5997,3.5997,3.7376,3.8213,3.8213,3.9665,4.0493,4.051,4.0534,4.0607,4.0745,4.1,4.1233,4.1403,4.1403,4.1493,4.1626,4.1736,4.1884,4.2009,4.2079,4.1739,4.1181,4.1127,4.0235,3.8968,3.8934,3.8398,3.7702,3.7702,3.7667,3.7631,3.7631,3.7613,3.7577,3.7466,3.7411,3.7355,3.7166,3.705,3.6987,3.6849,3.6748,3.6664,3.6523,3.6402,3.6237,3.6062,3.5997,3.591,3.5667,3.56,3.56,3.56,3.56,3.5594,3.5514,3.5492,3.5446,3.5314,3.5314,3.5291,3.5291,3.5423,3.5498,3.5577,3.5706,3.5839,3.5975,3.6101,3.6208,3.628,3.8053,3.9212,3.9471,3.968,3.9854,4.0066,4.088,4.141,4.1687,4.2759,4.3339,4.3462,4.3529,4.358,4.3597,4.3781,4.3865,4.3881,4.3942,4.3974,4.3958,4.3728,4.3662,4.3664,4.3513,4.3322,4.316,4.1044,4.0141,3.924,3.8386,3.7687,3.7239,3.7182,3.7182,3.7143,3.7029,3.695,3.6888,3.6788,3.6705,3.6623,3.6541,3.631,3.6101,3.5997,3.7376,3.8213,3.8213,3.9665,4.0558,4.0648,4.0752,4.0894,4.1071,4.1244,4.1358,4.1403,4.1515,4.1626,4.1758,4.1902,4.2009,4.2079,4.2205,4.216,4.1968,4.1459,4.1033,4.0639,4.0143,3.9444,3.8726,3.8726,3.8349,3.7828,3.7828,3.7775,3.7667,3.7631,3.7522,3.7392,3.7279,3.7164,3.705,3.6987,3.6869,3.6728,3.6544,3.6356,3.6208,3.6165,3.5993,3.5839,3.5773,3.5667,3.56,3.56,3.56,3.56,3.5594,3.552,3.5492,3.5469,3.536,3.5291,3.5291,3.5331,3.5383,3.5498,3.556,3.5656,3.5839,3.5883,3.5949,3.6062,3.662,3.7384,3.8351,3.9054,3.9517,3.972,4.0014,4.0602,4.1482,4.2445,4.303,4.3215,4.3215,4.3268,4.3373,4.3408,4.3495,4.36,4.3599,4.3615,4.3599,4.3392,4.3322,4.3304,4.3105,4.2901,4.2728,4.1507,4.0908,4.0168,3.9026,3.8434,3.7967,3.75,3.7447,3.7391,3.7222,3.7163,3.7105,3.7046,3.7005,3.6946,3.6846,3.6582,3.6395,3.6314,3.7727,3.8572,3.8572,4.0002,4.0853,4.0942,4.0995,4.1111,4.1295,4.1363,4.1426,4.1493,4.1626,4.1736,4.1819,4.197,4.2076,4.2103,4.2246,4.2346,4.2351,4.2,4.1647,4.131,4.0955,4.0327,3.9643,3.9643,3.9373,3.8996,3.8996,3.8708,3.8349,3.8349,3.7972,3.7522,3.7503,3.7336,3.7164,3.7068,3.697,3.6849,3.6626,3.6461,3.6314,3.6255,3.6122,3.5971,3.5905,3.5778,3.5689,3.5689,3.5644,3.5577,3.5549,3.552,3.5469,3.5423,3.5354,3.5291,3.5291,3.5291,3.5337,3.5492,3.5492,3.5543,3.5706,3.5706,3.5773,3.5905,3.5971,3.6397,3.7196,3.7739,3.8114,3.832,3.9244,4.0208,4.123,4.2133,4.2629,4.2785,4.2841,4.2937,4.3069,4.3105,4.316,4.3232,4.3232,4.3232,4.3214,4.2994,4.2937,4.29,4.2709,4.2492,4.2251,4.1824,4.1552,4.1029,3.9734,3.9265,3.8815,3.7953,3.7721,3.7594,3.741,3.7353,3.7353,3.7353,3.7316,3.722,3.7066,3.7011,3.694,3.6858,3.822,3.9038,3.916,4.0461,4.1209,4.1209,4.1232,4.1295,4.1426,4.1448,4.1515,4.1626,4.1776,4.1841,4.1845,4.2019,4.2103,4.2145,4.2267,4.2405,4.2503,4.2524,4.2173,4.1604,4.1623,4.1156,4.0508,4.0508,4.0436,4.0328,4.0328,3.9878,3.9301,3.9301,3.8744,3.808,3.808,3.7915,3.7636,3.7256,3.7069,3.6948,3.6766,3.6623,3.6502,3.6343,3.6276,3.6187,3.6058,3.591,3.5839,3.5839,3.5711,3.5616,3.5543,3.5514,3.5469,3.5354,3.5314,3.5291,3.5291,3.5291,3.5337,3.5492,3.5492,3.552,3.56,3.56,3.5644,3.5773,3.5773,3.591,3.6216,3.6381,3.662,3.6963,3.8672,3.9987,4.0922,4.1789,4.2249,4.2331,4.2452,4.2589,4.2725,4.2786,4.2824,4.2824,4.2824,4.2824,4.2805,4.2571,4.2492,4.2472,4.2267,4.2019,4.1788,4.296,4.2232,4.1578,4.1343,4.0077,3.9067,3.8887,3.8277,3.7846,3.7811,3.7649,3.754,3.754,3.741,3.7295,3.7259,3.7858,3.8051,3.7648,3.8481,3.9282,3.9909,4.0739,4.1209,4.1209,4.1318,4.1431,4.156,4.167,4.1736,4.1758,4.1902,4.2009,4.204,4.2082,4.2166,4.2287,4.2405,4.2483,4.2503,4.2685,4.2673,4.2603,4.2643,4.2175,4.1487,4.1487,4.1053,4.0456,4.0456,4.0366,4.0185,4.0185,4.0058,3.9913,3.9913,3.9784,3.9329,3.7785,3.7184,3.6968,3.6829,3.6725,3.6623,3.6502,3.6381,3.6276,3.6187,3.6058,3.5975,3.5975,3.5861,3.5773,3.5768,3.5611,3.5492,3.5469,3.536,3.5291,3.5291,3.5291,3.5337,3.5492,3.5492,3.552,3.56,3.56,3.56,3.5622,3.5622,3.5711,3.5866,3.617,3.6738,3.7624,3.8664,3.9588,4.0416,4.141,4.1913,4.198,4.2124,4.2249,4.2369,4.2389,4.2371,4.2371,4.2371,4.2371,4.2369,4.2124,4.2019,4.198,4.1784,4.1542,4.13,4.3214,4.2832,4.2378,4.1941,4.118,4.0293,3.9391,3.8904,3.8419,3.7953,3.7828,3.7757,3.7757,3.8006,3.8144,3.8123,3.8777,3.9261,3.9402,3.9751,4.012,4.0471,4.1205,4.1626,4.1626,4.1688,4.1754,4.1815,4.188,4.1902,4.1923,4.2012,4.2058,4.2103,4.2264,4.2346,4.2407,4.2508,4.2606,4.2665,4.2745,4.2822,4.2861,4.29,4.2665,4.2357,4.2357,4.2103,4.1796,4.1796,4.1469,4.1107,4.1107,4.0763,4.0365,4.0365,4.0217,3.9847,3.8925,3.8254,3.7778,3.7644,3.7226,3.6826,3.6687,3.6585,3.6482,3.6377,3.6255,3.6148,3.6122,3.5993,3.5927,3.5927,3.5773,3.5656,3.5656,3.5566,3.5458,3.5458,3.5429,3.5446,3.5526,3.5537,3.552,3.56,3.56,3.56,3.56,3.56,3.5622,3.5689,3.5975,3.6573,3.7517,3.8391,3.9242,4.009,4.1019,4.1542,4.1631,4.1697,4.1784,4.1931,4.1931,4.1931,4.1931,4.1931,4.1931,4.1909,4.1635,4.1507,4.1503,4.1295,4.1041,4.0789,4.3286,4.3269,4.305,4.2429,4.2103,4.1487,4.0199,3.9749,3.9318,3.8634,3.8509,3.8474,3.8474,3.8941,3.9208,3.9151,3.9771,4.0388,4.0892,4.1085,4.115,4.1067,4.1669,4.2005,4.2005,4.2005,4.2005,4.2005,4.2026,4.203,4.203,4.21,4.2145,4.2205,4.2405,4.2503,4.2526,4.2607,4.2706,4.2803,4.2822,4.2843,4.2901,4.2901,4.2901,4.2901,4.2901,4.2901,4.2901,4.2901,4.2484,4.1976,4.1976,4.1523,4.098,4.098,4.0812,4.053,3.998,3.9347,3.877,3.8634,3.8095,3.7574,3.7414,3.735,3.7248,3.7123,3.6845,3.664,3.6569,3.6285,3.6062,3.6041,3.5932,3.5839,3.5839,3.5734,3.5644,3.5644,3.5571,3.5543,3.56,3.5549,3.5543,3.56,3.5577,3.5594,3.5594,3.5532,3.5616,3.5779,3.6055,3.663,3.7489,3.8356,3.9227,4.0038,4.0764,4.1134,4.1244,4.1267,4.1335,4.1448,4.1448,4.1448,4.1448,4.1448,4.1448,4.1426,4.118,4.1071,4.1001,4.0823,4.0583,4.0296,4.3565,4.3463,4.3376,4.3321,4.2556,4.1956,4.1829,4.1122,4.0561,4.0507,4.0329,4.0221,4.0221,4.0202,4.0183,4.0201,4.0864,4.1274,4.1248,4.1944,4.2231,4.1917,4.197,4.2005,4.2005,4.2005,4.2005,4.2005,4.2058,4.2082,4.21,4.2207,4.2346,4.2463,4.2483,4.2526,4.2609,4.2725,4.2783,4.2803,4.2862,4.29,4.2901,4.2901,4.2901,4.2901,4.2901,4.2901,4.2901,4.2901,4.2846,4.281,4.281,4.2755,4.2719,4.2719,4.2662,4.2201,4.0477,3.9856,3.9667,3.9549,3.9456,3.936,3.9156,3.9111,3.9049,3.8872,3.8216,3.7669,3.7594,3.6882,3.6255,3.6187,3.6079,3.5975,3.5975,3.5883,3.5795,3.5795,3.5667,3.56,3.56,3.56,3.56,3.56,3.5543,3.5514,3.5514,3.5383,3.5633,3.6336,3.6654,3.7263,3.8128,3.8937,3.9713,4.0473,4.0638,4.0745,4.0745,4.0888,4.0942,4.0942,4.0942,4.0942,4.0942,4.0942,4.0942,4.0942,4.0793,4.0655,4.0517,4.0387,4.0087,3.9755,4.3719,4.3618,4.3515,4.3515,4.3172,4.2701,4.2207,4.1773,4.1338,4.0828,4.0652,4.0599,4.0599,4.089,4.1104,4.1104,4.1749,4.2122,4.2101,4.2388,4.2447,4.2202,4.2181,4.2181,4.2181,4.2181,4.2181,4.2181,4.2205,4.2284,4.2364,4.2405,4.2468,4.2568,4.2645,4.2704,4.2745,4.2823,4.2862,4.2862,4.29,4.2938,4.3012,4.3012,4.305,4.3087,4.3087,4.3087,4.3087,4.3087,4.3087,4.3087,4.3087,4.3068,4.3012,4.2919,4.2861,4.2638,4.1929,4.1253,4.0703,4.0566,4.0113,3.9678,3.9519,3.9456,3.9388,3.9224,3.8874,3.8597,3.8525,3.82,3.7945,3.7815,3.7309,3.6895,3.6808,3.6305,3.5888,3.5817,3.5751,3.5689,3.56,3.56,3.56,3.56,3.5543,3.5492,3.5492,3.5813,3.6128,3.6396,3.7405,3.8115,3.8451,3.8836,3.9442,4.0246,4.0387,4.0502,4.0583,4.0631,4.0655,4.0655,4.0655,4.0607,4.051,4.051,4.0485,4.0395,4.0263,4.0113,3.9986,3.9833,3.9573,3.9239,4.3818,4.3753,4.3651,4.3599,4.3515,4.328,4.2695,4.2517,4.2246,4.1697,4.1556,4.1486,4.1486,4.1851,4.2066,4.2066,4.2441,4.2688,4.2668,4.2629,4.255,4.2409,4.2389,4.2389,4.2389,4.2389,4.2389,4.2389,4.2389,4.2447,4.2526,4.2526,4.2568,4.2686,4.2764,4.2822,4.2823,4.2881,4.2919,4.2957,4.2957,4.3031,4.3123,4.3123,4.316,4.3214,4.3214,4.3214,4.3214,4.3214,4.3214,4.3214,4.3214,4.3142,4.3086,4.2994,4.2899,4.2823,4.2823,4.2311,4.1722,4.1564,4.1092,4.0602,4.0425,4.0341,4.0276,4.0172,3.9835,3.9553,3.9481,3.9229,3.8986,3.8877,3.8334,3.7879,3.7774,3.6972,3.6378,3.6268,3.5975,3.5773,3.5667,3.5622,3.56,3.56,3.5498,3.5501,3.5666,3.6057,3.6493,3.6952,3.7962,3.8596,3.8813,3.9,3.9379,3.9986,4.0062,4.0163,4.0246,4.0246,4.0246,4.0246,4.0246,4.0213,4.0113,4.0113,4.0037,3.991,3.9824,3.9651,3.9451,3.9335,3.9067,3.8777,4.3897,4.3851,4.3753,4.3634,4.3599,4.3582,4.3515,4.3446,4.3394,4.3394,4.3269,4.3214,4.3214,4.3142,4.3104,4.3104,4.2975,4.2862,4.2803,4.2686,4.2609,4.2609,4.2609,4.2609,4.2609,4.2609,4.2609,4.2609,4.2609,4.2609,4.2609,4.2609,4.2668,4.2803,4.2803,4.2842,4.2901,4.2901,4.2975,4.3104,4.3104,4.3142,4.3214,4.3214,4.3214,4.3196,4.3196,4.3196,4.3196,4.3196,4.3196,4.3196,4.3214,4.316,4.3104,4.3104,4.3012,4.2901,4.2901,4.2861,4.2763,4.2564,4.2503,4.2425,4.2163,4.2103,4.2079,4.2009,4.1244,4.0591,4.0524,3.9746,3.9114,3.9025,3.8894,3.8807,3.8807,3.7934,3.7303,3.7303,3.6432,3.5812,3.5812,3.5667,3.56,3.56,3.5429,3.5509,3.5976,3.6009,3.6688,3.8136,3.8228,3.856,3.9299,3.9547,3.9703,3.9703,3.9703,3.9703,3.9703,3.9703,3.9703,3.9703,3.9703,3.9703,3.9703,3.9703,3.9616,3.9501,3.9501,3.9299,3.8969,3.886,3.8611,3.8363,4.3958,4.3913,4.3867,4.3816,4.3767,4.3703,4.36,4.3566,4.3515,4.348,4.3375,4.334,4.334,4.3251,4.316,4.3104,4.3049,4.2975,4.2881,4.2843,4.2824,4.2824,4.2688,4.2609,4.2609,4.2609,4.2609,4.2609,4.2609,4.2649,4.2745,4.2745,4.2785,4.2862,4.2862,4.2937,4.303,4.303,4.3086,4.316,4.316,4.3251,4.334,4.334,4.3358,4.341,4.341,4.341,4.341,4.341,4.341,4.341,4.3358,4.3341,4.3305,4.3215,4.3123,4.303,4.303,4.2956,4.2824,4.2725,4.2586,4.2483,4.2405,4.2243,4.2082,4.2079,4.1814,4.1548,4.1423,4.1186,4.0941,4.0722,4.0219,3.9804,3.9609,3.8861,3.8272,3.8098,3.7357,3.6801,3.6656,3.6095,3.5689,3.56,3.5877,3.6276,3.6738,3.7268,3.7765,3.8195,3.8692,3.9003,3.9094,3.9309,3.9458,3.9563,3.9563,3.9616,3.9703,3.9703,3.9651,3.9563,3.9563,3.9432,3.9212,3.9212,3.9131,3.9013,3.8903,3.8766,3.856,3.8387,3.8132,3.794,4.407,4.4008,4.3929,4.3897,4.3867,4.3802,4.3703,4.3615,4.3582,4.3531,4.348,4.3446,4.3446,4.334,4.3269,4.3233,4.3141,4.3067,4.2994,4.2938,4.2901,4.2901,4.2786,4.2709,4.2709,4.2709,4.2709,4.2709,4.2709,4.2747,4.2842,4.2842,4.2861,4.2901,4.2975,4.3012,4.3104,4.3141,4.3196,4.3269,4.3269,4.334,4.3446,4.3446,4.3463,4.3515,4.3515,4.3515,4.3515,4.3515,4.3515,4.3497,4.3464,4.3411,4.3376,4.3286,4.3196,4.3104,4.3104,4.2994,4.29,4.2861,4.2725,4.2604,4.2524,4.2384,4.2225,4.2205,4.21,4.2012,4.1931,4.1845,4.1736,4.1582,4.1086,4.0677,4.0525,3.9753,3.9155,3.9003,3.8241,3.766,3.749,3.6996,3.661,3.638,3.6635,3.7044,3.75,3.7954,3.8344,3.8626,3.8987,3.9121,3.8996,3.9067,3.9148,3.9202,3.9202,3.9255,3.9345,3.9345,3.9309,3.9202,3.9202,3.9121,3.8914,3.8914,3.8805,3.8628,3.8544,3.8375,3.8164,3.7915,3.7727,3.7632,4.4199,4.4085,4.3974,4.3913,4.3913,4.3899,4.382,4.3684,4.3599,4.3599,4.3531,4.3515,4.3515,4.3446,4.3412,4.3394,4.3233,4.3104,4.3104,4.2994,4.2901,4.2901,4.2901,4.2901,4.2901,4.2901,4.2901,4.2901,4.2901,4.2901,4.2901,4.2901,4.2919,4.2919,4.3049,4.3104,4.3123,4.3178,4.3286,4.3412,4.3412,4.3446,4.3515,4.3515,4.3515,4.3515,4.3515,4.3515,4.3515,4.3515,4.3515,4.3515,4.3515,4.3464,4.3412,4.3412,4.3269,4.3104,4.3104,4.3012,4.2901,4.2901,4.2843,4.2745,4.2584,4.2503,4.2463,4.2346,4.2225,4.2103,4.2103,4.1952,4.1801,4.1801,4.1582,4.1426,4.1403,4.0612,4.0019,4.0019,3.9106,3.846,3.8316,3.8165,3.7953,3.7634,3.7609,3.7795,3.8261,3.8311,3.8609,3.9255,3.9094,3.8996,3.8969,3.8832,3.8805,3.8805,3.8805,3.8805,3.8805,3.8805,3.8805,3.8777,3.8777,3.8777,3.875,3.875,3.86,3.8335,3.8335,3.8135,3.7801,3.7492,3.7389,3.7503,4.4199,4.4085,4.4005,4.3974,4.3974,4.3961,4.3899,4.3802,4.3719,4.3599,4.3531,4.3515,4.3515,4.3497,4.3464,4.3394,4.3269,4.316,4.3104,4.3068,4.3012,4.2901,4.2901,4.2901,4.2901,4.2901,4.2901,4.2901,4.2901,4.2901,4.2901,4.2901,4.2975,4.3049,4.3086,4.3178,4.3341,4.334,4.3411,4.348,4.348,4.3497,4.3515,4.3515,4.3515,4.3515,4.3515,4.3515,4.3515,4.3515,4.3515,4.3515,4.3515,4.3497,4.348,4.348,4.334,4.3178,4.3178,4.3031,4.2901,4.2901,4.29,4.2843,4.2745,4.2606,4.2483,4.2463,4.2346,4.2207,4.2124,4.2034,4.1923,4.1819,4.167,4.1515,4.1426,4.1133,4.0914,4.0834,3.9986,3.9342,3.9159,3.8394,3.807,3.8346,3.8355,3.8562,3.9033,3.9067,3.9053,3.905,3.9023,3.8903,3.8699,3.8672,3.8683,3.8805,3.8805,3.8805,3.8805,3.8805,3.8722,3.8644,3.8644,3.8532,3.8335,3.8335,3.8193,3.7992,3.7905,3.7714,3.7476,3.7298,3.7402,3.7779,4.424,4.4165,4.407,4.4005,4.4005,4.3989,4.3942,4.3899,4.3802,4.3719,4.3617,4.3549,4.3496,4.3515,4.348,4.3464,4.334,4.3287,4.3251,4.316,4.3067,4.2994,4.2938,4.2901,4.2901,4.2901,4.2901,4.2901,4.2901,4.2901,4.2901,4.2975,4.303,4.3104,4.3196,4.3305,4.3412,4.3429,4.3463,4.3515,4.3515,4.3515,4.3515,4.3515,4.3515,4.3515,4.3515,4.3515,4.3515,4.3515,4.3515,4.3515,4.3515,4.3515,4.3515,4.3515,4.3375,4.3214,4.3214,4.305,4.2901,4.2901,4.2901,4.2881,4.2822,4.2685,4.2546,4.2503,4.2387,4.2287,4.2225,4.2076,4.1984,4.1902,4.1732,4.1582,4.1515,4.1323,4.1186,4.1152,4.0625,4.0173,3.9953,3.9329,3.9007,3.9117,3.9108,3.9189,3.9309,3.9202,3.9121,3.8996,3.8876,3.8738,3.8588,3.8548,3.8532,3.86,3.86,3.86,3.86,3.86,3.856,3.8408,3.8408,3.8294,3.8049,3.8049,3.7963,3.7788,3.7626,3.7462,3.7315,3.7403,3.7855,3.8473,4.4329,4.424,4.415,4.4036,4.402,4.4005,4.4005,4.3945,4.3883,4.3804,4.3684,4.3565,4.3515,4.3515,4.3515,4.3515,4.3464,4.3394,4.3394,4.3233,4.3123,4.3104,4.2975,4.2901,4.2901,4.2901,4.2901,4.2901,4.2901,4.2901,4.2938,4.3049,4.3123,4.316,4.3323,4.3412,4.3411,4.348,4.3515,4.3515,4.3515,4.3515,4.3515,4.3515,4.3515,4.3515,4.3515,4.3515,4.3515,4.3515,4.3515,4.3515,4.3515,4.3515,4.3515,4.3515,4.3375,4.3214,4.3214,4.305,4.2901,4.2901,4.2901,4.2881,4.2822,4.2706,4.257,4.2526,4.2387,4.2308,4.2308,4.2136,4.2005,4.2005,4.1776,4.1604,4.1604,4.1386,4.1209,4.1209,4.0971,4.0728,4.0485,4.0221,3.9944,3.9729,3.9677,3.9547,3.9299,3.9121,3.8996,3.8969,3.8727,3.8604,3.8576,3.8464,3.8391,3.8391,3.8363,3.8379,3.8379,3.8379,3.8294,3.8151,3.8151,3.8049,3.7876,3.7876,3.7759,3.7612,3.7433,3.7347,3.734,3.7777,3.8457,3.9169,4.4383,4.4304,4.4184,4.4184,4.407,4.4005,4.4005,4.3945,4.3883,4.3804,4.3684,4.3565,4.3515,4.3515,4.3515,4.3515,4.3497,4.3463,4.3394,4.3269,4.316,4.3104,4.2975,4.2901,4.2901,4.2901,4.2901,4.2901,4.2901,4.2957,4.3068,4.3086,4.3196,4.3359,4.3394,4.3429,4.3497,4.3497,4.3515,4.3515,4.3515,4.3515,4.3515,4.3515,4.3515,4.3515,4.3515,4.3515,4.3515,4.3515,4.3515,4.3515,4.3515,4.3515,4.3515,4.3515,4.3375,4.3214,4.3214,4.305,4.2901,4.2901,4.2901,4.2881,4.2822,4.2706,4.2609,4.2589,4.243,4.2308,4.2308,4.2136,4.2005,4.2005,4.1776,4.1604,4.1604,4.1386,4.1209,4.1209,4.083,4.0485,4.0337,4.0062,3.9858,3.9703,3.959,3.9458,3.9299,3.9121,3.8942,3.8832,3.8699,3.8532,3.8436,3.8408,3.8391,3.8391,3.8294,3.8237,3.8237,3.8237,3.8107,3.7934,3.7934,3.7847,3.773,3.773,3.7537,3.7254,3.7254,3.7403,3.7746,3.8639,3.9017,3.907,4.4397,4.4329,4.4244,4.4199,4.4085,4.4005,4.4005,4.3974,4.3929,4.3867,4.3769,4.3667,4.3583,4.3513,4.3515,4.3515,4.3515,4.3463,4.3394,4.3269,4.316,4.3104,4.2975,4.2901,4.2901,4.2901,4.2901,4.2901,4.2901,4.2975,4.3104,4.3142,4.3251,4.3412,4.3446,4.3463,4.3515,4.3515,4.3515,4.3515,4.3515,4.3515,4.3515,4.3515,4.3515,4.3515,4.3515,4.3515,4.3515,4.3515,4.3515,4.3515,4.3515,4.3515,4.3497,4.3464,4.3322,4.3196,4.3142,4.3013,4.2901,4.2901,4.2901,4.2881,4.2822,4.2706,4.2589,4.2548,4.2407,4.2308,4.2308,4.2136,4.2005,4.2005,4.1776,4.1582,4.1493,4.1318,4.114,4.0924,4.0662,4.0436,4.0313,4.0054,3.9833,3.9703,3.9563,3.9379,3.9148,3.8969,3.8849,3.8683,3.856,3.8448,3.8391,3.8391,3.8379,3.8294,3.8237,3.8209,3.8209,3.8078,3.7934,3.7788,3.7788,3.77,3.7599,3.7478,3.7344,3.7225,3.7404,3.7917,3.8578,3.8956,3.9221,3.941]}]]